<?xml version="1.0" encoding="UTF-8" standalone="no" ?>
<gpx xmlns="http://www.topografix.com/GPX/1/1" xmlns:xsi="http://www.w3.org/2001/XMLSchema-instance" xsi:schemaLocation="http://www.topografix.com/GPX/1/1 http://www.topografix.com/GPX/1/1/gpx.xsd" version="1.1" creator="VisuGPX - https://www.visugpx.com">
  <metadata>
    <name>Le mont Cindre dans tous ses états</name>
    <desc><![CDATA[Un trail un peu humide et glissant fait le 22/07/14]]></desc>
  </metadata>
  <trk>
    <name><![CDATA[2014-07-22T16:24:44Z]]></name>
    <trkseg>
      <trkpt lat="45.80379" lon="4.83128">
        <ele>237</ele>
        <time>2014-07-22T16:24:44Z</time>
      </trkpt>
      <trkpt lat="45.80377" lon="4.83121">
        <ele>237</ele>
        <time>2014-07-22T16:24:48Z</time>
      </trkpt>
      <trkpt lat="45.80376" lon="4.83112">
        <ele>237</ele>
        <time>2014-07-22T16:24:50Z</time>
      </trkpt>
      <trkpt lat="45.80377" lon="4.83109">
        <ele>238</ele>
        <time>2014-07-22T16:24:51Z</time>
      </trkpt>
      <trkpt lat="45.8038" lon="4.83103">
        <ele>238</ele>
        <time>2014-07-22T16:24:53Z</time>
      </trkpt>
      <trkpt lat="45.80383" lon="4.83097">
        <ele>238</ele>
        <time>2014-07-22T16:24:55Z</time>
      </trkpt>
      <trkpt lat="45.80389" lon="4.83083">
        <ele>240</ele>
        <time>2014-07-22T16:25:00Z</time>
      </trkpt>
      <trkpt lat="45.80389" lon="4.8308">
        <ele>240</ele>
        <time>2014-07-22T16:25:01Z</time>
      </trkpt>
      <trkpt lat="45.80393" lon="4.83068">
        <ele>240</ele>
        <time>2014-07-22T16:25:05Z</time>
      </trkpt>
      <trkpt lat="45.80397" lon="4.83056">
        <ele>240</ele>
        <time>2014-07-22T16:25:09Z</time>
      </trkpt>
      <trkpt lat="45.80398" lon="4.8305">
        <ele>240</ele>
        <time>2014-07-22T16:25:11Z</time>
      </trkpt>
      <trkpt lat="45.80406" lon="4.83033">
        <ele>240</ele>
        <time>2014-07-22T16:25:17Z</time>
      </trkpt>
      <trkpt lat="45.80411" lon="4.83019">
        <ele>241</ele>
        <time>2014-07-22T16:25:22Z</time>
      </trkpt>
      <trkpt lat="45.80413" lon="4.83008">
        <ele>241</ele>
        <time>2014-07-22T16:25:25Z</time>
      </trkpt>
      <trkpt lat="45.80415" lon="4.83001">
        <ele>242</ele>
        <time>2014-07-22T16:25:27Z</time>
      </trkpt>
      <trkpt lat="45.80423" lon="4.82983">
        <ele>241</ele>
        <time>2014-07-22T16:25:33Z</time>
      </trkpt>
      <trkpt lat="45.80433" lon="4.8296">
        <ele>241</ele>
        <time>2014-07-22T16:25:40Z</time>
      </trkpt>
      <trkpt lat="45.80447" lon="4.82948">
        <ele>240</ele>
        <time>2014-07-22T16:25:46Z</time>
      </trkpt>
      <trkpt lat="45.80454" lon="4.82954">
        <ele>240</ele>
        <time>2014-07-22T16:25:47Z</time>
      </trkpt>
      <trkpt lat="45.80465" lon="4.82953">
        <ele>240</ele>
        <time>2014-07-22T16:25:51Z</time>
      </trkpt>
      <trkpt lat="45.80474" lon="4.82953">
        <ele>240</ele>
        <time>2014-07-22T16:25:54Z</time>
      </trkpt>
      <trkpt lat="45.80481" lon="4.82952">
        <ele>240</ele>
        <time>2014-07-22T16:25:57Z</time>
      </trkpt>
      <trkpt lat="45.80494" lon="4.82951">
        <ele>240</ele>
        <time>2014-07-22T16:26:02Z</time>
      </trkpt>
      <trkpt lat="45.80507" lon="4.82949">
        <ele>240</ele>
        <time>2014-07-22T16:26:07Z</time>
      </trkpt>
      <trkpt lat="45.80512" lon="4.82949">
        <ele>240</ele>
        <time>2014-07-22T16:26:09Z</time>
      </trkpt>
      <trkpt lat="45.80524" lon="4.82948">
        <ele>240</ele>
        <time>2014-07-22T16:26:13Z</time>
      </trkpt>
      <trkpt lat="45.80532" lon="4.82948">
        <ele>240</ele>
        <time>2014-07-22T16:26:16Z</time>
      </trkpt>
      <trkpt lat="45.80537" lon="4.82947">
        <ele>240</ele>
        <time>2014-07-22T16:26:18Z</time>
      </trkpt>
      <trkpt lat="45.8055" lon="4.82946">
        <ele>240</ele>
        <time>2014-07-22T16:26:23Z</time>
      </trkpt>
      <trkpt lat="45.80552" lon="4.82945">
        <ele>240</ele>
        <time>2014-07-22T16:26:24Z</time>
      </trkpt>
      <trkpt lat="45.80569" lon="4.82939">
        <ele>240</ele>
        <time>2014-07-22T16:26:31Z</time>
      </trkpt>
      <trkpt lat="45.80572" lon="4.82938">
        <ele>240</ele>
        <time>2014-07-22T16:26:32Z</time>
      </trkpt>
      <trkpt lat="45.80588" lon="4.8293">
        <ele>240</ele>
        <time>2014-07-22T16:26:39Z</time>
      </trkpt>
      <trkpt lat="45.80603" lon="4.82924">
        <ele>241</ele>
        <time>2014-07-22T16:26:44Z</time>
      </trkpt>
      <trkpt lat="45.80608" lon="4.82921">
        <ele>241</ele>
        <time>2014-07-22T16:26:46Z</time>
      </trkpt>
      <trkpt lat="45.80616" lon="4.82918">
        <ele>241</ele>
        <time>2014-07-22T16:26:49Z</time>
      </trkpt>
      <trkpt lat="45.80625" lon="4.82911">
        <ele>238</ele>
        <time>2014-07-22T16:26:53Z</time>
      </trkpt>
      <trkpt lat="45.80632" lon="4.8291">
        <ele>238</ele>
        <time>2014-07-22T16:26:55Z</time>
      </trkpt>
      <trkpt lat="45.80644" lon="4.82906">
        <ele>239</ele>
        <time>2014-07-22T16:26:59Z</time>
      </trkpt>
      <trkpt lat="45.8065" lon="4.82903">
        <ele>239</ele>
        <time>2014-07-22T16:27:01Z</time>
      </trkpt>
      <trkpt lat="45.80661" lon="4.82898">
        <ele>239</ele>
        <time>2014-07-22T16:27:05Z</time>
      </trkpt>
      <trkpt lat="45.80663" lon="4.82896">
        <ele>239</ele>
        <time>2014-07-22T16:27:06Z</time>
      </trkpt>
      <trkpt lat="45.80677" lon="4.82893">
        <ele>241</ele>
        <time>2014-07-22T16:27:11Z</time>
      </trkpt>
      <trkpt lat="45.8068" lon="4.82893">
        <ele>241</ele>
        <time>2014-07-22T16:27:12Z</time>
      </trkpt>
      <trkpt lat="45.80693" lon="4.82898">
        <ele>241</ele>
        <time>2014-07-22T16:27:17Z</time>
      </trkpt>
      <trkpt lat="45.80697" lon="4.82899">
        <ele>241</ele>
        <time>2014-07-22T16:27:19Z</time>
      </trkpt>
      <trkpt lat="45.80704" lon="4.82901">
        <ele>241</ele>
        <time>2014-07-22T16:27:22Z</time>
      </trkpt>
      <trkpt lat="45.80715" lon="4.82906">
        <ele>241</ele>
        <time>2014-07-22T16:27:27Z</time>
      </trkpt>
      <trkpt lat="45.80717" lon="4.82907">
        <ele>241</ele>
        <time>2014-07-22T16:27:28Z</time>
      </trkpt>
      <trkpt lat="45.80731" lon="4.82914">
        <ele>241</ele>
        <time>2014-07-22T16:27:34Z</time>
      </trkpt>
      <trkpt lat="45.80736" lon="4.82916">
        <ele>241</ele>
        <time>2014-07-22T16:27:37Z</time>
      </trkpt>
      <trkpt lat="45.80744" lon="4.8292">
        <ele>242</ele>
        <time>2014-07-22T16:27:42Z</time>
      </trkpt>
      <trkpt lat="45.80753" lon="4.82924">
        <ele>243</ele>
        <time>2014-07-22T16:27:46Z</time>
      </trkpt>
      <trkpt lat="45.80754" lon="4.82926">
        <ele>243</ele>
        <time>2014-07-22T16:27:47Z</time>
      </trkpt>
      <trkpt lat="45.80769" lon="4.8294">
        <ele>244</ele>
        <time>2014-07-22T16:27:54Z</time>
      </trkpt>
      <trkpt lat="45.80783" lon="4.82947">
        <ele>244</ele>
        <time>2014-07-22T16:28:00Z</time>
      </trkpt>
      <trkpt lat="45.80789" lon="4.82948">
        <ele>244</ele>
        <time>2014-07-22T16:28:02Z</time>
      </trkpt>
      <trkpt lat="45.80795" lon="4.8295">
        <ele>244</ele>
        <time>2014-07-22T16:28:05Z</time>
      </trkpt>
      <trkpt lat="45.80808" lon="4.82954">
        <ele>244</ele>
        <time>2014-07-22T16:28:10Z</time>
      </trkpt>
      <trkpt lat="45.80812" lon="4.82956">
        <ele>244</ele>
        <time>2014-07-22T16:28:12Z</time>
      </trkpt>
      <trkpt lat="45.80826" lon="4.82959">
        <ele>244</ele>
        <time>2014-07-22T16:28:18Z</time>
      </trkpt>
      <trkpt lat="45.80842" lon="4.82966">
        <ele>246</ele>
        <time>2014-07-22T16:28:25Z</time>
      </trkpt>
      <trkpt lat="45.80844" lon="4.82966">
        <ele>246</ele>
        <time>2014-07-22T16:28:26Z</time>
      </trkpt>
      <trkpt lat="45.80859" lon="4.82971">
        <ele>246</ele>
        <time>2014-07-22T16:28:33Z</time>
      </trkpt>
      <trkpt lat="45.80864" lon="4.82972">
        <ele>246</ele>
        <time>2014-07-22T16:28:35Z</time>
      </trkpt>
      <trkpt lat="45.80874" lon="4.82975">
        <ele>246</ele>
        <time>2014-07-22T16:28:39Z</time>
      </trkpt>
      <trkpt lat="45.80886" lon="4.82982">
        <ele>247</ele>
        <time>2014-07-22T16:28:42Z</time>
      </trkpt>
      <trkpt lat="45.80895" lon="4.82983">
        <ele>247</ele>
        <time>2014-07-22T16:28:46Z</time>
      </trkpt>
      <trkpt lat="45.80906" lon="4.82984">
        <ele>247</ele>
        <time>2014-07-22T16:28:50Z</time>
      </trkpt>
      <trkpt lat="45.80912" lon="4.82984">
        <ele>248</ele>
        <time>2014-07-22T16:28:52Z</time>
      </trkpt>
      <trkpt lat="45.80926" lon="4.82982">
        <ele>249</ele>
        <time>2014-07-22T16:28:57Z</time>
      </trkpt>
      <trkpt lat="45.80931" lon="4.82982">
        <ele>249</ele>
        <time>2014-07-22T16:28:59Z</time>
      </trkpt>
      <trkpt lat="45.80945" lon="4.82978">
        <ele>248</ele>
        <time>2014-07-22T16:29:04Z</time>
      </trkpt>
      <trkpt lat="45.80956" lon="4.82975">
        <ele>248</ele>
        <time>2014-07-22T16:29:10Z</time>
      </trkpt>
      <trkpt lat="45.80957" lon="4.82975">
        <ele>248</ele>
        <time>2014-07-22T16:29:11Z</time>
      </trkpt>
      <trkpt lat="45.80963" lon="4.82975">
        <ele>249</ele>
        <time>2014-07-22T16:29:14Z</time>
      </trkpt>
      <trkpt lat="45.80965" lon="4.82976">
        <ele>249</ele>
        <time>2014-07-22T16:29:15Z</time>
      </trkpt>
      <trkpt lat="45.8097" lon="4.82976">
        <ele>249</ele>
        <time>2014-07-22T16:29:18Z</time>
      </trkpt>
      <trkpt lat="45.80982" lon="4.82977">
        <ele>249</ele>
        <time>2014-07-22T16:29:24Z</time>
      </trkpt>
      <trkpt lat="45.80984" lon="4.82977">
        <ele>249</ele>
        <time>2014-07-22T16:29:25Z</time>
      </trkpt>
      <trkpt lat="45.8099" lon="4.82979">
        <ele>249</ele>
        <time>2014-07-22T16:29:28Z</time>
      </trkpt>
      <trkpt lat="45.80994" lon="4.82979">
        <ele>249</ele>
        <time>2014-07-22T16:29:30Z</time>
      </trkpt>
      <trkpt lat="45.81002" lon="4.82979">
        <ele>250</ele>
        <time>2014-07-22T16:29:33Z</time>
      </trkpt>
      <trkpt lat="45.81011" lon="4.8298">
        <ele>249</ele>
        <time>2014-07-22T16:29:36Z</time>
      </trkpt>
      <trkpt lat="45.81017" lon="4.82993">
        <ele>250</ele>
        <time>2014-07-22T16:29:39Z</time>
      </trkpt>
      <trkpt lat="45.81018" lon="4.82998">
        <ele>250</ele>
        <time>2014-07-22T16:29:40Z</time>
      </trkpt>
      <trkpt lat="45.8102" lon="4.83016">
        <ele>250</ele>
        <time>2014-07-22T16:29:44Z</time>
      </trkpt>
      <trkpt lat="45.8102" lon="4.8302">
        <ele>250</ele>
        <time>2014-07-22T16:29:45Z</time>
      </trkpt>
      <trkpt lat="45.8102" lon="4.83035">
        <ele>250</ele>
        <time>2014-07-22T16:29:49Z</time>
      </trkpt>
      <trkpt lat="45.81027" lon="4.83046">
        <ele>250</ele>
        <time>2014-07-22T16:29:52Z</time>
      </trkpt>
      <trkpt lat="45.81031" lon="4.83057">
        <ele>250</ele>
        <time>2014-07-22T16:29:55Z</time>
      </trkpt>
      <trkpt lat="45.81038" lon="4.83068">
        <ele>251</ele>
        <time>2014-07-22T16:29:59Z</time>
      </trkpt>
      <trkpt lat="45.8104" lon="4.83069">
        <ele>251</ele>
        <time>2014-07-22T16:30:00Z</time>
      </trkpt>
      <trkpt lat="45.81049" lon="4.83065">
        <ele>251</ele>
        <time>2014-07-22T16:30:04Z</time>
      </trkpt>
      <trkpt lat="45.81052" lon="4.83064">
        <ele>251</ele>
        <time>2014-07-22T16:30:05Z</time>
      </trkpt>
      <trkpt lat="45.81055" lon="4.83061">
        <ele>251</ele>
        <time>2014-07-22T16:30:07Z</time>
      </trkpt>
      <trkpt lat="45.81063" lon="4.83058">
        <ele>251</ele>
        <time>2014-07-22T16:30:10Z</time>
      </trkpt>
      <trkpt lat="45.81071" lon="4.83051">
        <ele>251</ele>
        <time>2014-07-22T16:30:15Z</time>
      </trkpt>
      <trkpt lat="45.81073" lon="4.8305">
        <ele>251</ele>
        <time>2014-07-22T16:30:16Z</time>
      </trkpt>
      <trkpt lat="45.81086" lon="4.83044">
        <ele>252</ele>
        <time>2014-07-22T16:30:22Z</time>
      </trkpt>
      <trkpt lat="45.81092" lon="4.83044">
        <ele>252</ele>
        <time>2014-07-22T16:30:24Z</time>
      </trkpt>
      <trkpt lat="45.81108" lon="4.83049">
        <ele>252</ele>
        <time>2014-07-22T16:30:28Z</time>
      </trkpt>
      <trkpt lat="45.8111" lon="4.83047">
        <ele>253</ele>
        <time>2014-07-22T16:30:29Z</time>
      </trkpt>
      <trkpt lat="45.81116" lon="4.83046">
        <ele>253</ele>
        <time>2014-07-22T16:30:32Z</time>
      </trkpt>
      <trkpt lat="45.81129" lon="4.83043">
        <ele>253</ele>
        <time>2014-07-22T16:30:38Z</time>
      </trkpt>
      <trkpt lat="45.81141" lon="4.8304">
        <ele>253</ele>
        <time>2014-07-22T16:30:43Z</time>
      </trkpt>
      <trkpt lat="45.81148" lon="4.83039">
        <ele>253</ele>
        <time>2014-07-22T16:30:46Z</time>
      </trkpt>
      <trkpt lat="45.81154" lon="4.83037">
        <ele>253</ele>
        <time>2014-07-22T16:30:49Z</time>
      </trkpt>
      <trkpt lat="45.81165" lon="4.83034">
        <ele>253</ele>
        <time>2014-07-22T16:30:54Z</time>
      </trkpt>
      <trkpt lat="45.81167" lon="4.83033">
        <ele>256</ele>
        <time>2014-07-22T16:30:55Z</time>
      </trkpt>
      <trkpt lat="45.81178" lon="4.8303">
        <ele>256</ele>
        <time>2014-07-22T16:31:00Z</time>
      </trkpt>
      <trkpt lat="45.81186" lon="4.83029">
        <ele>256</ele>
        <time>2014-07-22T16:31:03Z</time>
      </trkpt>
      <trkpt lat="45.8119" lon="4.83028">
        <ele>257</ele>
        <time>2014-07-22T16:31:05Z</time>
      </trkpt>
      <trkpt lat="45.81203" lon="4.83026">
        <ele>257</ele>
        <time>2014-07-22T16:31:10Z</time>
      </trkpt>
      <trkpt lat="45.81206" lon="4.83027">
        <ele>257</ele>
        <time>2014-07-22T16:31:11Z</time>
      </trkpt>
      <trkpt lat="45.81215" lon="4.83027">
        <ele>257</ele>
        <time>2014-07-22T16:31:15Z</time>
      </trkpt>
      <trkpt lat="45.81224" lon="4.83024">
        <ele>258</ele>
        <time>2014-07-22T16:31:19Z</time>
      </trkpt>
      <trkpt lat="45.81226" lon="4.83024">
        <ele>258</ele>
        <time>2014-07-22T16:31:20Z</time>
      </trkpt>
      <trkpt lat="45.81236" lon="4.83023">
        <ele>258</ele>
        <time>2014-07-22T16:31:25Z</time>
      </trkpt>
      <trkpt lat="45.81243" lon="4.83022">
        <ele>258</ele>
        <time>2014-07-22T16:31:28Z</time>
      </trkpt>
      <trkpt lat="45.8125" lon="4.83022">
        <ele>261</ele>
        <time>2014-07-22T16:31:31Z</time>
      </trkpt>
      <trkpt lat="45.81263" lon="4.83018">
        <ele>261</ele>
        <time>2014-07-22T16:31:36Z</time>
      </trkpt>
      <trkpt lat="45.81265" lon="4.83018">
        <ele>261</ele>
        <time>2014-07-22T16:31:37Z</time>
      </trkpt>
      <trkpt lat="45.81276" lon="4.83015">
        <ele>261</ele>
        <time>2014-07-22T16:31:41Z</time>
      </trkpt>
      <trkpt lat="45.8128" lon="4.83012">
        <ele>262</ele>
        <time>2014-07-22T16:31:43Z</time>
      </trkpt>
      <trkpt lat="45.81285" lon="4.83009">
        <ele>262</ele>
        <time>2014-07-22T16:31:45Z</time>
      </trkpt>
      <trkpt lat="45.81298" lon="4.83005">
        <ele>262</ele>
        <time>2014-07-22T16:31:50Z</time>
      </trkpt>
      <trkpt lat="45.81301" lon="4.83004">
        <ele>262</ele>
        <time>2014-07-22T16:31:51Z</time>
      </trkpt>
      <trkpt lat="45.81316" lon="4.82997">
        <ele>261</ele>
        <time>2014-07-22T16:31:57Z</time>
      </trkpt>
      <trkpt lat="45.81331" lon="4.82992">
        <ele>262</ele>
        <time>2014-07-22T16:32:03Z</time>
      </trkpt>
      <trkpt lat="45.81335" lon="4.8299">
        <ele>263</ele>
        <time>2014-07-22T16:32:05Z</time>
      </trkpt>
      <trkpt lat="45.81344" lon="4.82985">
        <ele>263</ele>
        <time>2014-07-22T16:32:09Z</time>
      </trkpt>
      <trkpt lat="45.81353" lon="4.82982">
        <ele>263</ele>
        <time>2014-07-22T16:32:13Z</time>
      </trkpt>
      <trkpt lat="45.81359" lon="4.82982">
        <ele>263</ele>
        <time>2014-07-22T16:32:16Z</time>
      </trkpt>
      <trkpt lat="45.81373" lon="4.82978">
        <ele>263</ele>
        <time>2014-07-22T16:32:22Z</time>
      </trkpt>
      <trkpt lat="45.81387" lon="4.82977">
        <ele>263</ele>
        <time>2014-07-22T16:32:28Z</time>
      </trkpt>
      <trkpt lat="45.81392" lon="4.82975">
        <ele>263</ele>
        <time>2014-07-22T16:32:30Z</time>
      </trkpt>
      <trkpt lat="45.81399" lon="4.82974">
        <ele>263</ele>
        <time>2014-07-22T16:32:33Z</time>
      </trkpt>
      <trkpt lat="45.81408" lon="4.82971">
        <ele>263</ele>
        <time>2014-07-22T16:32:37Z</time>
      </trkpt>
      <trkpt lat="45.81411" lon="4.82971">
        <ele>263</ele>
        <time>2014-07-22T16:32:38Z</time>
      </trkpt>
      <trkpt lat="45.8142" lon="4.82971">
        <ele>264</ele>
        <time>2014-07-22T16:32:42Z</time>
      </trkpt>
      <trkpt lat="45.81428" lon="4.82968">
        <ele>264</ele>
        <time>2014-07-22T16:32:46Z</time>
      </trkpt>
      <trkpt lat="45.8143" lon="4.82969">
        <ele>264</ele>
        <time>2014-07-22T16:32:47Z</time>
      </trkpt>
      <trkpt lat="45.81444" lon="4.82975">
        <ele>264</ele>
        <time>2014-07-22T16:32:53Z</time>
      </trkpt>
      <trkpt lat="45.8145" lon="4.82974">
        <ele>264</ele>
        <time>2014-07-22T16:32:55Z</time>
      </trkpt>
      <trkpt lat="45.81462" lon="4.82972">
        <ele>264</ele>
        <time>2014-07-22T16:33:00Z</time>
      </trkpt>
      <trkpt lat="45.81468" lon="4.82971">
        <ele>264</ele>
        <time>2014-07-22T16:33:03Z</time>
      </trkpt>
      <trkpt lat="45.81474" lon="4.82969">
        <ele>264</ele>
        <time>2014-07-22T16:33:06Z</time>
      </trkpt>
      <trkpt lat="45.81487" lon="4.82967">
        <ele>265</ele>
        <time>2014-07-22T16:33:12Z</time>
      </trkpt>
      <trkpt lat="45.81501" lon="4.82966">
        <ele>267</ele>
        <time>2014-07-22T16:33:18Z</time>
      </trkpt>
      <trkpt lat="45.81508" lon="4.82966">
        <ele>267</ele>
        <time>2014-07-22T16:33:21Z</time>
      </trkpt>
      <trkpt lat="45.81515" lon="4.82966">
        <ele>267</ele>
        <time>2014-07-22T16:33:24Z</time>
      </trkpt>
      <trkpt lat="45.81526" lon="4.82963">
        <ele>267</ele>
        <time>2014-07-22T16:33:29Z</time>
      </trkpt>
      <trkpt lat="45.81529" lon="4.82961">
        <ele>267</ele>
        <time>2014-07-22T16:33:30Z</time>
      </trkpt>
      <trkpt lat="45.8154" lon="4.82955">
        <ele>268</ele>
        <time>2014-07-22T16:33:35Z</time>
      </trkpt>
      <trkpt lat="45.81545" lon="4.82952">
        <ele>268</ele>
        <time>2014-07-22T16:33:37Z</time>
      </trkpt>
      <trkpt lat="45.81554" lon="4.82946">
        <ele>268</ele>
        <time>2014-07-22T16:33:41Z</time>
      </trkpt>
      <trkpt lat="45.81562" lon="4.82941">
        <ele>269</ele>
        <time>2014-07-22T16:33:45Z</time>
      </trkpt>
      <trkpt lat="45.81566" lon="4.82938">
        <ele>269</ele>
        <time>2014-07-22T16:33:47Z</time>
      </trkpt>
      <trkpt lat="45.8158" lon="4.82933">
        <ele>270</ele>
        <time>2014-07-22T16:33:53Z</time>
      </trkpt>
      <trkpt lat="45.8159" lon="4.82928">
        <ele>271</ele>
        <time>2014-07-22T16:33:58Z</time>
      </trkpt>
      <trkpt lat="45.81597" lon="4.82922">
        <ele>272</ele>
        <time>2014-07-22T16:34:02Z</time>
      </trkpt>
      <trkpt lat="45.81604" lon="4.82921">
        <ele>272</ele>
        <time>2014-07-22T16:34:05Z</time>
      </trkpt>
      <trkpt lat="45.81613" lon="4.82917">
        <ele>272</ele>
        <time>2014-07-22T16:34:10Z</time>
      </trkpt>
      <trkpt lat="45.81615" lon="4.82916">
        <ele>273</ele>
        <time>2014-07-22T16:34:11Z</time>
      </trkpt>
      <trkpt lat="45.81626" lon="4.82912">
        <ele>274</ele>
        <time>2014-07-22T16:34:15Z</time>
      </trkpt>
      <trkpt lat="45.81632" lon="4.82913">
        <ele>274</ele>
        <time>2014-07-22T16:34:18Z</time>
      </trkpt>
      <trkpt lat="45.81634" lon="4.82915">
        <ele>274</ele>
        <time>2014-07-22T16:34:19Z</time>
      </trkpt>
      <trkpt lat="45.81642" lon="4.82927">
        <ele>273</ele>
        <time>2014-07-22T16:34:24Z</time>
      </trkpt>
      <trkpt lat="45.81646" lon="4.82936">
        <ele>273</ele>
        <time>2014-07-22T16:34:27Z</time>
      </trkpt>
      <trkpt lat="45.8165" lon="4.82944">
        <ele>273</ele>
        <time>2014-07-22T16:34:30Z</time>
      </trkpt>
      <trkpt lat="45.81659" lon="4.82955">
        <ele>273</ele>
        <time>2014-07-22T16:34:35Z</time>
      </trkpt>
      <trkpt lat="45.81661" lon="4.82957">
        <ele>273</ele>
        <time>2014-07-22T16:34:36Z</time>
      </trkpt>
      <trkpt lat="45.81673" lon="4.82962">
        <ele>274</ele>
        <time>2014-07-22T16:34:41Z</time>
      </trkpt>
      <trkpt lat="45.81676" lon="4.82962">
        <ele>274</ele>
        <time>2014-07-22T16:34:42Z</time>
      </trkpt>
      <trkpt lat="45.81686" lon="4.82964">
        <ele>274</ele>
        <time>2014-07-22T16:34:46Z</time>
      </trkpt>
      <trkpt lat="45.81696" lon="4.82963">
        <ele>274</ele>
        <time>2014-07-22T16:34:50Z</time>
      </trkpt>
      <trkpt lat="45.817" lon="4.82963">
        <ele>274</ele>
        <time>2014-07-22T16:34:52Z</time>
      </trkpt>
      <trkpt lat="45.81713" lon="4.82963">
        <ele>274</ele>
        <time>2014-07-22T16:34:58Z</time>
      </trkpt>
      <trkpt lat="45.81715" lon="4.82963">
        <ele>274</ele>
        <time>2014-07-22T16:34:59Z</time>
      </trkpt>
      <trkpt lat="45.81726" lon="4.82965">
        <ele>274</ele>
        <time>2014-07-22T16:35:03Z</time>
      </trkpt>
      <trkpt lat="45.81735" lon="4.82965">
        <ele>274</ele>
        <time>2014-07-22T16:35:07Z</time>
      </trkpt>
      <trkpt lat="45.8174" lon="4.82965">
        <ele>274</ele>
        <time>2014-07-22T16:35:09Z</time>
      </trkpt>
      <trkpt lat="45.81756" lon="4.82966">
        <ele>276</ele>
        <time>2014-07-22T16:35:15Z</time>
      </trkpt>
      <trkpt lat="45.8177" lon="4.82967">
        <ele>276</ele>
        <time>2014-07-22T16:35:21Z</time>
      </trkpt>
      <trkpt lat="45.81775" lon="4.82968">
        <ele>276</ele>
        <time>2014-07-22T16:35:23Z</time>
      </trkpt>
      <trkpt lat="45.81782" lon="4.82968">
        <ele>276</ele>
        <time>2014-07-22T16:35:26Z</time>
      </trkpt>
      <trkpt lat="45.81793" lon="4.82966">
        <ele>277</ele>
        <time>2014-07-22T16:35:30Z</time>
      </trkpt>
      <trkpt lat="45.81804" lon="4.82969">
        <ele>277</ele>
        <time>2014-07-22T16:35:34Z</time>
      </trkpt>
      <trkpt lat="45.81811" lon="4.82973">
        <ele>277</ele>
        <time>2014-07-22T16:35:37Z</time>
      </trkpt>
      <trkpt lat="45.81816" lon="4.82974">
        <ele>277</ele>
        <time>2014-07-22T16:35:39Z</time>
      </trkpt>
      <trkpt lat="45.81822" lon="4.82964">
        <ele>277</ele>
        <time>2014-07-22T16:35:43Z</time>
      </trkpt>
      <trkpt lat="45.81825" lon="4.82959">
        <ele>278</ele>
        <time>2014-07-22T16:35:45Z</time>
      </trkpt>
      <trkpt lat="45.81829" lon="4.82952">
        <ele>278</ele>
        <time>2014-07-22T16:35:48Z</time>
      </trkpt>
      <trkpt lat="45.81831" lon="4.82945">
        <ele>279</ele>
        <time>2014-07-22T16:35:50Z</time>
      </trkpt>
      <trkpt lat="45.81836" lon="4.82936">
        <ele>281</ele>
        <time>2014-07-22T16:35:54Z</time>
      </trkpt>
      <trkpt lat="45.81843" lon="4.82921">
        <ele>282</ele>
        <time>2014-07-22T16:36:00Z</time>
      </trkpt>
      <trkpt lat="45.81847" lon="4.82914">
        <ele>285</ele>
        <time>2014-07-22T16:36:03Z</time>
      </trkpt>
      <trkpt lat="45.81851" lon="4.82907">
        <ele>285</ele>
        <time>2014-07-22T16:36:06Z</time>
      </trkpt>
      <trkpt lat="45.81858" lon="4.82895">
        <ele>286</ele>
        <time>2014-07-22T16:36:12Z</time>
      </trkpt>
      <trkpt lat="45.81859" lon="4.82893">
        <ele>286</ele>
        <time>2014-07-22T16:36:13Z</time>
      </trkpt>
      <trkpt lat="45.81863" lon="4.82883">
        <ele>287</ele>
        <time>2014-07-22T16:36:17Z</time>
      </trkpt>
      <trkpt lat="45.8187" lon="4.82873">
        <ele>287</ele>
        <time>2014-07-22T16:36:22Z</time>
      </trkpt>
      <trkpt lat="45.81876" lon="4.82864">
        <ele>287</ele>
        <time>2014-07-22T16:36:27Z</time>
      </trkpt>
      <trkpt lat="45.81884" lon="4.82853">
        <ele>288</ele>
        <time>2014-07-22T16:36:32Z</time>
      </trkpt>
      <trkpt lat="45.81888" lon="4.82852">
        <ele>288</ele>
        <time>2014-07-22T16:36:34Z</time>
      </trkpt>
      <trkpt lat="45.81894" lon="4.82854">
        <ele>288</ele>
        <time>2014-07-22T16:36:36Z</time>
      </trkpt>
      <trkpt lat="45.81902" lon="4.82858">
        <ele>288</ele>
        <time>2014-07-22T16:36:40Z</time>
      </trkpt>
      <trkpt lat="45.81904" lon="4.82859">
        <ele>288</ele>
        <time>2014-07-22T16:36:41Z</time>
      </trkpt>
      <trkpt lat="45.81906" lon="4.8286">
        <ele>288</ele>
        <time>2014-07-22T16:36:42Z</time>
      </trkpt>
      <trkpt lat="45.81911" lon="4.82863">
        <ele>288</ele>
        <time>2014-07-22T16:36:45Z</time>
      </trkpt>
      <trkpt lat="45.81913" lon="4.82864">
        <ele>288</ele>
        <time>2014-07-22T16:36:46Z</time>
      </trkpt>
      <trkpt lat="45.81918" lon="4.82867">
        <ele>289</ele>
        <time>2014-07-22T16:36:49Z</time>
      </trkpt>
      <trkpt lat="45.8192" lon="4.82868">
        <ele>289</ele>
        <time>2014-07-22T16:36:50Z</time>
      </trkpt>
      <trkpt lat="45.81926" lon="4.82872">
        <ele>289</ele>
        <time>2014-07-22T16:36:52Z</time>
      </trkpt>
      <trkpt lat="45.81937" lon="4.82873">
        <ele>290</ele>
        <time>2014-07-22T16:36:57Z</time>
      </trkpt>
      <trkpt lat="45.81938" lon="4.82873">
        <ele>290</ele>
        <time>2014-07-22T16:36:58Z</time>
      </trkpt>
      <trkpt lat="45.81949" lon="4.82872">
        <ele>290</ele>
        <time>2014-07-22T16:37:03Z</time>
      </trkpt>
      <trkpt lat="45.81957" lon="4.82869">
        <ele>290</ele>
        <time>2014-07-22T16:37:07Z</time>
      </trkpt>
      <trkpt lat="45.81962" lon="4.82868">
        <ele>291</ele>
        <time>2014-07-22T16:37:09Z</time>
      </trkpt>
      <trkpt lat="45.81971" lon="4.82867">
        <ele>291</ele>
        <time>2014-07-22T16:37:14Z</time>
      </trkpt>
      <trkpt lat="45.81975" lon="4.82866">
        <ele>291</ele>
        <time>2014-07-22T16:37:16Z</time>
      </trkpt>
      <trkpt lat="45.81985" lon="4.82865">
        <ele>292</ele>
        <time>2014-07-22T16:37:21Z</time>
      </trkpt>
      <trkpt lat="45.81995" lon="4.82865">
        <ele>292</ele>
        <time>2014-07-22T16:37:26Z</time>
      </trkpt>
      <trkpt lat="45.82008" lon="4.82864">
        <ele>297</ele>
        <time>2014-07-22T16:37:32Z</time>
      </trkpt>
      <trkpt lat="45.82014" lon="4.82864">
        <ele>297</ele>
        <time>2014-07-22T16:37:35Z</time>
      </trkpt>
      <trkpt lat="45.8202" lon="4.82862">
        <ele>298</ele>
        <time>2014-07-22T16:37:38Z</time>
      </trkpt>
      <trkpt lat="45.8203" lon="4.82863">
        <ele>298</ele>
        <time>2014-07-22T16:37:43Z</time>
      </trkpt>
      <trkpt lat="45.82033" lon="4.82863">
        <ele>298</ele>
        <time>2014-07-22T16:37:44Z</time>
      </trkpt>
      <trkpt lat="45.82042" lon="4.82862">
        <ele>299</ele>
        <time>2014-07-22T16:37:48Z</time>
      </trkpt>
      <trkpt lat="45.82051" lon="4.82864">
        <ele>299</ele>
        <time>2014-07-22T16:37:53Z</time>
      </trkpt>
      <trkpt lat="45.8206" lon="4.8287">
        <ele>299</ele>
        <time>2014-07-22T16:37:58Z</time>
      </trkpt>
      <trkpt lat="45.82068" lon="4.82874">
        <ele>299</ele>
        <time>2014-07-22T16:38:02Z</time>
      </trkpt>
      <trkpt lat="45.8207" lon="4.82874">
        <ele>299</ele>
        <time>2014-07-22T16:38:03Z</time>
      </trkpt>
      <trkpt lat="45.82079" lon="4.82879">
        <ele>299</ele>
        <time>2014-07-22T16:38:08Z</time>
      </trkpt>
      <trkpt lat="45.8208" lon="4.8288">
        <ele>299</ele>
        <time>2014-07-22T16:38:09Z</time>
      </trkpt>
      <trkpt lat="45.82086" lon="4.82882">
        <ele>305</ele>
        <time>2014-07-22T16:38:12Z</time>
      </trkpt>
      <trkpt lat="45.82089" lon="4.82883">
        <ele>305</ele>
        <time>2014-07-22T16:38:13Z</time>
      </trkpt>
      <trkpt lat="45.82099" lon="4.82888">
        <ele>305</ele>
        <time>2014-07-22T16:38:18Z</time>
      </trkpt>
      <trkpt lat="45.82104" lon="4.82889">
        <ele>305</ele>
        <time>2014-07-22T16:38:20Z</time>
      </trkpt>
      <trkpt lat="45.8211" lon="4.82892">
        <ele>305</ele>
        <time>2014-07-22T16:38:23Z</time>
      </trkpt>
      <trkpt lat="45.82113" lon="4.82894">
        <ele>305</ele>
        <time>2014-07-22T16:38:25Z</time>
      </trkpt>
      <trkpt lat="45.82119" lon="4.82897">
        <ele>305</ele>
        <time>2014-07-22T16:38:28Z</time>
      </trkpt>
      <trkpt lat="45.8212" lon="4.82897">
        <ele>305</ele>
        <time>2014-07-22T16:38:29Z</time>
      </trkpt>
      <trkpt lat="45.82123" lon="4.82896">
        <ele>306</ele>
        <time>2014-07-22T16:38:30Z</time>
      </trkpt>
      <trkpt lat="45.8213" lon="4.82898">
        <ele>306</ele>
        <time>2014-07-22T16:38:33Z</time>
      </trkpt>
      <trkpt lat="45.82134" lon="4.82899">
        <ele>306</ele>
        <time>2014-07-22T16:38:35Z</time>
      </trkpt>
      <trkpt lat="45.82138" lon="4.82899">
        <ele>306</ele>
        <time>2014-07-22T16:38:37Z</time>
      </trkpt>
      <trkpt lat="45.82142" lon="4.82902">
        <ele>306</ele>
        <time>2014-07-22T16:38:39Z</time>
      </trkpt>
      <trkpt lat="45.8215" lon="4.82907">
        <ele>306</ele>
        <time>2014-07-22T16:38:43Z</time>
      </trkpt>
      <trkpt lat="45.82154" lon="4.82909">
        <ele>306</ele>
        <time>2014-07-22T16:38:44Z</time>
      </trkpt>
      <trkpt lat="45.82162" lon="4.82908">
        <ele>306</ele>
        <time>2014-07-22T16:38:46Z</time>
      </trkpt>
      <trkpt lat="45.82164" lon="4.82908">
        <ele>306</ele>
        <time>2014-07-22T16:38:47Z</time>
      </trkpt>
      <trkpt lat="45.82174" lon="4.8291">
        <ele>308</ele>
        <time>2014-07-22T16:38:51Z</time>
      </trkpt>
      <trkpt lat="45.82176" lon="4.82911">
        <ele>308</ele>
        <time>2014-07-22T16:38:52Z</time>
      </trkpt>
      <trkpt lat="45.82181" lon="4.8291">
        <ele>309</ele>
        <time>2014-07-22T16:38:54Z</time>
      </trkpt>
      <trkpt lat="45.82183" lon="4.8291">
        <ele>310</ele>
        <time>2014-07-22T16:38:55Z</time>
      </trkpt>
      <trkpt lat="45.82185" lon="4.82911">
        <ele>310</ele>
        <time>2014-07-22T16:38:56Z</time>
      </trkpt>
      <trkpt lat="45.82193" lon="4.82914">
        <ele>311</ele>
        <time>2014-07-22T16:38:59Z</time>
      </trkpt>
      <trkpt lat="45.82202" lon="4.82917">
        <ele>302</ele>
        <time>2014-07-22T16:39:03Z</time>
      </trkpt>
      <trkpt lat="45.82204" lon="4.82918">
        <ele>302</ele>
        <time>2014-07-22T16:39:04Z</time>
      </trkpt>
      <trkpt lat="45.82208" lon="4.8292">
        <ele>302</ele>
        <time>2014-07-22T16:39:07Z</time>
      </trkpt>
      <trkpt lat="45.82211" lon="4.82919">
        <ele>302</ele>
        <time>2014-07-22T16:39:09Z</time>
      </trkpt>
      <trkpt lat="45.82217" lon="4.82921">
        <ele>303</ele>
        <time>2014-07-22T16:39:12Z</time>
      </trkpt>
      <trkpt lat="45.8222" lon="4.82922">
        <ele>303</ele>
        <time>2014-07-22T16:39:13Z</time>
      </trkpt>
      <trkpt lat="45.82223" lon="4.82924">
        <ele>303</ele>
        <time>2014-07-22T16:39:15Z</time>
      </trkpt>
      <trkpt lat="45.82227" lon="4.82926">
        <ele>303</ele>
        <time>2014-07-22T16:39:17Z</time>
      </trkpt>
      <trkpt lat="45.82231" lon="4.82924">
        <ele>304</ele>
        <time>2014-07-22T16:39:20Z</time>
      </trkpt>
      <trkpt lat="45.82239" lon="4.82923">
        <ele>306</ele>
        <time>2014-07-22T16:39:23Z</time>
      </trkpt>
      <trkpt lat="45.82245" lon="4.82921">
        <ele>307</ele>
        <time>2014-07-22T16:39:25Z</time>
      </trkpt>
      <trkpt lat="45.82259" lon="4.82917">
        <ele>312</ele>
        <time>2014-07-22T16:39:29Z</time>
      </trkpt>
      <trkpt lat="45.82271" lon="4.82906">
        <ele>313</ele>
        <time>2014-07-22T16:39:34Z</time>
      </trkpt>
      <trkpt lat="45.82276" lon="4.82901">
        <ele>314</ele>
        <time>2014-07-22T16:39:36Z</time>
      </trkpt>
      <trkpt lat="45.82281" lon="4.82897">
        <ele>314</ele>
        <time>2014-07-22T16:39:39Z</time>
      </trkpt>
      <trkpt lat="45.82287" lon="4.82893">
        <ele>315</ele>
        <time>2014-07-22T16:39:42Z</time>
      </trkpt>
      <trkpt lat="45.82289" lon="4.82893">
        <ele>315</ele>
        <time>2014-07-22T16:39:43Z</time>
      </trkpt>
      <trkpt lat="45.82294" lon="4.82892">
        <ele>314</ele>
        <time>2014-07-22T16:39:45Z</time>
      </trkpt>
      <trkpt lat="45.823" lon="4.82895">
        <ele>314</ele>
        <time>2014-07-22T16:39:47Z</time>
      </trkpt>
      <trkpt lat="45.82303" lon="4.82897">
        <ele>314</ele>
        <time>2014-07-22T16:39:48Z</time>
      </trkpt>
      <trkpt lat="45.82312" lon="4.829">
        <ele>313</ele>
        <time>2014-07-22T16:39:52Z</time>
      </trkpt>
      <trkpt lat="45.82322" lon="4.82903">
        <ele>312</ele>
        <time>2014-07-22T16:39:57Z</time>
      </trkpt>
      <trkpt lat="45.82329" lon="4.82904">
        <ele>311</ele>
        <time>2014-07-22T16:40:00Z</time>
      </trkpt>
      <trkpt lat="45.82331" lon="4.82904">
        <ele>311</ele>
        <time>2014-07-22T16:40:01Z</time>
      </trkpt>
      <trkpt lat="45.82332" lon="4.82904">
        <ele>311</ele>
        <time>2014-07-22T16:40:02Z</time>
      </trkpt>
      <trkpt lat="45.82343" lon="4.82904">
        <ele>312</ele>
        <time>2014-07-22T16:40:06Z</time>
      </trkpt>
      <trkpt lat="45.82349" lon="4.82905">
        <ele>312</ele>
        <time>2014-07-22T16:40:08Z</time>
      </trkpt>
      <trkpt lat="45.8236" lon="4.82908">
        <ele>313</ele>
        <time>2014-07-22T16:40:12Z</time>
      </trkpt>
      <trkpt lat="45.8237" lon="4.82909">
        <ele>314</ele>
        <time>2014-07-22T16:40:15Z</time>
      </trkpt>
      <trkpt lat="45.82373" lon="4.8291">
        <ele>314</ele>
        <time>2014-07-22T16:40:16Z</time>
      </trkpt>
      <trkpt lat="45.82376" lon="4.82911">
        <ele>314</ele>
        <time>2014-07-22T16:40:17Z</time>
      </trkpt>
      <trkpt lat="45.82385" lon="4.82916">
        <ele>314</ele>
        <time>2014-07-22T16:40:20Z</time>
      </trkpt>
      <trkpt lat="45.82387" lon="4.82918">
        <ele>305</ele>
        <time>2014-07-22T16:40:21Z</time>
      </trkpt>
      <trkpt lat="45.82401" lon="4.82924">
        <ele>306</ele>
        <time>2014-07-22T16:40:25Z</time>
      </trkpt>
      <trkpt lat="45.82406" lon="4.82929">
        <ele>306</ele>
        <time>2014-07-22T16:40:27Z</time>
      </trkpt>
      <trkpt lat="45.82414" lon="4.82935">
        <ele>305</ele>
        <time>2014-07-22T16:40:30Z</time>
      </trkpt>
      <trkpt lat="45.82424" lon="4.82935">
        <ele>307</ele>
        <time>2014-07-22T16:40:34Z</time>
      </trkpt>
      <trkpt lat="45.82425" lon="4.82933">
        <ele>307</ele>
        <time>2014-07-22T16:40:35Z</time>
      </trkpt>
      <trkpt lat="45.82434" lon="4.82926">
        <ele>307</ele>
        <time>2014-07-22T16:40:39Z</time>
      </trkpt>
      <trkpt lat="45.8244" lon="4.82921">
        <ele>307</ele>
        <time>2014-07-22T16:40:42Z</time>
      </trkpt>
      <trkpt lat="45.82445" lon="4.82919">
        <ele>307</ele>
        <time>2014-07-22T16:40:44Z</time>
      </trkpt>
      <trkpt lat="45.82454" lon="4.82913">
        <ele>318</ele>
        <time>2014-07-22T16:40:49Z</time>
      </trkpt>
      <trkpt lat="45.82459" lon="4.82911">
        <ele>318</ele>
        <time>2014-07-22T16:40:51Z</time>
      </trkpt>
      <trkpt lat="45.82467" lon="4.82908">
        <ele>319</ele>
        <time>2014-07-22T16:40:55Z</time>
      </trkpt>
      <trkpt lat="45.82476" lon="4.82906">
        <ele>319</ele>
        <time>2014-07-22T16:41:00Z</time>
      </trkpt>
      <trkpt lat="45.82478" lon="4.82905">
        <ele>318</ele>
        <time>2014-07-22T16:41:01Z</time>
      </trkpt>
      <trkpt lat="45.82491" lon="4.82902">
        <ele>318</ele>
        <time>2014-07-22T16:41:07Z</time>
      </trkpt>
      <trkpt lat="45.82495" lon="4.82901">
        <ele>318</ele>
        <time>2014-07-22T16:41:09Z</time>
      </trkpt>
      <trkpt lat="45.82499" lon="4.829">
        <ele>318</ele>
        <time>2014-07-22T16:41:11Z</time>
      </trkpt>
      <trkpt lat="45.82503" lon="4.829">
        <ele>321</ele>
        <time>2014-07-22T16:41:13Z</time>
      </trkpt>
      <trkpt lat="45.8251" lon="4.829">
        <ele>321</ele>
        <time>2014-07-22T16:41:17Z</time>
      </trkpt>
      <trkpt lat="45.82511" lon="4.82899">
        <ele>322</ele>
        <time>2014-07-22T16:41:18Z</time>
      </trkpt>
      <trkpt lat="45.82513" lon="4.82899">
        <ele>322</ele>
        <time>2014-07-22T16:41:19Z</time>
      </trkpt>
      <trkpt lat="45.82522" lon="4.82903">
        <ele>322</ele>
        <time>2014-07-22T16:41:23Z</time>
      </trkpt>
      <trkpt lat="45.82526" lon="4.82912">
        <ele>322</ele>
        <time>2014-07-22T16:41:27Z</time>
      </trkpt>
      <trkpt lat="45.82527" lon="4.82915">
        <ele>322</ele>
        <time>2014-07-22T16:41:28Z</time>
      </trkpt>
      <trkpt lat="45.82534" lon="4.82923">
        <ele>313</ele>
        <time>2014-07-22T16:41:33Z</time>
      </trkpt>
      <trkpt lat="45.82535" lon="4.82924">
        <ele>313</ele>
        <time>2014-07-22T16:41:34Z</time>
      </trkpt>
      <trkpt lat="45.82541" lon="4.82922">
        <ele>314</ele>
        <time>2014-07-22T16:41:38Z</time>
      </trkpt>
      <trkpt lat="45.82542" lon="4.8292">
        <ele>314</ele>
        <time>2014-07-22T16:41:39Z</time>
      </trkpt>
      <trkpt lat="45.82543" lon="4.82917">
        <ele>314</ele>
        <time>2014-07-22T16:41:40Z</time>
      </trkpt>
      <trkpt lat="45.82546" lon="4.82911">
        <ele>325</ele>
        <time>2014-07-22T16:41:43Z</time>
      </trkpt>
      <trkpt lat="45.82551" lon="4.82903">
        <ele>325</ele>
        <time>2014-07-22T16:41:47Z</time>
      </trkpt>
      <trkpt lat="45.82552" lon="4.82902">
        <ele>325</ele>
        <time>2014-07-22T16:41:48Z</time>
      </trkpt>
      <trkpt lat="45.82554" lon="4.82897">
        <ele>326</ele>
        <time>2014-07-22T16:41:51Z</time>
      </trkpt>
      <trkpt lat="45.82555" lon="4.82894">
        <ele>326</ele>
        <time>2014-07-22T16:41:53Z</time>
      </trkpt>
      <trkpt lat="45.82558" lon="4.82884">
        <ele>327</ele>
        <time>2014-07-22T16:41:58Z</time>
      </trkpt>
      <trkpt lat="45.82559" lon="4.82872">
        <ele>328</ele>
        <time>2014-07-22T16:42:03Z</time>
      </trkpt>
      <trkpt lat="45.82558" lon="4.82865">
        <ele>329</ele>
        <time>2014-07-22T16:42:06Z</time>
      </trkpt>
      <trkpt lat="45.82557" lon="4.82862">
        <ele>329</ele>
        <time>2014-07-22T16:42:07Z</time>
      </trkpt>
      <trkpt lat="45.82554" lon="4.8285">
        <ele>330</ele>
        <time>2014-07-22T16:42:13Z</time>
      </trkpt>
      <trkpt lat="45.82553" lon="4.82847">
        <ele>330</ele>
        <time>2014-07-22T16:42:14Z</time>
      </trkpt>
      <trkpt lat="45.82552" lon="4.82844">
        <ele>330</ele>
        <time>2014-07-22T16:42:15Z</time>
      </trkpt>
      <trkpt lat="45.82549" lon="4.82833">
        <ele>338</ele>
        <time>2014-07-22T16:42:20Z</time>
      </trkpt>
      <trkpt lat="45.82546" lon="4.82822">
        <ele>339</ele>
        <time>2014-07-22T16:42:27Z</time>
      </trkpt>
      <trkpt lat="45.82539" lon="4.8281">
        <ele>339</ele>
        <time>2014-07-22T16:42:33Z</time>
      </trkpt>
      <trkpt lat="45.82533" lon="4.82802">
        <ele>340</ele>
        <time>2014-07-22T16:42:37Z</time>
      </trkpt>
      <trkpt lat="45.82532" lon="4.82798">
        <ele>340</ele>
        <time>2014-07-22T16:42:39Z</time>
      </trkpt>
      <trkpt lat="45.8253" lon="4.82786">
        <ele>341</ele>
        <time>2014-07-22T16:42:45Z</time>
      </trkpt>
      <trkpt lat="45.82531" lon="4.82776">
        <ele>341</ele>
        <time>2014-07-22T16:42:49Z</time>
      </trkpt>
      <trkpt lat="45.8253" lon="4.82774">
        <ele>342</ele>
        <time>2014-07-22T16:42:50Z</time>
      </trkpt>
      <trkpt lat="45.82529" lon="4.82771">
        <ele>342</ele>
        <time>2014-07-22T16:42:51Z</time>
      </trkpt>
      <trkpt lat="45.82527" lon="4.82759">
        <ele>342</ele>
        <time>2014-07-22T16:42:57Z</time>
      </trkpt>
      <trkpt lat="45.82524" lon="4.82752">
        <ele>343</ele>
        <time>2014-07-22T16:43:00Z</time>
      </trkpt>
      <trkpt lat="45.82523" lon="4.82744">
        <ele>350</ele>
        <time>2014-07-22T16:43:03Z</time>
      </trkpt>
      <trkpt lat="45.82526" lon="4.82732">
        <ele>352</ele>
        <time>2014-07-22T16:43:08Z</time>
      </trkpt>
      <trkpt lat="45.82525" lon="4.82722">
        <ele>353</ele>
        <time>2014-07-22T16:43:13Z</time>
      </trkpt>
      <trkpt lat="45.82525" lon="4.82721">
        <ele>353</ele>
        <time>2014-07-22T16:43:14Z</time>
      </trkpt>
      <trkpt lat="45.82525" lon="4.82719">
        <ele>353</ele>
        <time>2014-07-22T16:43:15Z</time>
      </trkpt>
      <trkpt lat="45.82529" lon="4.82715">
        <ele>354</ele>
        <time>2014-07-22T16:43:18Z</time>
      </trkpt>
      <trkpt lat="45.82537" lon="4.82707">
        <ele>354</ele>
        <time>2014-07-22T16:43:25Z</time>
      </trkpt>
      <trkpt lat="45.82538" lon="4.82706">
        <ele>355</ele>
        <time>2014-07-22T16:43:26Z</time>
      </trkpt>
      <trkpt lat="45.82547" lon="4.82707">
        <ele>355</ele>
        <time>2014-07-22T16:43:31Z</time>
      </trkpt>
      <trkpt lat="45.82556" lon="4.8271">
        <ele>355</ele>
        <time>2014-07-22T16:43:36Z</time>
      </trkpt>
      <trkpt lat="45.82558" lon="4.82711">
        <ele>355</ele>
        <time>2014-07-22T16:43:37Z</time>
      </trkpt>
      <trkpt lat="45.82567" lon="4.82715">
        <ele>354</ele>
        <time>2014-07-22T16:43:42Z</time>
      </trkpt>
      <trkpt lat="45.82574" lon="4.82717">
        <ele>354</ele>
        <time>2014-07-22T16:43:46Z</time>
      </trkpt>
      <trkpt lat="45.82578" lon="4.82716">
        <ele>354</ele>
        <time>2014-07-22T16:43:49Z</time>
      </trkpt>
      <trkpt lat="45.8259" lon="4.82721">
        <ele>359</ele>
        <time>2014-07-22T16:43:55Z</time>
      </trkpt>
      <trkpt lat="45.82591" lon="4.82722">
        <ele>359</ele>
        <time>2014-07-22T16:43:56Z</time>
      </trkpt>
      <trkpt lat="45.82593" lon="4.82722">
        <ele>359</ele>
        <time>2014-07-22T16:43:57Z</time>
      </trkpt>
      <trkpt lat="45.82602" lon="4.82722">
        <ele>360</ele>
        <time>2014-07-22T16:44:02Z</time>
      </trkpt>
      <trkpt lat="45.8261" lon="4.82726">
        <ele>361</ele>
        <time>2014-07-22T16:44:07Z</time>
      </trkpt>
      <trkpt lat="45.82613" lon="4.82727">
        <ele>361</ele>
        <time>2014-07-22T16:44:08Z</time>
      </trkpt>
      <trkpt lat="45.82624" lon="4.82733">
        <ele>362</ele>
        <time>2014-07-22T16:44:13Z</time>
      </trkpt>
      <trkpt lat="45.82628" lon="4.82736">
        <ele>362</ele>
        <time>2014-07-22T16:44:15Z</time>
      </trkpt>
      <trkpt lat="45.82631" lon="4.82739">
        <ele>362</ele>
        <time>2014-07-22T16:44:17Z</time>
      </trkpt>
      <trkpt lat="45.82632" lon="4.82741">
        <ele>362</ele>
        <time>2014-07-22T16:44:18Z</time>
      </trkpt>
      <trkpt lat="45.82634" lon="4.82742">
        <ele>362</ele>
        <time>2014-07-22T16:44:19Z</time>
      </trkpt>
      <trkpt lat="45.8264" lon="4.8275">
        <ele>363</ele>
        <time>2014-07-22T16:44:23Z</time>
      </trkpt>
      <trkpt lat="45.82644" lon="4.82756">
        <ele>355</ele>
        <time>2014-07-22T16:44:26Z</time>
      </trkpt>
      <trkpt lat="45.82649" lon="4.82761">
        <ele>355</ele>
        <time>2014-07-22T16:44:28Z</time>
      </trkpt>
      <trkpt lat="45.82657" lon="4.8277">
        <ele>355</ele>
        <time>2014-07-22T16:44:32Z</time>
      </trkpt>
      <trkpt lat="45.82658" lon="4.82773">
        <ele>355</ele>
        <time>2014-07-22T16:44:33Z</time>
      </trkpt>
      <trkpt lat="45.82667" lon="4.82784">
        <ele>364</ele>
        <time>2014-07-22T16:44:38Z</time>
      </trkpt>
      <trkpt lat="45.82669" lon="4.82787">
        <ele>364</ele>
        <time>2014-07-22T16:44:39Z</time>
      </trkpt>
      <trkpt lat="45.82673" lon="4.82791">
        <ele>364</ele>
        <time>2014-07-22T16:44:41Z</time>
      </trkpt>
      <trkpt lat="45.82677" lon="4.828">
        <ele>363</ele>
        <time>2014-07-22T16:44:44Z</time>
      </trkpt>
      <trkpt lat="45.82679" lon="4.82806">
        <ele>362</ele>
        <time>2014-07-22T16:44:46Z</time>
      </trkpt>
      <trkpt lat="45.82682" lon="4.82814">
        <ele>361</ele>
        <time>2014-07-22T16:44:49Z</time>
      </trkpt>
      <trkpt lat="45.82683" lon="4.82816">
        <ele>361</ele>
        <time>2014-07-22T16:44:50Z</time>
      </trkpt>
      <trkpt lat="45.82689" lon="4.82832">
        <ele>360</ele>
        <time>2014-07-22T16:44:55Z</time>
      </trkpt>
      <trkpt lat="45.82691" lon="4.82836">
        <ele>352</ele>
        <time>2014-07-22T16:44:57Z</time>
      </trkpt>
      <trkpt lat="45.82698" lon="4.82846">
        <ele>353</ele>
        <time>2014-07-22T16:45:01Z</time>
      </trkpt>
      <trkpt lat="45.82704" lon="4.82855">
        <ele>352</ele>
        <time>2014-07-22T16:45:05Z</time>
      </trkpt>
      <trkpt lat="45.82706" lon="4.8286">
        <ele>352</ele>
        <time>2014-07-22T16:45:07Z</time>
      </trkpt>
      <trkpt lat="45.82717" lon="4.82873">
        <ele>352</ele>
        <time>2014-07-22T16:45:13Z</time>
      </trkpt>
      <trkpt lat="45.82725" lon="4.8288">
        <ele>352</ele>
        <time>2014-07-22T16:45:17Z</time>
      </trkpt>
      <trkpt lat="45.82727" lon="4.8288">
        <ele>352</ele>
        <time>2014-07-22T16:45:18Z</time>
      </trkpt>
      <trkpt lat="45.82736" lon="4.82882">
        <ele>352</ele>
        <time>2014-07-22T16:45:22Z</time>
      </trkpt>
      <trkpt lat="45.82742" lon="4.82883">
        <ele>352</ele>
        <time>2014-07-22T16:45:24Z</time>
      </trkpt>
      <trkpt lat="45.82755" lon="4.82884">
        <ele>357</ele>
        <time>2014-07-22T16:45:29Z</time>
      </trkpt>
      <trkpt lat="45.82769" lon="4.82887">
        <ele>357</ele>
        <time>2014-07-22T16:45:34Z</time>
      </trkpt>
      <trkpt lat="45.82774" lon="4.82887">
        <ele>358</ele>
        <time>2014-07-22T16:45:37Z</time>
      </trkpt>
      <trkpt lat="45.82782" lon="4.82888">
        <ele>358</ele>
        <time>2014-07-22T16:45:40Z</time>
      </trkpt>
      <trkpt lat="45.82794" lon="4.82889">
        <ele>358</ele>
        <time>2014-07-22T16:45:46Z</time>
      </trkpt>
      <trkpt lat="45.82809" lon="4.8289">
        <ele>358</ele>
        <time>2014-07-22T16:45:51Z</time>
      </trkpt>
      <trkpt lat="45.82812" lon="4.82889">
        <ele>358</ele>
        <time>2014-07-22T16:45:52Z</time>
      </trkpt>
      <trkpt lat="45.82826" lon="4.82886">
        <ele>358</ele>
        <time>2014-07-22T16:45:57Z</time>
      </trkpt>
      <trkpt lat="45.82833" lon="4.82886">
        <ele>358</ele>
        <time>2014-07-22T16:45:59Z</time>
      </trkpt>
      <trkpt lat="45.82843" lon="4.82886">
        <ele>355</ele>
        <time>2014-07-22T16:46:02Z</time>
      </trkpt>
      <trkpt lat="45.82852" lon="4.82887">
        <ele>354</ele>
        <time>2014-07-22T16:46:05Z</time>
      </trkpt>
      <trkpt lat="45.82857" lon="4.82885">
        <ele>354</ele>
        <time>2014-07-22T16:46:07Z</time>
      </trkpt>
      <trkpt lat="45.82869" lon="4.82885">
        <ele>354</ele>
        <time>2014-07-22T16:46:12Z</time>
      </trkpt>
      <trkpt lat="45.82872" lon="4.82885">
        <ele>354</ele>
        <time>2014-07-22T16:46:13Z</time>
      </trkpt>
      <trkpt lat="45.82882" lon="4.82882">
        <ele>353</ele>
        <time>2014-07-22T16:46:17Z</time>
      </trkpt>
      <trkpt lat="45.82891" lon="4.82877">
        <ele>353</ele>
        <time>2014-07-22T16:46:20Z</time>
      </trkpt>
      <trkpt lat="45.82895" lon="4.82876">
        <ele>353</ele>
        <time>2014-07-22T16:46:21Z</time>
      </trkpt>
      <trkpt lat="45.82904" lon="4.8287">
        <ele>354</ele>
        <time>2014-07-22T16:46:25Z</time>
      </trkpt>
      <trkpt lat="45.8291" lon="4.82868">
        <ele>354</ele>
        <time>2014-07-22T16:46:28Z</time>
      </trkpt>
      <trkpt lat="45.82912" lon="4.82867">
        <ele>354</ele>
        <time>2014-07-22T16:46:29Z</time>
      </trkpt>
      <trkpt lat="45.82921" lon="4.82859">
        <ele>347</ele>
        <time>2014-07-22T16:46:33Z</time>
      </trkpt>
      <trkpt lat="45.82926" lon="4.82856">
        <ele>347</ele>
        <time>2014-07-22T16:46:35Z</time>
      </trkpt>
      <trkpt lat="45.82932" lon="4.82852">
        <ele>347</ele>
        <time>2014-07-22T16:46:37Z</time>
      </trkpt>
      <trkpt lat="45.82944" lon="4.82846">
        <ele>346</ele>
        <time>2014-07-22T16:46:42Z</time>
      </trkpt>
      <trkpt lat="45.82955" lon="4.82833">
        <ele>357</ele>
        <time>2014-07-22T16:46:47Z</time>
      </trkpt>
      <trkpt lat="45.82959" lon="4.82827">
        <ele>357</ele>
        <time>2014-07-22T16:46:49Z</time>
      </trkpt>
      <trkpt lat="45.82963" lon="4.8282">
        <ele>357</ele>
        <time>2014-07-22T16:46:51Z</time>
      </trkpt>
      <trkpt lat="45.82967" lon="4.82814">
        <ele>356</ele>
        <time>2014-07-22T16:46:53Z</time>
      </trkpt>
      <trkpt lat="45.82973" lon="4.82806">
        <ele>357</ele>
        <time>2014-07-22T16:46:56Z</time>
      </trkpt>
      <trkpt lat="45.82981" lon="4.82796">
        <ele>357</ele>
        <time>2014-07-22T16:47:01Z</time>
      </trkpt>
      <trkpt lat="45.82984" lon="4.82791">
        <ele>358</ele>
        <time>2014-07-22T16:47:03Z</time>
      </trkpt>
      <trkpt lat="45.82985" lon="4.82785">
        <ele>358</ele>
        <time>2014-07-22T16:47:05Z</time>
      </trkpt>
      <trkpt lat="45.82988" lon="4.8278">
        <ele>359</ele>
        <time>2014-07-22T16:47:07Z</time>
      </trkpt>
      <trkpt lat="45.82996" lon="4.82772">
        <ele>359</ele>
        <time>2014-07-22T16:47:10Z</time>
      </trkpt>
      <trkpt lat="45.82998" lon="4.82769">
        <ele>359</ele>
        <time>2014-07-22T16:47:11Z</time>
      </trkpt>
      <trkpt lat="45.82999" lon="4.82767">
        <ele>359</ele>
        <time>2014-07-22T16:47:12Z</time>
      </trkpt>
      <trkpt lat="45.83008" lon="4.82761">
        <ele>349</ele>
        <time>2014-07-22T16:47:16Z</time>
      </trkpt>
      <trkpt lat="45.83015" lon="4.82749">
        <ele>356</ele>
        <time>2014-07-22T16:47:20Z</time>
      </trkpt>
      <trkpt lat="45.83016" lon="4.82746">
        <ele>356</ele>
        <time>2014-07-22T16:47:21Z</time>
      </trkpt>
      <trkpt lat="45.83027" lon="4.82725">
        <ele>355</ele>
        <time>2014-07-22T16:47:27Z</time>
      </trkpt>
      <trkpt lat="45.83038" lon="4.8271">
        <ele>355</ele>
        <time>2014-07-22T16:47:33Z</time>
      </trkpt>
      <trkpt lat="45.8304" lon="4.82706">
        <ele>355</ele>
        <time>2014-07-22T16:47:34Z</time>
      </trkpt>
      <trkpt lat="45.83042" lon="4.82692">
        <ele>357</ele>
        <time>2014-07-22T16:47:37Z</time>
      </trkpt>
      <trkpt lat="45.8305" lon="4.82683">
        <ele>356</ele>
        <time>2014-07-22T16:47:41Z</time>
      </trkpt>
      <trkpt lat="45.83051" lon="4.82681">
        <ele>356</ele>
        <time>2014-07-22T16:47:42Z</time>
      </trkpt>
      <trkpt lat="45.8306" lon="4.82669">
        <ele>354</ele>
        <time>2014-07-22T16:47:47Z</time>
      </trkpt>
      <trkpt lat="45.83062" lon="4.82666">
        <ele>364</ele>
        <time>2014-07-22T16:47:48Z</time>
      </trkpt>
      <trkpt lat="45.83064" lon="4.82665">
        <ele>363</ele>
        <time>2014-07-22T16:47:49Z</time>
      </trkpt>
      <trkpt lat="45.83069" lon="4.82661">
        <ele>361</ele>
        <time>2014-07-22T16:47:51Z</time>
      </trkpt>
      <trkpt lat="45.83079" lon="4.82648">
        <ele>362</ele>
        <time>2014-07-22T16:47:56Z</time>
      </trkpt>
      <trkpt lat="45.83081" lon="4.82646">
        <ele>363</ele>
        <time>2014-07-22T16:47:57Z</time>
      </trkpt>
      <trkpt lat="45.83093" lon="4.82634">
        <ele>345</ele>
        <time>2014-07-22T16:48:02Z</time>
      </trkpt>
      <trkpt lat="45.83095" lon="4.82631">
        <ele>345</ele>
        <time>2014-07-22T16:48:03Z</time>
      </trkpt>
      <trkpt lat="45.831" lon="4.82621">
        <ele>345</ele>
        <time>2014-07-22T16:48:06Z</time>
      </trkpt>
      <trkpt lat="45.83106" lon="4.82609">
        <ele>346</ele>
        <time>2014-07-22T16:48:10Z</time>
      </trkpt>
      <trkpt lat="45.83108" lon="4.82606">
        <ele>346</ele>
        <time>2014-07-22T16:48:11Z</time>
      </trkpt>
      <trkpt lat="45.83114" lon="4.82592">
        <ele>346</ele>
        <time>2014-07-22T16:48:15Z</time>
      </trkpt>
      <trkpt lat="45.83117" lon="4.82586">
        <ele>346</ele>
        <time>2014-07-22T16:48:17Z</time>
      </trkpt>
      <trkpt lat="45.83119" lon="4.82575">
        <ele>353</ele>
        <time>2014-07-22T16:48:20Z</time>
      </trkpt>
      <trkpt lat="45.83126" lon="4.82565">
        <ele>351</ele>
        <time>2014-07-22T16:48:24Z</time>
      </trkpt>
      <trkpt lat="45.83128" lon="4.82562">
        <ele>351</ele>
        <time>2014-07-22T16:48:25Z</time>
      </trkpt>
      <trkpt lat="45.83133" lon="4.82554">
        <ele>350</ele>
        <time>2014-07-22T16:48:28Z</time>
      </trkpt>
      <trkpt lat="45.83135" lon="4.82552">
        <ele>350</ele>
        <time>2014-07-22T16:48:29Z</time>
      </trkpt>
      <trkpt lat="45.83141" lon="4.8254">
        <ele>349</ele>
        <time>2014-07-22T16:48:33Z</time>
      </trkpt>
      <trkpt lat="45.83138" lon="4.82528">
        <ele>350</ele>
        <time>2014-07-22T16:48:35Z</time>
      </trkpt>
      <trkpt lat="45.83139" lon="4.82516">
        <ele>350</ele>
        <time>2014-07-22T16:48:38Z</time>
      </trkpt>
      <trkpt lat="45.8314" lon="4.82513">
        <ele>350</ele>
        <time>2014-07-22T16:48:39Z</time>
      </trkpt>
      <trkpt lat="45.8314" lon="4.8251">
        <ele>350</ele>
        <time>2014-07-22T16:48:40Z</time>
      </trkpt>
      <trkpt lat="45.83139" lon="4.82503">
        <ele>350</ele>
        <time>2014-07-22T16:48:42Z</time>
      </trkpt>
      <trkpt lat="45.83137" lon="4.82489">
        <ele>356</ele>
        <time>2014-07-22T16:48:46Z</time>
      </trkpt>
      <trkpt lat="45.83138" lon="4.82486">
        <ele>356</ele>
        <time>2014-07-22T16:48:47Z</time>
      </trkpt>
      <trkpt lat="45.83138" lon="4.82483">
        <ele>357</ele>
        <time>2014-07-22T16:48:48Z</time>
      </trkpt>
      <trkpt lat="45.83136" lon="4.8248">
        <ele>357</ele>
        <time>2014-07-22T16:48:49Z</time>
      </trkpt>
      <trkpt lat="45.83136" lon="4.82478">
        <ele>358</ele>
        <time>2014-07-22T16:48:50Z</time>
      </trkpt>
      <trkpt lat="45.83135" lon="4.82468">
        <ele>359</ele>
        <time>2014-07-22T16:48:53Z</time>
      </trkpt>
      <trkpt lat="45.83136" lon="4.82461">
        <ele>359</ele>
        <time>2014-07-22T16:48:56Z</time>
      </trkpt>
      <trkpt lat="45.83134" lon="4.82446">
        <ele>360</ele>
        <time>2014-07-22T16:49:00Z</time>
      </trkpt>
      <trkpt lat="45.83133" lon="4.82443">
        <ele>360</ele>
        <time>2014-07-22T16:49:01Z</time>
      </trkpt>
      <trkpt lat="45.83134" lon="4.82433">
        <ele>360</ele>
        <time>2014-07-22T16:49:04Z</time>
      </trkpt>
      <trkpt lat="45.83133" lon="4.8243">
        <ele>360</ele>
        <time>2014-07-22T16:49:05Z</time>
      </trkpt>
      <trkpt lat="45.83133" lon="4.82411">
        <ele>362</ele>
        <time>2014-07-22T16:49:10Z</time>
      </trkpt>
      <trkpt lat="45.83132" lon="4.82407">
        <ele>362</ele>
        <time>2014-07-22T16:49:11Z</time>
      </trkpt>
      <trkpt lat="45.83134" lon="4.82398">
        <ele>362</ele>
        <time>2014-07-22T16:49:14Z</time>
      </trkpt>
      <trkpt lat="45.83137" lon="4.82381">
        <ele>362</ele>
        <time>2014-07-22T16:49:19Z</time>
      </trkpt>
      <trkpt lat="45.83137" lon="4.82373">
        <ele>362</ele>
        <time>2014-07-22T16:49:21Z</time>
      </trkpt>
      <trkpt lat="45.83138" lon="4.82364">
        <ele>361</ele>
        <time>2014-07-22T16:49:24Z</time>
      </trkpt>
      <trkpt lat="45.83139" lon="4.82361">
        <ele>361</ele>
        <time>2014-07-22T16:49:25Z</time>
      </trkpt>
      <trkpt lat="45.8314" lon="4.82353">
        <ele>360</ele>
        <time>2014-07-22T16:49:28Z</time>
      </trkpt>
      <trkpt lat="45.8314" lon="4.82349">
        <ele>360</ele>
        <time>2014-07-22T16:49:29Z</time>
      </trkpt>
      <trkpt lat="45.83139" lon="4.82343">
        <ele>360</ele>
        <time>2014-07-22T16:49:31Z</time>
      </trkpt>
      <trkpt lat="45.83137" lon="4.82338">
        <ele>360</ele>
        <time>2014-07-22T16:49:33Z</time>
      </trkpt>
      <trkpt lat="45.83137" lon="4.82332">
        <ele>359</ele>
        <time>2014-07-22T16:49:35Z</time>
      </trkpt>
      <trkpt lat="45.83135" lon="4.82325">
        <ele>360</ele>
        <time>2014-07-22T16:49:37Z</time>
      </trkpt>
      <trkpt lat="45.83134" lon="4.82321">
        <ele>361</ele>
        <time>2014-07-22T16:49:38Z</time>
      </trkpt>
      <trkpt lat="45.83134" lon="4.82315">
        <ele>361</ele>
        <time>2014-07-22T16:49:40Z</time>
      </trkpt>
      <trkpt lat="45.83132" lon="4.82307">
        <ele>362</ele>
        <time>2014-07-22T16:49:42Z</time>
      </trkpt>
      <trkpt lat="45.83128" lon="4.82299">
        <ele>363</ele>
        <time>2014-07-22T16:49:45Z</time>
      </trkpt>
      <trkpt lat="45.83127" lon="4.82295">
        <ele>363</ele>
        <time>2014-07-22T16:49:46Z</time>
      </trkpt>
      <trkpt lat="45.83125" lon="4.82282">
        <ele>363</ele>
        <time>2014-07-22T16:49:50Z</time>
      </trkpt>
      <trkpt lat="45.83125" lon="4.82279">
        <ele>364</ele>
        <time>2014-07-22T16:49:51Z</time>
      </trkpt>
      <trkpt lat="45.83124" lon="4.82274">
        <ele>364</ele>
        <time>2014-07-22T16:49:53Z</time>
      </trkpt>
      <trkpt lat="45.83124" lon="4.82266">
        <ele>364</ele>
        <time>2014-07-22T16:49:56Z</time>
      </trkpt>
      <trkpt lat="45.83123" lon="4.82262">
        <ele>364</ele>
        <time>2014-07-22T16:49:58Z</time>
      </trkpt>
      <trkpt lat="45.8312" lon="4.82252">
        <ele>365</ele>
        <time>2014-07-22T16:50:01Z</time>
      </trkpt>
      <trkpt lat="45.8312" lon="4.82249">
        <ele>361</ele>
        <time>2014-07-22T16:50:02Z</time>
      </trkpt>
      <trkpt lat="45.83117" lon="4.82238">
        <ele>362</ele>
        <time>2014-07-22T16:50:06Z</time>
      </trkpt>
      <trkpt lat="45.83118" lon="4.82233">
        <ele>361</ele>
        <time>2014-07-22T16:50:08Z</time>
      </trkpt>
      <trkpt lat="45.83117" lon="4.82227">
        <ele>361</ele>
        <time>2014-07-22T16:50:11Z</time>
      </trkpt>
      <trkpt lat="45.83118" lon="4.82223">
        <ele>360</ele>
        <time>2014-07-22T16:50:13Z</time>
      </trkpt>
      <trkpt lat="45.83118" lon="4.82221">
        <ele>360</ele>
        <time>2014-07-22T16:50:14Z</time>
      </trkpt>
      <trkpt lat="45.83116" lon="4.82212">
        <ele>360</ele>
        <time>2014-07-22T16:50:17Z</time>
      </trkpt>
      <trkpt lat="45.83112" lon="4.82198">
        <ele>361</ele>
        <time>2014-07-22T16:50:22Z</time>
      </trkpt>
      <trkpt lat="45.83108" lon="4.82192">
        <ele>361</ele>
        <time>2014-07-22T16:50:25Z</time>
      </trkpt>
      <trkpt lat="45.83104" lon="4.8218">
        <ele>364</ele>
        <time>2014-07-22T16:50:30Z</time>
      </trkpt>
      <trkpt lat="45.83102" lon="4.82175">
        <ele>365</ele>
        <time>2014-07-22T16:50:32Z</time>
      </trkpt>
      <trkpt lat="45.83099" lon="4.82168">
        <ele>367</ele>
        <time>2014-07-22T16:50:35Z</time>
      </trkpt>
      <trkpt lat="45.83093" lon="4.82158">
        <ele>362</ele>
        <time>2014-07-22T16:50:40Z</time>
      </trkpt>
      <trkpt lat="45.8309" lon="4.82153">
        <ele>361</ele>
        <time>2014-07-22T16:50:42Z</time>
      </trkpt>
      <trkpt lat="45.83087" lon="4.82148">
        <ele>359</ele>
        <time>2014-07-22T16:50:45Z</time>
      </trkpt>
      <trkpt lat="45.8308" lon="4.82142">
        <ele>377</ele>
        <time>2014-07-22T16:50:49Z</time>
      </trkpt>
      <trkpt lat="45.83078" lon="4.82141">
        <ele>377</ele>
        <time>2014-07-22T16:50:50Z</time>
      </trkpt>
      <trkpt lat="45.83076" lon="4.82138">
        <ele>377</ele>
        <time>2014-07-22T16:50:52Z</time>
      </trkpt>
      <trkpt lat="45.83072" lon="4.82132">
        <ele>377</ele>
        <time>2014-07-22T16:50:55Z</time>
      </trkpt>
      <trkpt lat="45.83071" lon="4.8213">
        <ele>377</ele>
        <time>2014-07-22T16:50:56Z</time>
      </trkpt>
      <trkpt lat="45.83067" lon="4.82122">
        <ele>376</ele>
        <time>2014-07-22T16:51:00Z</time>
      </trkpt>
      <trkpt lat="45.83065" lon="4.82115">
        <ele>376</ele>
        <time>2014-07-22T16:51:03Z</time>
      </trkpt>
      <trkpt lat="45.83061" lon="4.82109">
        <ele>375</ele>
        <time>2014-07-22T16:51:06Z</time>
      </trkpt>
      <trkpt lat="45.83056" lon="4.821">
        <ele>375</ele>
        <time>2014-07-22T16:51:11Z</time>
      </trkpt>
      <trkpt lat="45.83052" lon="4.82094">
        <ele>375</ele>
        <time>2014-07-22T16:51:14Z</time>
      </trkpt>
      <trkpt lat="45.83049" lon="4.82091">
        <ele>376</ele>
        <time>2014-07-22T16:51:16Z</time>
      </trkpt>
      <trkpt lat="45.83045" lon="4.82084">
        <ele>377</ele>
        <time>2014-07-22T16:51:20Z</time>
      </trkpt>
      <trkpt lat="45.83038" lon="4.82075">
        <ele>372</ele>
        <time>2014-07-22T16:51:25Z</time>
      </trkpt>
      <trkpt lat="45.83037" lon="4.82073">
        <ele>372</ele>
        <time>2014-07-22T16:51:26Z</time>
      </trkpt>
      <trkpt lat="45.83028" lon="4.82063">
        <ele>374</ele>
        <time>2014-07-22T16:51:32Z</time>
      </trkpt>
      <trkpt lat="45.83026" lon="4.82062">
        <ele>375</ele>
        <time>2014-07-22T16:51:33Z</time>
      </trkpt>
      <trkpt lat="45.83023" lon="4.82058">
        <ele>375</ele>
        <time>2014-07-22T16:51:35Z</time>
      </trkpt>
      <trkpt lat="45.83015" lon="4.82049">
        <ele>376</ele>
        <time>2014-07-22T16:51:40Z</time>
      </trkpt>
      <trkpt lat="45.83014" lon="4.82048">
        <ele>376</ele>
        <time>2014-07-22T16:51:41Z</time>
      </trkpt>
      <trkpt lat="45.83007" lon="4.82041">
        <ele>376</ele>
        <time>2014-07-22T16:51:46Z</time>
      </trkpt>
      <trkpt lat="45.83006" lon="4.8204">
        <ele>376</ele>
        <time>2014-07-22T16:51:47Z</time>
      </trkpt>
      <trkpt lat="45.82998" lon="4.82027">
        <ele>392</ele>
        <time>2014-07-22T16:51:53Z</time>
      </trkpt>
      <trkpt lat="45.82995" lon="4.82023">
        <ele>392</ele>
        <time>2014-07-22T16:51:55Z</time>
      </trkpt>
      <trkpt lat="45.8299" lon="4.82017">
        <ele>392</ele>
        <time>2014-07-22T16:51:58Z</time>
      </trkpt>
      <trkpt lat="45.82986" lon="4.82007">
        <ele>391</ele>
        <time>2014-07-22T16:52:03Z</time>
      </trkpt>
      <trkpt lat="45.82983" lon="4.82001">
        <ele>391</ele>
        <time>2014-07-22T16:52:06Z</time>
      </trkpt>
      <trkpt lat="45.82981" lon="4.81998">
        <ele>391</ele>
        <time>2014-07-22T16:52:07Z</time>
      </trkpt>
      <trkpt lat="45.8298" lon="4.81994">
        <ele>392</ele>
        <time>2014-07-22T16:52:08Z</time>
      </trkpt>
      <trkpt lat="45.82983" lon="4.81986">
        <ele>392</ele>
        <time>2014-07-22T16:52:12Z</time>
      </trkpt>
      <trkpt lat="45.8299" lon="4.81982">
        <ele>391</ele>
        <time>2014-07-22T16:52:16Z</time>
      </trkpt>
      <trkpt lat="45.82992" lon="4.81979">
        <ele>391</ele>
        <time>2014-07-22T16:52:17Z</time>
      </trkpt>
      <trkpt lat="45.82998" lon="4.81973">
        <ele>391</ele>
        <time>2014-07-22T16:52:21Z</time>
      </trkpt>
      <trkpt lat="45.83001" lon="4.81968">
        <ele>374</ele>
        <time>2014-07-22T16:52:23Z</time>
      </trkpt>
      <trkpt lat="45.83004" lon="4.81963">
        <ele>373</ele>
        <time>2014-07-22T16:52:25Z</time>
      </trkpt>
      <trkpt lat="45.83005" lon="4.8196">
        <ele>373</ele>
        <time>2014-07-22T16:52:26Z</time>
      </trkpt>
      <trkpt lat="45.8301" lon="4.81954">
        <ele>372</ele>
        <time>2014-07-22T16:52:30Z</time>
      </trkpt>
      <trkpt lat="45.83011" lon="4.81952">
        <ele>372</ele>
        <time>2014-07-22T16:52:31Z</time>
      </trkpt>
      <trkpt lat="45.83018" lon="4.81943">
        <ele>371</ele>
        <time>2014-07-22T16:52:36Z</time>
      </trkpt>
      <trkpt lat="45.83022" lon="4.81933">
        <ele>371</ele>
        <time>2014-07-22T16:52:41Z</time>
      </trkpt>
      <trkpt lat="45.83022" lon="4.81931">
        <ele>372</ele>
        <time>2014-07-22T16:52:42Z</time>
      </trkpt>
      <trkpt lat="45.83022" lon="4.8192">
        <ele>373</ele>
        <time>2014-07-22T16:52:47Z</time>
      </trkpt>
      <trkpt lat="45.83022" lon="4.81917">
        <ele>373</ele>
        <time>2014-07-22T16:52:48Z</time>
      </trkpt>
      <trkpt lat="45.83019" lon="4.81906">
        <ele>369</ele>
        <time>2014-07-22T16:52:51Z</time>
      </trkpt>
      <trkpt lat="45.83018" lon="4.81899">
        <ele>368</ele>
        <time>2014-07-22T16:52:53Z</time>
      </trkpt>
      <trkpt lat="45.83017" lon="4.8189">
        <ele>366</ele>
        <time>2014-07-22T16:52:56Z</time>
      </trkpt>
      <trkpt lat="45.83015" lon="4.81887">
        <ele>366</ele>
        <time>2014-07-22T16:52:57Z</time>
      </trkpt>
      <trkpt lat="45.83012" lon="4.81877">
        <ele>365</ele>
        <time>2014-07-22T16:53:01Z</time>
      </trkpt>
      <trkpt lat="45.83009" lon="4.81872">
        <ele>365</ele>
        <time>2014-07-22T16:53:03Z</time>
      </trkpt>
      <trkpt lat="45.83007" lon="4.81868">
        <ele>365</ele>
        <time>2014-07-22T16:53:05Z</time>
      </trkpt>
      <trkpt lat="45.83006" lon="4.81865">
        <ele>366</ele>
        <time>2014-07-22T16:53:06Z</time>
      </trkpt>
      <trkpt lat="45.83001" lon="4.81851">
        <ele>368</ele>
        <time>2014-07-22T16:53:11Z</time>
      </trkpt>
      <trkpt lat="45.83" lon="4.81848">
        <ele>384</ele>
        <time>2014-07-22T16:53:12Z</time>
      </trkpt>
      <trkpt lat="45.82999" lon="4.81845">
        <ele>383</ele>
        <time>2014-07-22T16:53:13Z</time>
      </trkpt>
      <trkpt lat="45.82998" lon="4.8184">
        <ele>381</ele>
        <time>2014-07-22T16:53:15Z</time>
      </trkpt>
      <trkpt lat="45.82995" lon="4.81825">
        <ele>381</ele>
        <time>2014-07-22T16:53:21Z</time>
      </trkpt>
      <trkpt lat="45.82991" lon="4.81819">
        <ele>383</ele>
        <time>2014-07-22T16:53:23Z</time>
      </trkpt>
      <trkpt lat="45.82988" lon="4.81811">
        <ele>384</ele>
        <time>2014-07-22T16:53:26Z</time>
      </trkpt>
      <trkpt lat="45.82982" lon="4.81801">
        <ele>385</ele>
        <time>2014-07-22T16:53:31Z</time>
      </trkpt>
      <trkpt lat="45.8298" lon="4.81799">
        <ele>386</ele>
        <time>2014-07-22T16:53:32Z</time>
      </trkpt>
      <trkpt lat="45.82973" lon="4.81795">
        <ele>387</ele>
        <time>2014-07-22T16:53:36Z</time>
      </trkpt>
      <trkpt lat="45.82965" lon="4.81786">
        <ele>388</ele>
        <time>2014-07-22T16:53:42Z</time>
      </trkpt>
      <trkpt lat="45.82956" lon="4.81777">
        <ele>389</ele>
        <time>2014-07-22T16:53:48Z</time>
      </trkpt>
      <trkpt lat="45.82954" lon="4.81775">
        <ele>390</ele>
        <time>2014-07-22T16:53:50Z</time>
      </trkpt>
      <trkpt lat="45.82952" lon="4.81772">
        <ele>390</ele>
        <time>2014-07-22T16:53:53Z</time>
      </trkpt>
      <trkpt lat="45.82949" lon="4.8177">
        <ele>391</ele>
        <time>2014-07-22T16:53:56Z</time>
      </trkpt>
      <trkpt lat="45.82945" lon="4.81766">
        <ele>392</ele>
        <time>2014-07-22T16:53:59Z</time>
      </trkpt>
      <trkpt lat="45.82942" lon="4.81763">
        <ele>393</ele>
        <time>2014-07-22T16:54:01Z</time>
      </trkpt>
      <trkpt lat="45.8294" lon="4.81759">
        <ele>394</ele>
        <time>2014-07-22T16:54:03Z</time>
      </trkpt>
      <trkpt lat="45.82939" lon="4.81758">
        <ele>395</ele>
        <time>2014-07-22T16:54:04Z</time>
      </trkpt>
      <trkpt lat="45.82934" lon="4.81757">
        <ele>396</ele>
        <time>2014-07-22T16:54:08Z</time>
      </trkpt>
      <trkpt lat="45.82933" lon="4.81756">
        <ele>397</ele>
        <time>2014-07-22T16:54:09Z</time>
      </trkpt>
      <trkpt lat="45.82929" lon="4.81751">
        <ele>399</ele>
        <time>2014-07-22T16:54:13Z</time>
      </trkpt>
      <trkpt lat="45.82928" lon="4.8175">
        <ele>394</ele>
        <time>2014-07-22T16:54:14Z</time>
      </trkpt>
      <trkpt lat="45.82925" lon="4.81742">
        <ele>394</ele>
        <time>2014-07-22T16:54:18Z</time>
      </trkpt>
      <trkpt lat="45.82921" lon="4.81736">
        <ele>392</ele>
        <time>2014-07-22T16:54:21Z</time>
      </trkpt>
      <trkpt lat="45.82921" lon="4.81733">
        <ele>391</ele>
        <time>2014-07-22T16:54:22Z</time>
      </trkpt>
      <trkpt lat="45.82919" lon="4.81721">
        <ele>386</ele>
        <time>2014-07-22T16:54:27Z</time>
      </trkpt>
      <trkpt lat="45.82915" lon="4.81711">
        <ele>405</ele>
        <time>2014-07-22T16:54:31Z</time>
      </trkpt>
      <trkpt lat="45.82913" lon="4.81708">
        <ele>405</ele>
        <time>2014-07-22T16:54:32Z</time>
      </trkpt>
      <trkpt lat="45.82912" lon="4.81705">
        <ele>404</ele>
        <time>2014-07-22T16:54:33Z</time>
      </trkpt>
      <trkpt lat="45.82912" lon="4.817">
        <ele>403</ele>
        <time>2014-07-22T16:54:35Z</time>
      </trkpt>
      <trkpt lat="45.82912" lon="4.81691">
        <ele>400</ele>
        <time>2014-07-22T16:54:38Z</time>
      </trkpt>
      <trkpt lat="45.82911" lon="4.81685">
        <ele>398</ele>
        <time>2014-07-22T16:54:40Z</time>
      </trkpt>
      <trkpt lat="45.82911" lon="4.8167">
        <ele>391</ele>
        <time>2014-07-22T16:54:44Z</time>
      </trkpt>
      <trkpt lat="45.8291" lon="4.81666">
        <ele>387</ele>
        <time>2014-07-22T16:54:45Z</time>
      </trkpt>
      <trkpt lat="45.82908" lon="4.81657">
        <ele>389</ele>
        <time>2014-07-22T16:54:47Z</time>
      </trkpt>
      <trkpt lat="45.82906" lon="4.81653">
        <ele>390</ele>
        <time>2014-07-22T16:54:48Z</time>
      </trkpt>
      <trkpt lat="45.82894" lon="4.8164">
        <ele>392</ele>
        <time>2014-07-22T16:54:52Z</time>
      </trkpt>
      <trkpt lat="45.82878" lon="4.81624">
        <ele>394</ele>
        <time>2014-07-22T16:54:57Z</time>
      </trkpt>
      <trkpt lat="45.82869" lon="4.81613">
        <ele>395</ele>
        <time>2014-07-22T16:55:01Z</time>
      </trkpt>
      <trkpt lat="45.82867" lon="4.81601">
        <ele>395</ele>
        <time>2014-07-22T16:55:04Z</time>
      </trkpt>
      <trkpt lat="45.82866" lon="4.81596">
        <ele>395</ele>
        <time>2014-07-22T16:55:05Z</time>
      </trkpt>
      <trkpt lat="45.82862" lon="4.8158">
        <ele>389</ele>
        <time>2014-07-22T16:55:10Z</time>
      </trkpt>
      <trkpt lat="45.82861" lon="4.81575">
        <ele>389</ele>
        <time>2014-07-22T16:55:11Z</time>
      </trkpt>
      <trkpt lat="45.82858" lon="4.81566">
        <ele>389</ele>
        <time>2014-07-22T16:55:13Z</time>
      </trkpt>
      <trkpt lat="45.82855" lon="4.81556">
        <ele>389</ele>
        <time>2014-07-22T16:55:15Z</time>
      </trkpt>
      <trkpt lat="45.82856" lon="4.81552">
        <ele>388</ele>
        <time>2014-07-22T16:55:16Z</time>
      </trkpt>
      <trkpt lat="45.82857" lon="4.81547">
        <ele>388</ele>
        <time>2014-07-22T16:55:17Z</time>
      </trkpt>
      <trkpt lat="45.82859" lon="4.81543">
        <ele>387</ele>
        <time>2014-07-22T16:55:18Z</time>
      </trkpt>
      <trkpt lat="45.82864" lon="4.81521">
        <ele>385</ele>
        <time>2014-07-22T16:55:23Z</time>
      </trkpt>
      <trkpt lat="45.82868" lon="4.81505">
        <ele>384</ele>
        <time>2014-07-22T16:55:27Z</time>
      </trkpt>
      <trkpt lat="45.8287" lon="4.81497">
        <ele>382</ele>
        <time>2014-07-22T16:55:29Z</time>
      </trkpt>
      <trkpt lat="45.82879" lon="4.81484">
        <ele>379</ele>
        <time>2014-07-22T16:55:33Z</time>
      </trkpt>
      <trkpt lat="45.82883" lon="4.81478">
        <ele>378</ele>
        <time>2014-07-22T16:55:35Z</time>
      </trkpt>
      <trkpt lat="45.8289" lon="4.81468">
        <ele>377</ele>
        <time>2014-07-22T16:55:39Z</time>
      </trkpt>
      <trkpt lat="45.82897" lon="4.8146">
        <ele>376</ele>
        <time>2014-07-22T16:55:42Z</time>
      </trkpt>
      <trkpt lat="45.82901" lon="4.81453">
        <ele>375</ele>
        <time>2014-07-22T16:55:44Z</time>
      </trkpt>
      <trkpt lat="45.82908" lon="4.81441">
        <ele>373</ele>
        <time>2014-07-22T16:55:48Z</time>
      </trkpt>
      <trkpt lat="45.8291" lon="4.81436">
        <ele>371</ele>
        <time>2014-07-22T16:55:49Z</time>
      </trkpt>
      <trkpt lat="45.82911" lon="4.81426">
        <ele>368</ele>
        <time>2014-07-22T16:55:51Z</time>
      </trkpt>
      <trkpt lat="45.82917" lon="4.81411">
        <ele>358</ele>
        <time>2014-07-22T16:55:55Z</time>
      </trkpt>
      <trkpt lat="45.8292" lon="4.81409">
        <ele>356</ele>
        <time>2014-07-22T16:55:56Z</time>
      </trkpt>
      <trkpt lat="45.82933" lon="4.81397">
        <ele>351</ele>
        <time>2014-07-22T16:56:01Z</time>
      </trkpt>
      <trkpt lat="45.82941" lon="4.81384">
        <ele>348</ele>
        <time>2014-07-22T16:56:06Z</time>
      </trkpt>
      <trkpt lat="45.82945" lon="4.81379">
        <ele>348</ele>
        <time>2014-07-22T16:56:08Z</time>
      </trkpt>
      <trkpt lat="45.82947" lon="4.81377">
        <ele>347</ele>
        <time>2014-07-22T16:56:09Z</time>
      </trkpt>
      <trkpt lat="45.8295" lon="4.81371">
        <ele>347</ele>
        <time>2014-07-22T16:56:11Z</time>
      </trkpt>
      <trkpt lat="45.82957" lon="4.81357">
        <ele>346</ele>
        <time>2014-07-22T16:56:15Z</time>
      </trkpt>
      <trkpt lat="45.82959" lon="4.81353">
        <ele>345</ele>
        <time>2014-07-22T16:56:16Z</time>
      </trkpt>
      <trkpt lat="45.8297" lon="4.81336">
        <ele>341</ele>
        <time>2014-07-22T16:56:21Z</time>
      </trkpt>
      <trkpt lat="45.82978" lon="4.81322">
        <ele>346</ele>
        <time>2014-07-22T16:56:25Z</time>
      </trkpt>
      <trkpt lat="45.8298" lon="4.81319">
        <ele>346</ele>
        <time>2014-07-22T16:56:26Z</time>
      </trkpt>
      <trkpt lat="45.82983" lon="4.81315">
        <ele>345</ele>
        <time>2014-07-22T16:56:28Z</time>
      </trkpt>
      <trkpt lat="45.82986" lon="4.81313">
        <ele>345</ele>
        <time>2014-07-22T16:56:29Z</time>
      </trkpt>
      <trkpt lat="45.82992" lon="4.81307">
        <ele>346</ele>
        <time>2014-07-22T16:56:31Z</time>
      </trkpt>
      <trkpt lat="45.83001" lon="4.81302">
        <ele>331</ele>
        <time>2014-07-22T16:56:34Z</time>
      </trkpt>
      <trkpt lat="45.83003" lon="4.81299">
        <ele>331</ele>
        <time>2014-07-22T16:56:35Z</time>
      </trkpt>
      <trkpt lat="45.8301" lon="4.81285">
        <ele>334</ele>
        <time>2014-07-22T16:56:39Z</time>
      </trkpt>
      <trkpt lat="45.83013" lon="4.81282">
        <ele>334</ele>
        <time>2014-07-22T16:56:41Z</time>
      </trkpt>
      <trkpt lat="45.83017" lon="4.81284">
        <ele>334</ele>
        <time>2014-07-22T16:56:43Z</time>
      </trkpt>
      <trkpt lat="45.83019" lon="4.81286">
        <ele>333</ele>
        <time>2014-07-22T16:56:44Z</time>
      </trkpt>
      <trkpt lat="45.83026" lon="4.81295">
        <ele>332</ele>
        <time>2014-07-22T16:56:47Z</time>
      </trkpt>
      <trkpt lat="45.83028" lon="4.81298">
        <ele>331</ele>
        <time>2014-07-22T16:56:48Z</time>
      </trkpt>
      <trkpt lat="45.83039" lon="4.81311">
        <ele>330</ele>
        <time>2014-07-22T16:56:53Z</time>
      </trkpt>
      <trkpt lat="45.83045" lon="4.81314">
        <ele>329</ele>
        <time>2014-07-22T16:56:55Z</time>
      </trkpt>
      <trkpt lat="45.83052" lon="4.81321">
        <ele>328</ele>
        <time>2014-07-22T16:56:58Z</time>
      </trkpt>
      <trkpt lat="45.83061" lon="4.81331">
        <ele>326</ele>
        <time>2014-07-22T16:57:02Z</time>
      </trkpt>
      <trkpt lat="45.83069" lon="4.81349">
        <ele>317</ele>
        <time>2014-07-22T16:57:08Z</time>
      </trkpt>
      <trkpt lat="45.8307" lon="4.81354">
        <ele>317</ele>
        <time>2014-07-22T16:57:09Z</time>
      </trkpt>
      <trkpt lat="45.83072" lon="4.81366">
        <ele>316</ele>
        <time>2014-07-22T16:57:13Z</time>
      </trkpt>
      <trkpt lat="45.83074" lon="4.81371">
        <ele>315</ele>
        <time>2014-07-22T16:57:17Z</time>
      </trkpt>
      <trkpt lat="45.83077" lon="4.81369">
        <ele>316</ele>
        <time>2014-07-22T16:57:19Z</time>
      </trkpt>
      <trkpt lat="45.83079" lon="4.81365">
        <ele>316</ele>
        <time>2014-07-22T16:57:21Z</time>
      </trkpt>
      <trkpt lat="45.83084" lon="4.8136">
        <ele>316</ele>
        <time>2014-07-22T16:57:24Z</time>
      </trkpt>
      <trkpt lat="45.83086" lon="4.8136">
        <ele>316</ele>
        <time>2014-07-22T16:57:25Z</time>
      </trkpt>
      <trkpt lat="45.83092" lon="4.81357">
        <ele>316</ele>
        <time>2014-07-22T16:57:28Z</time>
      </trkpt>
      <trkpt lat="45.83095" lon="4.81356">
        <ele>317</ele>
        <time>2014-07-22T16:57:30Z</time>
      </trkpt>
      <trkpt lat="45.83096" lon="4.81356">
        <ele>317</ele>
        <time>2014-07-22T16:57:31Z</time>
      </trkpt>
      <trkpt lat="45.83104" lon="4.81355">
        <ele>317</ele>
        <time>2014-07-22T16:57:35Z</time>
      </trkpt>
      <trkpt lat="45.83108" lon="4.81352">
        <ele>317</ele>
        <time>2014-07-22T16:57:37Z</time>
      </trkpt>
      <trkpt lat="45.8311" lon="4.81351">
        <ele>317</ele>
        <time>2014-07-22T16:57:38Z</time>
      </trkpt>
      <trkpt lat="45.83114" lon="4.81349">
        <ele>317</ele>
        <time>2014-07-22T16:57:40Z</time>
      </trkpt>
      <trkpt lat="45.83116" lon="4.81348">
        <ele>318</ele>
        <time>2014-07-22T16:57:41Z</time>
      </trkpt>
      <trkpt lat="45.8312" lon="4.81345">
        <ele>318</ele>
        <time>2014-07-22T16:57:43Z</time>
      </trkpt>
      <trkpt lat="45.83122" lon="4.81342">
        <ele>318</ele>
        <time>2014-07-22T16:57:45Z</time>
      </trkpt>
      <trkpt lat="45.83124" lon="4.81334">
        <ele>319</ele>
        <time>2014-07-22T16:57:49Z</time>
      </trkpt>
      <trkpt lat="45.83124" lon="4.81326">
        <ele>330</ele>
        <time>2014-07-22T16:57:52Z</time>
      </trkpt>
      <trkpt lat="45.83125" lon="4.81319">
        <ele>331</ele>
        <time>2014-07-22T16:57:56Z</time>
      </trkpt>
      <trkpt lat="45.83126" lon="4.81309">
        <ele>332</ele>
        <time>2014-07-22T16:58:01Z</time>
      </trkpt>
      <trkpt lat="45.83134" lon="4.81314">
        <ele>332</ele>
        <time>2014-07-22T16:58:05Z</time>
      </trkpt>
      <trkpt lat="45.83141" lon="4.81323">
        <ele>332</ele>
        <time>2014-07-22T16:58:10Z</time>
      </trkpt>
      <trkpt lat="45.83144" lon="4.81324">
        <ele>332</ele>
        <time>2014-07-22T16:58:12Z</time>
      </trkpt>
      <trkpt lat="45.83151" lon="4.81333">
        <ele>331</ele>
        <time>2014-07-22T16:58:18Z</time>
      </trkpt>
      <trkpt lat="45.83152" lon="4.81333">
        <ele>331</ele>
        <time>2014-07-22T16:58:19Z</time>
      </trkpt>
      <trkpt lat="45.83156" lon="4.81338">
        <ele>325</ele>
        <time>2014-07-22T16:58:26Z</time>
      </trkpt>
      <trkpt lat="45.83157" lon="4.81341">
        <ele>324</ele>
        <time>2014-07-22T16:58:31Z</time>
      </trkpt>
      <trkpt lat="45.83159" lon="4.81342">
        <ele>324</ele>
        <time>2014-07-22T16:58:32Z</time>
      </trkpt>
      <trkpt lat="45.83162" lon="4.81346">
        <ele>324</ele>
        <time>2014-07-22T16:58:35Z</time>
      </trkpt>
      <trkpt lat="45.83166" lon="4.81349">
        <ele>323</ele>
        <time>2014-07-22T16:58:38Z</time>
      </trkpt>
      <trkpt lat="45.83167" lon="4.81349">
        <ele>328</ele>
        <time>2014-07-22T16:58:39Z</time>
      </trkpt>
      <trkpt lat="45.83172" lon="4.8135">
        <ele>328</ele>
        <time>2014-07-22T16:58:42Z</time>
      </trkpt>
      <trkpt lat="45.83175" lon="4.81351">
        <ele>328</ele>
        <time>2014-07-22T16:58:46Z</time>
      </trkpt>
      <trkpt lat="45.83176" lon="4.81352">
        <ele>328</ele>
        <time>2014-07-22T16:58:47Z</time>
      </trkpt>
      <trkpt lat="45.83177" lon="4.81354">
        <ele>327</ele>
        <time>2014-07-22T16:58:50Z</time>
      </trkpt>
      <trkpt lat="45.83178" lon="4.81356">
        <ele>327</ele>
        <time>2014-07-22T16:58:51Z</time>
      </trkpt>
      <trkpt lat="45.83183" lon="4.81358">
        <ele>327</ele>
        <time>2014-07-22T16:58:55Z</time>
      </trkpt>
      <trkpt lat="45.83187" lon="4.81355">
        <ele>327</ele>
        <time>2014-07-22T16:59:00Z</time>
      </trkpt>
      <trkpt lat="45.83188" lon="4.81356">
        <ele>327</ele>
        <time>2014-07-22T16:59:02Z</time>
      </trkpt>
      <trkpt lat="45.83189" lon="4.81357">
        <ele>327</ele>
        <time>2014-07-22T16:59:03Z</time>
      </trkpt>
      <trkpt lat="45.83191" lon="4.8136">
        <ele>327</ele>
        <time>2014-07-22T16:59:08Z</time>
      </trkpt>
      <trkpt lat="45.83192" lon="4.81361">
        <ele>327</ele>
        <time>2014-07-22T16:59:10Z</time>
      </trkpt>
      <trkpt lat="45.83195" lon="4.8136">
        <ele>327</ele>
        <time>2014-07-22T16:59:14Z</time>
      </trkpt>
      <trkpt lat="45.83195" lon="4.81359">
        <ele>327</ele>
        <time>2014-07-22T16:59:15Z</time>
      </trkpt>
      <trkpt lat="45.83197" lon="4.81357">
        <ele>328</ele>
        <time>2014-07-22T16:59:18Z</time>
      </trkpt>
      <trkpt lat="45.83199" lon="4.81359">
        <ele>328</ele>
        <time>2014-07-22T16:59:20Z</time>
      </trkpt>
      <trkpt lat="45.83201" lon="4.81362">
        <ele>327</ele>
        <time>2014-07-22T16:59:23Z</time>
      </trkpt>
      <trkpt lat="45.83203" lon="4.81362">
        <ele>328</ele>
        <time>2014-07-22T16:59:26Z</time>
      </trkpt>
      <trkpt lat="45.83204" lon="4.81362">
        <ele>328</ele>
        <time>2014-07-22T16:59:27Z</time>
      </trkpt>
      <trkpt lat="45.83207" lon="4.81358">
        <ele>328</ele>
        <time>2014-07-22T16:59:31Z</time>
      </trkpt>
      <trkpt lat="45.83208" lon="4.81357">
        <ele>329</ele>
        <time>2014-07-22T16:59:32Z</time>
      </trkpt>
      <trkpt lat="45.83208" lon="4.81355">
        <ele>329</ele>
        <time>2014-07-22T16:59:33Z</time>
      </trkpt>
      <trkpt lat="45.8321" lon="4.8135">
        <ele>330</ele>
        <time>2014-07-22T16:59:37Z</time>
      </trkpt>
      <trkpt lat="45.83214" lon="4.81349">
        <ele>330</ele>
        <time>2014-07-22T16:59:40Z</time>
      </trkpt>
      <trkpt lat="45.83219" lon="4.81351">
        <ele>331</ele>
        <time>2014-07-22T16:59:43Z</time>
      </trkpt>
      <trkpt lat="45.83222" lon="4.81354">
        <ele>331</ele>
        <time>2014-07-22T16:59:45Z</time>
      </trkpt>
      <trkpt lat="45.83224" lon="4.81357">
        <ele>331</ele>
        <time>2014-07-22T16:59:47Z</time>
      </trkpt>
      <trkpt lat="45.83231" lon="4.81359">
        <ele>331</ele>
        <time>2014-07-22T16:59:52Z</time>
      </trkpt>
      <trkpt lat="45.83237" lon="4.81357">
        <ele>332</ele>
        <time>2014-07-22T16:59:55Z</time>
      </trkpt>
      <trkpt lat="45.83239" lon="4.81356">
        <ele>333</ele>
        <time>2014-07-22T16:59:56Z</time>
      </trkpt>
      <trkpt lat="45.8324" lon="4.81354">
        <ele>333</ele>
        <time>2014-07-22T16:59:57Z</time>
      </trkpt>
      <trkpt lat="45.83242" lon="4.81352">
        <ele>334</ele>
        <time>2014-07-22T16:59:59Z</time>
      </trkpt>
      <trkpt lat="45.83245" lon="4.8135">
        <ele>335</ele>
        <time>2014-07-22T17:00:02Z</time>
      </trkpt>
      <trkpt lat="45.83246" lon="4.81349">
        <ele>336</ele>
        <time>2014-07-22T17:00:03Z</time>
      </trkpt>
      <trkpt lat="45.83249" lon="4.8135">
        <ele>336</ele>
        <time>2014-07-22T17:00:07Z</time>
      </trkpt>
      <trkpt lat="45.83249" lon="4.81349">
        <ele>336</ele>
        <time>2014-07-22T17:00:08Z</time>
      </trkpt>
      <trkpt lat="45.83248" lon="4.81343">
        <ele>338</ele>
        <time>2014-07-22T17:00:11Z</time>
      </trkpt>
      <trkpt lat="45.83248" lon="4.81338">
        <ele>341</ele>
        <time>2014-07-22T17:00:15Z</time>
      </trkpt>
      <trkpt lat="45.83249" lon="4.81335">
        <ele>343</ele>
        <time>2014-07-22T17:00:17Z</time>
      </trkpt>
      <trkpt lat="45.83253" lon="4.81331">
        <ele>345</ele>
        <time>2014-07-22T17:00:21Z</time>
      </trkpt>
      <trkpt lat="45.83257" lon="4.81325">
        <ele>347</ele>
        <time>2014-07-22T17:00:27Z</time>
      </trkpt>
      <trkpt lat="45.83256" lon="4.81317">
        <ele>348</ele>
        <time>2014-07-22T17:00:34Z</time>
      </trkpt>
      <trkpt lat="45.83254" lon="4.81313">
        <ele>349</ele>
        <time>2014-07-22T17:00:37Z</time>
      </trkpt>
      <trkpt lat="45.83253" lon="4.81312">
        <ele>349</ele>
        <time>2014-07-22T17:00:38Z</time>
      </trkpt>
      <trkpt lat="45.83251" lon="4.81306">
        <ele>350</ele>
        <time>2014-07-22T17:00:43Z</time>
      </trkpt>
      <trkpt lat="45.83251" lon="4.81305">
        <ele>350</ele>
        <time>2014-07-22T17:00:44Z</time>
      </trkpt>
      <trkpt lat="45.8325" lon="4.81302">
        <ele>350</ele>
        <time>2014-07-22T17:00:46Z</time>
      </trkpt>
      <trkpt lat="45.83249" lon="4.813">
        <ele>345</ele>
        <time>2014-07-22T17:00:48Z</time>
      </trkpt>
      <trkpt lat="45.83248" lon="4.81298">
        <ele>346</ele>
        <time>2014-07-22T17:00:50Z</time>
      </trkpt>
      <trkpt lat="45.83246" lon="4.81292">
        <ele>346</ele>
        <time>2014-07-22T17:00:54Z</time>
      </trkpt>
      <trkpt lat="45.83246" lon="4.81289">
        <ele>347</ele>
        <time>2014-07-22T17:00:57Z</time>
      </trkpt>
      <trkpt lat="45.83245" lon="4.81288">
        <ele>347</ele>
        <time>2014-07-22T17:00:58Z</time>
      </trkpt>
      <trkpt lat="45.83244" lon="4.81285">
        <ele>347</ele>
        <time>2014-07-22T17:01:01Z</time>
      </trkpt>
      <trkpt lat="45.83241" lon="4.81281">
        <ele>347</ele>
        <time>2014-07-22T17:01:04Z</time>
      </trkpt>
      <trkpt lat="45.83241" lon="4.81279">
        <ele>348</ele>
        <time>2014-07-22T17:01:05Z</time>
      </trkpt>
      <trkpt lat="45.83238" lon="4.81273">
        <ele>348</ele>
        <time>2014-07-22T17:01:09Z</time>
      </trkpt>
      <trkpt lat="45.83237" lon="4.8127">
        <ele>349</ele>
        <time>2014-07-22T17:01:11Z</time>
      </trkpt>
      <trkpt lat="45.83237" lon="4.81266">
        <ele>349</ele>
        <time>2014-07-22T17:01:13Z</time>
      </trkpt>
      <trkpt lat="45.83237" lon="4.81253">
        <ele>351</ele>
        <time>2014-07-22T17:01:19Z</time>
      </trkpt>
      <trkpt lat="45.83235" lon="4.81241">
        <ele>356</ele>
        <time>2014-07-22T17:01:23Z</time>
      </trkpt>
      <trkpt lat="45.83235" lon="4.81238">
        <ele>356</ele>
        <time>2014-07-22T17:01:24Z</time>
      </trkpt>
      <trkpt lat="45.83232" lon="4.81223">
        <ele>357</ele>
        <time>2014-07-22T17:01:29Z</time>
      </trkpt>
      <trkpt lat="45.83232" lon="4.8121">
        <ele>358</ele>
        <time>2014-07-22T17:01:33Z</time>
      </trkpt>
      <trkpt lat="45.83232" lon="4.81208">
        <ele>358</ele>
        <time>2014-07-22T17:01:34Z</time>
      </trkpt>
      <trkpt lat="45.83234" lon="4.81193">
        <ele>360</ele>
        <time>2014-07-22T17:01:39Z</time>
      </trkpt>
      <trkpt lat="45.83235" lon="4.81184">
        <ele>361</ele>
        <time>2014-07-22T17:01:43Z</time>
      </trkpt>
      <trkpt lat="45.83235" lon="4.81177">
        <ele>362</ele>
        <time>2014-07-22T17:01:46Z</time>
      </trkpt>
      <trkpt lat="45.83234" lon="4.81169">
        <ele>362</ele>
        <time>2014-07-22T17:01:50Z</time>
      </trkpt>
      <trkpt lat="45.83235" lon="4.81165">
        <ele>367</ele>
        <time>2014-07-22T17:01:52Z</time>
      </trkpt>
      <trkpt lat="45.83233" lon="4.81162">
        <ele>368</ele>
        <time>2014-07-22T17:01:54Z</time>
      </trkpt>
      <trkpt lat="45.83232" lon="4.81157">
        <ele>368</ele>
        <time>2014-07-22T17:01:56Z</time>
      </trkpt>
      <trkpt lat="45.83232" lon="4.8115">
        <ele>368</ele>
        <time>2014-07-22T17:01:58Z</time>
      </trkpt>
      <trkpt lat="45.83233" lon="4.81145">
        <ele>369</ele>
        <time>2014-07-22T17:02:00Z</time>
      </trkpt>
      <trkpt lat="45.83236" lon="4.81138">
        <ele>369</ele>
        <time>2014-07-22T17:02:03Z</time>
      </trkpt>
      <trkpt lat="45.83238" lon="4.81131">
        <ele>370</ele>
        <time>2014-07-22T17:02:06Z</time>
      </trkpt>
      <trkpt lat="45.83239" lon="4.81127">
        <ele>370</ele>
        <time>2014-07-22T17:02:08Z</time>
      </trkpt>
      <trkpt lat="45.8324" lon="4.81119">
        <ele>371</ele>
        <time>2014-07-22T17:02:13Z</time>
      </trkpt>
      <trkpt lat="45.8324" lon="4.81118">
        <ele>371</ele>
        <time>2014-07-22T17:02:14Z</time>
      </trkpt>
      <trkpt lat="45.8324" lon="4.81111">
        <ele>372</ele>
        <time>2014-07-22T17:02:17Z</time>
      </trkpt>
      <trkpt lat="45.83241" lon="4.81104">
        <ele>373</ele>
        <time>2014-07-22T17:02:19Z</time>
      </trkpt>
      <trkpt lat="45.8324" lon="4.81097">
        <ele>374</ele>
        <time>2014-07-22T17:02:23Z</time>
      </trkpt>
      <trkpt lat="45.83238" lon="4.81089">
        <ele>374</ele>
        <time>2014-07-22T17:02:26Z</time>
      </trkpt>
      <trkpt lat="45.83235" lon="4.81087">
        <ele>374</ele>
        <time>2014-07-22T17:02:28Z</time>
      </trkpt>
      <trkpt lat="45.83231" lon="4.81086">
        <ele>373</ele>
        <time>2014-07-22T17:02:30Z</time>
      </trkpt>
      <trkpt lat="45.83225" lon="4.81084">
        <ele>373</ele>
        <time>2014-07-22T17:02:33Z</time>
      </trkpt>
      <trkpt lat="45.83215" lon="4.81081">
        <ele>381</ele>
        <time>2014-07-22T17:02:38Z</time>
      </trkpt>
      <trkpt lat="45.83211" lon="4.81081">
        <ele>381</ele>
        <time>2014-07-22T17:02:40Z</time>
      </trkpt>
      <trkpt lat="45.83206" lon="4.81081">
        <ele>381</ele>
        <time>2014-07-22T17:02:43Z</time>
      </trkpt>
      <trkpt lat="45.83196" lon="4.81078">
        <ele>381</ele>
        <time>2014-07-22T17:02:48Z</time>
      </trkpt>
      <trkpt lat="45.83194" lon="4.81078">
        <ele>381</ele>
        <time>2014-07-22T17:02:49Z</time>
      </trkpt>
      <trkpt lat="45.83181" lon="4.81074">
        <ele>379</ele>
        <time>2014-07-22T17:02:55Z</time>
      </trkpt>
      <trkpt lat="45.83174" lon="4.81073">
        <ele>379</ele>
        <time>2014-07-22T17:02:59Z</time>
      </trkpt>
      <trkpt lat="45.83169" lon="4.81071">
        <ele>379</ele>
        <time>2014-07-22T17:03:02Z</time>
      </trkpt>
      <trkpt lat="45.83158" lon="4.81059">
        <ele>384</ele>
        <time>2014-07-22T17:03:09Z</time>
      </trkpt>
      <trkpt lat="45.83157" lon="4.81057">
        <ele>384</ele>
        <time>2014-07-22T17:03:10Z</time>
      </trkpt>
      <trkpt lat="45.83152" lon="4.81048">
        <ele>386</ele>
        <time>2014-07-22T17:03:15Z</time>
      </trkpt>
      <trkpt lat="45.83148" lon="4.81036">
        <ele>387</ele>
        <time>2014-07-22T17:03:20Z</time>
      </trkpt>
      <trkpt lat="45.83147" lon="4.81033">
        <ele>388</ele>
        <time>2014-07-22T17:03:21Z</time>
      </trkpt>
      <trkpt lat="45.83143" lon="4.8102">
        <ele>389</ele>
        <time>2014-07-22T17:03:27Z</time>
      </trkpt>
      <trkpt lat="45.83142" lon="4.81019">
        <ele>389</ele>
        <time>2014-07-22T17:03:28Z</time>
      </trkpt>
      <trkpt lat="45.8314" lon="4.8101">
        <ele>390</ele>
        <time>2014-07-22T17:03:33Z</time>
      </trkpt>
      <trkpt lat="45.83142" lon="4.80996">
        <ele>399</ele>
        <time>2014-07-22T17:03:38Z</time>
      </trkpt>
      <trkpt lat="45.83145" lon="4.80985">
        <ele>399</ele>
        <time>2014-07-22T17:03:42Z</time>
      </trkpt>
      <trkpt lat="45.83145" lon="4.8098">
        <ele>400</ele>
        <time>2014-07-22T17:03:44Z</time>
      </trkpt>
      <trkpt lat="45.83144" lon="4.80977">
        <ele>400</ele>
        <time>2014-07-22T17:03:45Z</time>
      </trkpt>
      <trkpt lat="45.83144" lon="4.8097">
        <ele>401</ele>
        <time>2014-07-22T17:03:47Z</time>
      </trkpt>
      <trkpt lat="45.83144" lon="4.80967">
        <ele>402</ele>
        <time>2014-07-22T17:03:48Z</time>
      </trkpt>
      <trkpt lat="45.83147" lon="4.80961">
        <ele>402</ele>
        <time>2014-07-22T17:03:51Z</time>
      </trkpt>
      <trkpt lat="45.83149" lon="4.80961">
        <ele>402</ele>
        <time>2014-07-22T17:03:52Z</time>
      </trkpt>
      <trkpt lat="45.83152" lon="4.80959">
        <ele>402</ele>
        <time>2014-07-22T17:03:54Z</time>
      </trkpt>
      <trkpt lat="45.83156" lon="4.80951">
        <ele>403</ele>
        <time>2014-07-22T17:03:58Z</time>
      </trkpt>
      <trkpt lat="45.83157" lon="4.80947">
        <ele>403</ele>
        <time>2014-07-22T17:04:00Z</time>
      </trkpt>
      <trkpt lat="45.83162" lon="4.80942">
        <ele>404</ele>
        <time>2014-07-22T17:04:05Z</time>
      </trkpt>
      <trkpt lat="45.83163" lon="4.8094">
        <ele>404</ele>
        <time>2014-07-22T17:04:07Z</time>
      </trkpt>
      <trkpt lat="45.83166" lon="4.80933">
        <ele>404</ele>
        <time>2014-07-22T17:04:12Z</time>
      </trkpt>
      <trkpt lat="45.83167" lon="4.80931">
        <ele>402</ele>
        <time>2014-07-22T17:04:13Z</time>
      </trkpt>
      <trkpt lat="45.83167" lon="4.80928">
        <ele>403</ele>
        <time>2014-07-22T17:04:15Z</time>
      </trkpt>
      <trkpt lat="45.83167" lon="4.80924">
        <ele>403</ele>
        <time>2014-07-22T17:04:19Z</time>
      </trkpt>
      <trkpt lat="45.83167" lon="4.80921">
        <ele>405</ele>
        <time>2014-07-22T17:04:22Z</time>
      </trkpt>
      <trkpt lat="45.83167" lon="4.80919">
        <ele>404</ele>
        <time>2014-07-22T17:04:24Z</time>
      </trkpt>
      <trkpt lat="45.83168" lon="4.80917">
        <ele>405</ele>
        <time>2014-07-22T17:04:26Z</time>
      </trkpt>
      <trkpt lat="45.83168" lon="4.80914">
        <ele>406</ele>
        <time>2014-07-22T17:04:28Z</time>
      </trkpt>
      <trkpt lat="45.83169" lon="4.80912">
        <ele>406</ele>
        <time>2014-07-22T17:04:29Z</time>
      </trkpt>
      <trkpt lat="45.83171" lon="4.80907">
        <ele>407</ele>
        <time>2014-07-22T17:04:32Z</time>
      </trkpt>
      <trkpt lat="45.8317" lon="4.809">
        <ele>408</ele>
        <time>2014-07-22T17:04:36Z</time>
      </trkpt>
      <trkpt lat="45.83169" lon="4.80898">
        <ele>409</ele>
        <time>2014-07-22T17:04:38Z</time>
      </trkpt>
      <trkpt lat="45.83169" lon="4.80897">
        <ele>409</ele>
        <time>2014-07-22T17:04:39Z</time>
      </trkpt>
      <trkpt lat="45.83169" lon="4.80888">
        <ele>410</ele>
        <time>2014-07-22T17:04:45Z</time>
      </trkpt>
      <trkpt lat="45.83169" lon="4.80887">
        <ele>410</ele>
        <time>2014-07-22T17:04:46Z</time>
      </trkpt>
      <trkpt lat="45.83169" lon="4.80875">
        <ele>412</ele>
        <time>2014-07-22T17:04:56Z</time>
      </trkpt>
      <trkpt lat="45.83166" lon="4.80872">
        <ele>415</ele>
        <time>2014-07-22T17:05:00Z</time>
      </trkpt>
      <trkpt lat="45.83164" lon="4.80868">
        <ele>415</ele>
        <time>2014-07-22T17:05:04Z</time>
      </trkpt>
      <trkpt lat="45.83164" lon="4.80867">
        <ele>415</ele>
        <time>2014-07-22T17:05:05Z</time>
      </trkpt>
      <trkpt lat="45.83162" lon="4.80863">
        <ele>416</ele>
        <time>2014-07-22T17:05:10Z</time>
      </trkpt>
      <trkpt lat="45.83161" lon="4.80862">
        <ele>416</ele>
        <time>2014-07-22T17:05:11Z</time>
      </trkpt>
      <trkpt lat="45.83159" lon="4.80856">
        <ele>416</ele>
        <time>2014-07-22T17:05:15Z</time>
      </trkpt>
      <trkpt lat="45.83155" lon="4.80852">
        <ele>417</ele>
        <time>2014-07-22T17:05:18Z</time>
      </trkpt>
      <trkpt lat="45.83154" lon="4.80849">
        <ele>417</ele>
        <time>2014-07-22T17:05:20Z</time>
      </trkpt>
      <trkpt lat="45.83153" lon="4.80847">
        <ele>417</ele>
        <time>2014-07-22T17:05:22Z</time>
      </trkpt>
      <trkpt lat="45.83152" lon="4.80844">
        <ele>417</ele>
        <time>2014-07-22T17:05:24Z</time>
      </trkpt>
      <trkpt lat="45.83153" lon="4.80839">
        <ele>417</ele>
        <time>2014-07-22T17:05:27Z</time>
      </trkpt>
      <trkpt lat="45.83157" lon="4.80834">
        <ele>417</ele>
        <time>2014-07-22T17:05:30Z</time>
      </trkpt>
      <trkpt lat="45.83159" lon="4.80833">
        <ele>419</ele>
        <time>2014-07-22T17:05:31Z</time>
      </trkpt>
      <trkpt lat="45.83165" lon="4.80826">
        <ele>419</ele>
        <time>2014-07-22T17:05:36Z</time>
      </trkpt>
      <trkpt lat="45.83167" lon="4.80822">
        <ele>419</ele>
        <time>2014-07-22T17:05:38Z</time>
      </trkpt>
      <trkpt lat="45.83171" lon="4.80819">
        <ele>419</ele>
        <time>2014-07-22T17:05:42Z</time>
      </trkpt>
      <trkpt lat="45.83172" lon="4.80817">
        <ele>419</ele>
        <time>2014-07-22T17:05:43Z</time>
      </trkpt>
      <trkpt lat="45.83175" lon="4.80814">
        <ele>419</ele>
        <time>2014-07-22T17:05:47Z</time>
      </trkpt>
      <trkpt lat="45.83176" lon="4.80812">
        <ele>419</ele>
        <time>2014-07-22T17:05:49Z</time>
      </trkpt>
      <trkpt lat="45.83178" lon="4.80812">
        <ele>419</ele>
        <time>2014-07-22T17:05:50Z</time>
      </trkpt>
      <trkpt lat="45.83179" lon="4.80812">
        <ele>419</ele>
        <time>2014-07-22T17:05:51Z</time>
      </trkpt>
      <trkpt lat="45.83183" lon="4.80816">
        <ele>419</ele>
        <time>2014-07-22T17:05:54Z</time>
      </trkpt>
      <trkpt lat="45.83184" lon="4.80818">
        <ele>419</ele>
        <time>2014-07-22T17:05:55Z</time>
      </trkpt>
      <trkpt lat="45.83196" lon="4.80828">
        <ele>418</ele>
        <time>2014-07-22T17:06:01Z</time>
      </trkpt>
      <trkpt lat="45.83199" lon="4.8083">
        <ele>418</ele>
        <time>2014-07-22T17:06:05Z</time>
      </trkpt>
      <trkpt lat="45.832" lon="4.8083">
        <ele>418</ele>
        <time>2014-07-22T17:06:06Z</time>
      </trkpt>
      <trkpt lat="45.83211" lon="4.80827">
        <ele>418</ele>
        <time>2014-07-22T17:06:12Z</time>
      </trkpt>
      <trkpt lat="45.83215" lon="4.8082">
        <ele>418</ele>
        <time>2014-07-22T17:06:15Z</time>
      </trkpt>
      <trkpt lat="45.83217" lon="4.80816">
        <ele>418</ele>
        <time>2014-07-22T17:06:17Z</time>
      </trkpt>
      <trkpt lat="45.83223" lon="4.80805">
        <ele>418</ele>
        <time>2014-07-22T17:06:22Z</time>
      </trkpt>
      <trkpt lat="45.83224" lon="4.80804">
        <ele>418</ele>
        <time>2014-07-22T17:06:23Z</time>
      </trkpt>
      <trkpt lat="45.83226" lon="4.80799">
        <ele>419</ele>
        <time>2014-07-22T17:06:25Z</time>
      </trkpt>
      <trkpt lat="45.83227" lon="4.80797">
        <ele>419</ele>
        <time>2014-07-22T17:06:26Z</time>
      </trkpt>
      <trkpt lat="45.83227" lon="4.80795">
        <ele>419</ele>
        <time>2014-07-22T17:06:27Z</time>
      </trkpt>
      <trkpt lat="45.83231" lon="4.80789">
        <ele>419</ele>
        <time>2014-07-22T17:06:30Z</time>
      </trkpt>
      <trkpt lat="45.83232" lon="4.80786">
        <ele>419</ele>
        <time>2014-07-22T17:06:31Z</time>
      </trkpt>
      <trkpt lat="45.83239" lon="4.8078">
        <ele>419</ele>
        <time>2014-07-22T17:06:35Z</time>
      </trkpt>
      <trkpt lat="45.8324" lon="4.80779">
        <ele>419</ele>
        <time>2014-07-22T17:06:36Z</time>
      </trkpt>
      <trkpt lat="45.83243" lon="4.80779">
        <ele>419</ele>
        <time>2014-07-22T17:06:38Z</time>
      </trkpt>
      <trkpt lat="45.83245" lon="4.80778">
        <ele>419</ele>
        <time>2014-07-22T17:06:40Z</time>
      </trkpt>
      <trkpt lat="45.83246" lon="4.80778">
        <ele>419</ele>
        <time>2014-07-22T17:06:41Z</time>
      </trkpt>
      <trkpt lat="45.83252" lon="4.80778">
        <ele>420</ele>
        <time>2014-07-22T17:06:44Z</time>
      </trkpt>
      <trkpt lat="45.83255" lon="4.80779">
        <ele>420</ele>
        <time>2014-07-22T17:06:46Z</time>
      </trkpt>
      <trkpt lat="45.83257" lon="4.80777">
        <ele>420</ele>
        <time>2014-07-22T17:06:48Z</time>
      </trkpt>
      <trkpt lat="45.83257" lon="4.80776">
        <ele>420</ele>
        <time>2014-07-22T17:06:49Z</time>
      </trkpt>
      <trkpt lat="45.83258" lon="4.80772">
        <ele>420</ele>
        <time>2014-07-22T17:06:52Z</time>
      </trkpt>
      <trkpt lat="45.8326" lon="4.80769">
        <ele>420</ele>
        <time>2014-07-22T17:06:54Z</time>
      </trkpt>
      <trkpt lat="45.83264" lon="4.80768">
        <ele>420</ele>
        <time>2014-07-22T17:06:57Z</time>
      </trkpt>
      <trkpt lat="45.83267" lon="4.80768">
        <ele>420</ele>
        <time>2014-07-22T17:07:00Z</time>
      </trkpt>
      <trkpt lat="45.8327" lon="4.80764">
        <ele>420</ele>
        <time>2014-07-22T17:07:04Z</time>
      </trkpt>
      <trkpt lat="45.83271" lon="4.80762">
        <ele>420</ele>
        <time>2014-07-22T17:07:05Z</time>
      </trkpt>
      <trkpt lat="45.83277" lon="4.80751">
        <ele>421</ele>
        <time>2014-07-22T17:07:10Z</time>
      </trkpt>
      <trkpt lat="45.83279" lon="4.8075">
        <ele>421</ele>
        <time>2014-07-22T17:07:11Z</time>
      </trkpt>
      <trkpt lat="45.83278" lon="4.80744">
        <ele>422</ele>
        <time>2014-07-22T17:07:14Z</time>
      </trkpt>
      <trkpt lat="45.83279" lon="4.80741">
        <ele>422</ele>
        <time>2014-07-22T17:07:15Z</time>
      </trkpt>
      <trkpt lat="45.83281" lon="4.8073">
        <ele>422</ele>
        <time>2014-07-22T17:07:19Z</time>
      </trkpt>
      <trkpt lat="45.83281" lon="4.80728">
        <ele>422</ele>
        <time>2014-07-22T17:07:20Z</time>
      </trkpt>
      <trkpt lat="45.83283" lon="4.80725">
        <ele>423</ele>
        <time>2014-07-22T17:07:22Z</time>
      </trkpt>
      <trkpt lat="45.83285" lon="4.8072">
        <ele>423</ele>
        <time>2014-07-22T17:07:24Z</time>
      </trkpt>
      <trkpt lat="45.83288" lon="4.80715">
        <ele>423</ele>
        <time>2014-07-22T17:07:26Z</time>
      </trkpt>
      <trkpt lat="45.83291" lon="4.80714">
        <ele>423</ele>
        <time>2014-07-22T17:07:29Z</time>
      </trkpt>
      <trkpt lat="45.83297" lon="4.80715">
        <ele>423</ele>
        <time>2014-07-22T17:07:34Z</time>
      </trkpt>
      <trkpt lat="45.83303" lon="4.80712">
        <ele>423</ele>
        <time>2014-07-22T17:07:39Z</time>
      </trkpt>
      <trkpt lat="45.83305" lon="4.80711">
        <ele>424</ele>
        <time>2014-07-22T17:07:41Z</time>
      </trkpt>
      <trkpt lat="45.83306" lon="4.8071">
        <ele>424</ele>
        <time>2014-07-22T17:07:42Z</time>
      </trkpt>
      <trkpt lat="45.8331" lon="4.80707">
        <ele>424</ele>
        <time>2014-07-22T17:07:45Z</time>
      </trkpt>
      <trkpt lat="45.83312" lon="4.80707">
        <ele>424</ele>
        <time>2014-07-22T17:07:46Z</time>
      </trkpt>
      <trkpt lat="45.83317" lon="4.80708">
        <ele>424</ele>
        <time>2014-07-22T17:07:49Z</time>
      </trkpt>
      <trkpt lat="45.8332" lon="4.80708">
        <ele>424</ele>
        <time>2014-07-22T17:07:51Z</time>
      </trkpt>
      <trkpt lat="45.83323" lon="4.80706">
        <ele>424</ele>
        <time>2014-07-22T17:07:53Z</time>
      </trkpt>
      <trkpt lat="45.83325" lon="4.80705">
        <ele>424</ele>
        <time>2014-07-22T17:07:54Z</time>
      </trkpt>
      <trkpt lat="45.83334" lon="4.807">
        <ele>429</ele>
        <time>2014-07-22T17:07:59Z</time>
      </trkpt>
      <trkpt lat="45.83335" lon="4.80698">
        <ele>429</ele>
        <time>2014-07-22T17:08:00Z</time>
      </trkpt>
      <trkpt lat="45.83339" lon="4.80693">
        <ele>429</ele>
        <time>2014-07-22T17:08:03Z</time>
      </trkpt>
      <trkpt lat="45.83341" lon="4.8069">
        <ele>429</ele>
        <time>2014-07-22T17:08:05Z</time>
      </trkpt>
      <trkpt lat="45.83345" lon="4.80675">
        <ele>429</ele>
        <time>2014-07-22T17:08:11Z</time>
      </trkpt>
      <trkpt lat="45.83348" lon="4.8067">
        <ele>429</ele>
        <time>2014-07-22T17:08:13Z</time>
      </trkpt>
      <trkpt lat="45.8335" lon="4.8067">
        <ele>429</ele>
        <time>2014-07-22T17:08:14Z</time>
      </trkpt>
      <trkpt lat="45.83351" lon="4.80669">
        <ele>429</ele>
        <time>2014-07-22T17:08:15Z</time>
      </trkpt>
      <trkpt lat="45.83355" lon="4.80666">
        <ele>432</ele>
        <time>2014-07-22T17:08:18Z</time>
      </trkpt>
      <trkpt lat="45.83357" lon="4.80665">
        <ele>432</ele>
        <time>2014-07-22T17:08:20Z</time>
      </trkpt>
      <trkpt lat="45.83362" lon="4.80669">
        <ele>430</ele>
        <time>2014-07-22T17:08:25Z</time>
      </trkpt>
      <trkpt lat="45.83365" lon="4.80669">
        <ele>430</ele>
        <time>2014-07-22T17:08:27Z</time>
      </trkpt>
      <trkpt lat="45.83371" lon="4.80667">
        <ele>434</ele>
        <time>2014-07-22T17:08:31Z</time>
      </trkpt>
      <trkpt lat="45.83375" lon="4.80665">
        <ele>434</ele>
        <time>2014-07-22T17:08:33Z</time>
      </trkpt>
      <trkpt lat="45.83378" lon="4.80663">
        <ele>434</ele>
        <time>2014-07-22T17:08:36Z</time>
      </trkpt>
      <trkpt lat="45.83379" lon="4.80662">
        <ele>434</ele>
        <time>2014-07-22T17:08:38Z</time>
      </trkpt>
      <trkpt lat="45.8338" lon="4.80659">
        <ele>435</ele>
        <time>2014-07-22T17:08:44Z</time>
      </trkpt>
      <trkpt lat="45.83381" lon="4.80658">
        <ele>435</ele>
        <time>2014-07-22T17:08:50Z</time>
      </trkpt>
      <trkpt lat="45.83381" lon="4.80659">
        <ele>435</ele>
        <time>2014-07-22T17:08:51Z</time>
      </trkpt>
      <trkpt lat="45.8338" lon="4.80661">
        <ele>435</ele>
        <time>2014-07-22T17:08:53Z</time>
      </trkpt>
      <trkpt lat="45.83373" lon="4.80663">
        <ele>434</ele>
        <time>2014-07-22T17:08:59Z</time>
      </trkpt>
      <trkpt lat="45.8337" lon="4.80664">
        <ele>434</ele>
        <time>2014-07-22T17:09:01Z</time>
      </trkpt>
      <trkpt lat="45.83368" lon="4.80665">
        <ele>433</ele>
        <time>2014-07-22T17:09:03Z</time>
      </trkpt>
      <trkpt lat="45.83364" lon="4.80665">
        <ele>433</ele>
        <time>2014-07-22T17:09:06Z</time>
      </trkpt>
      <trkpt lat="45.83364" lon="4.80666">
        <ele>433</ele>
        <time>2014-07-22T17:09:07Z</time>
      </trkpt>
      <trkpt lat="45.83364" lon="4.80667">
        <ele>433</ele>
        <time>2014-07-22T17:09:08Z</time>
      </trkpt>
      <trkpt lat="45.83364" lon="4.8067">
        <ele>430</ele>
        <time>2014-07-22T17:09:12Z</time>
      </trkpt>
      <trkpt lat="45.83363" lon="4.8067">
        <ele>430</ele>
        <time>2014-07-22T17:09:13Z</time>
      </trkpt>
      <trkpt lat="45.83362" lon="4.80675">
        <ele>430</ele>
        <time>2014-07-22T17:09:18Z</time>
      </trkpt>
      <trkpt lat="45.83364" lon="4.80677">
        <ele>430</ele>
        <time>2014-07-22T17:09:25Z</time>
      </trkpt>
      <trkpt lat="45.83365" lon="4.80679">
        <ele>430</ele>
        <time>2014-07-22T17:09:29Z</time>
      </trkpt>
      <trkpt lat="45.83366" lon="4.80684">
        <ele>430</ele>
        <time>2014-07-22T17:09:31Z</time>
      </trkpt>
      <trkpt lat="45.83368" lon="4.80686">
        <ele>430</ele>
        <time>2014-07-22T17:09:32Z</time>
      </trkpt>
      <trkpt lat="45.83375" lon="4.80691">
        <ele>430</ele>
        <time>2014-07-22T17:09:35Z</time>
      </trkpt>
      <trkpt lat="45.83384" lon="4.80698">
        <ele>431</ele>
        <time>2014-07-22T17:09:39Z</time>
      </trkpt>
      <trkpt lat="45.83387" lon="4.80699">
        <ele>431</ele>
        <time>2014-07-22T17:09:40Z</time>
      </trkpt>
      <trkpt lat="45.83399" lon="4.80712">
        <ele>430</ele>
        <time>2014-07-22T17:09:46Z</time>
      </trkpt>
      <trkpt lat="45.83401" lon="4.80713">
        <ele>430</ele>
        <time>2014-07-22T17:09:47Z</time>
      </trkpt>
      <trkpt lat="45.83406" lon="4.80716">
        <ele>430</ele>
        <time>2014-07-22T17:09:50Z</time>
      </trkpt>
      <trkpt lat="45.83407" lon="4.80716">
        <ele>430</ele>
        <time>2014-07-22T17:09:51Z</time>
      </trkpt>
      <trkpt lat="45.83407" lon="4.80714">
        <ele>430</ele>
        <time>2014-07-22T17:09:59Z</time>
      </trkpt>
      <trkpt lat="45.83408" lon="4.80714">
        <ele>430</ele>
        <time>2014-07-22T17:10:06Z</time>
      </trkpt>
      <trkpt lat="45.8341" lon="4.80719">
        <ele>430</ele>
        <time>2014-07-22T17:10:09Z</time>
      </trkpt>
      <trkpt lat="45.8341" lon="4.80724">
        <ele>430</ele>
        <time>2014-07-22T17:10:12Z</time>
      </trkpt>
      <trkpt lat="45.83409" lon="4.80726">
        <ele>430</ele>
        <time>2014-07-22T17:10:14Z</time>
      </trkpt>
      <trkpt lat="45.83408" lon="4.80726">
        <ele>430</ele>
        <time>2014-07-22T17:10:15Z</time>
      </trkpt>
      <trkpt lat="45.83404" lon="4.80733">
        <ele>429</ele>
        <time>2014-07-22T17:10:18Z</time>
      </trkpt>
      <trkpt lat="45.83397" lon="4.8074">
        <ele>429</ele>
        <time>2014-07-22T17:10:22Z</time>
      </trkpt>
      <trkpt lat="45.83395" lon="4.80741">
        <ele>429</ele>
        <time>2014-07-22T17:10:23Z</time>
      </trkpt>
      <trkpt lat="45.83393" lon="4.80743">
        <ele>429</ele>
        <time>2014-07-22T17:10:24Z</time>
      </trkpt>
      <trkpt lat="45.83387" lon="4.80748">
        <ele>429</ele>
        <time>2014-07-22T17:10:27Z</time>
      </trkpt>
      <trkpt lat="45.83377" lon="4.80758">
        <ele>424</ele>
        <time>2014-07-22T17:10:32Z</time>
      </trkpt>
      <trkpt lat="45.83375" lon="4.80759">
        <ele>424</ele>
        <time>2014-07-22T17:10:33Z</time>
      </trkpt>
      <trkpt lat="45.83364" lon="4.80772">
        <ele>424</ele>
        <time>2014-07-22T17:10:38Z</time>
      </trkpt>
      <trkpt lat="45.83362" lon="4.80775">
        <ele>423</ele>
        <time>2014-07-22T17:10:39Z</time>
      </trkpt>
      <trkpt lat="45.83354" lon="4.80786">
        <ele>423</ele>
        <time>2014-07-22T17:10:43Z</time>
      </trkpt>
      <trkpt lat="45.83349" lon="4.80793">
        <ele>423</ele>
        <time>2014-07-22T17:10:47Z</time>
      </trkpt>
      <trkpt lat="45.83347" lon="4.80795">
        <ele>423</ele>
        <time>2014-07-22T17:10:48Z</time>
      </trkpt>
      <trkpt lat="45.83339" lon="4.80801">
        <ele>422</ele>
        <time>2014-07-22T17:10:52Z</time>
      </trkpt>
      <trkpt lat="45.83331" lon="4.80809">
        <ele>421</ele>
        <time>2014-07-22T17:10:56Z</time>
      </trkpt>
      <trkpt lat="45.83322" lon="4.80818">
        <ele>421</ele>
        <time>2014-07-22T17:11:00Z</time>
      </trkpt>
      <trkpt lat="45.83318" lon="4.80822">
        <ele>421</ele>
        <time>2014-07-22T17:11:02Z</time>
      </trkpt>
      <trkpt lat="45.83314" lon="4.80826">
        <ele>421</ele>
        <time>2014-07-22T17:11:04Z</time>
      </trkpt>
      <trkpt lat="45.83304" lon="4.80835">
        <ele>416</ele>
        <time>2014-07-22T17:11:08Z</time>
      </trkpt>
      <trkpt lat="45.83297" lon="4.80837">
        <ele>416</ele>
        <time>2014-07-22T17:11:11Z</time>
      </trkpt>
      <trkpt lat="45.83296" lon="4.80836">
        <ele>416</ele>
        <time>2014-07-22T17:11:12Z</time>
      </trkpt>
      <trkpt lat="45.83289" lon="4.80821">
        <ele>420</ele>
        <time>2014-07-22T17:11:17Z</time>
      </trkpt>
      <trkpt lat="45.83287" lon="4.80815">
        <ele>420</ele>
        <time>2014-07-22T17:11:19Z</time>
      </trkpt>
      <trkpt lat="45.83285" lon="4.80809">
        <ele>420</ele>
        <time>2014-07-22T17:11:21Z</time>
      </trkpt>
      <trkpt lat="45.83284" lon="4.80806">
        <ele>420</ele>
        <time>2014-07-22T17:11:22Z</time>
      </trkpt>
      <trkpt lat="45.83282" lon="4.80794">
        <ele>420</ele>
        <time>2014-07-22T17:11:26Z</time>
      </trkpt>
      <trkpt lat="45.83283" lon="4.80791">
        <ele>420</ele>
        <time>2014-07-22T17:11:27Z</time>
      </trkpt>
      <trkpt lat="45.8328" lon="4.80787">
        <ele>420</ele>
        <time>2014-07-22T17:11:31Z</time>
      </trkpt>
      <trkpt lat="45.83275" lon="4.80777">
        <ele>420</ele>
        <time>2014-07-22T17:11:36Z</time>
      </trkpt>
      <trkpt lat="45.83269" lon="4.80781">
        <ele>420</ele>
        <time>2014-07-22T17:11:40Z</time>
      </trkpt>
      <trkpt lat="45.83267" lon="4.80781">
        <ele>420</ele>
        <time>2014-07-22T17:11:41Z</time>
      </trkpt>
      <trkpt lat="45.83265" lon="4.8078">
        <ele>420</ele>
        <time>2014-07-22T17:11:42Z</time>
      </trkpt>
      <trkpt lat="45.83259" lon="4.80776">
        <ele>420</ele>
        <time>2014-07-22T17:11:45Z</time>
      </trkpt>
      <trkpt lat="45.83251" lon="4.80775">
        <ele>420</ele>
        <time>2014-07-22T17:11:49Z</time>
      </trkpt>
      <trkpt lat="45.83249" lon="4.80776">
        <ele>419</ele>
        <time>2014-07-22T17:11:50Z</time>
      </trkpt>
      <trkpt lat="45.83243" lon="4.8078">
        <ele>419</ele>
        <time>2014-07-22T17:11:53Z</time>
      </trkpt>
      <trkpt lat="45.8324" lon="4.80782">
        <ele>419</ele>
        <time>2014-07-22T17:11:54Z</time>
      </trkpt>
      <trkpt lat="45.83234" lon="4.80789">
        <ele>419</ele>
        <time>2014-07-22T17:11:57Z</time>
      </trkpt>
      <trkpt lat="45.83229" lon="4.80799">
        <ele>419</ele>
        <time>2014-07-22T17:12:00Z</time>
      </trkpt>
      <trkpt lat="45.83222" lon="4.80811">
        <ele>418</ele>
        <time>2014-07-22T17:12:04Z</time>
      </trkpt>
      <trkpt lat="45.83219" lon="4.80814">
        <ele>418</ele>
        <time>2014-07-22T17:12:05Z</time>
      </trkpt>
      <trkpt lat="45.83207" lon="4.80827">
        <ele>418</ele>
        <time>2014-07-22T17:12:10Z</time>
      </trkpt>
      <trkpt lat="45.83205" lon="4.80829">
        <ele>418</ele>
        <time>2014-07-22T17:12:11Z</time>
      </trkpt>
      <trkpt lat="45.83193" lon="4.80844">
        <ele>414</ele>
        <time>2014-07-22T17:12:17Z</time>
      </trkpt>
      <trkpt lat="45.83185" lon="4.80854">
        <ele>414</ele>
        <time>2014-07-22T17:12:22Z</time>
      </trkpt>
      <trkpt lat="45.83182" lon="4.8086">
        <ele>413</ele>
        <time>2014-07-22T17:12:25Z</time>
      </trkpt>
      <trkpt lat="45.8318" lon="4.80864">
        <ele>413</ele>
        <time>2014-07-22T17:12:27Z</time>
      </trkpt>
      <trkpt lat="45.83172" lon="4.80872">
        <ele>412</ele>
        <time>2014-07-22T17:12:31Z</time>
      </trkpt>
      <trkpt lat="45.83169" lon="4.80873">
        <ele>412</ele>
        <time>2014-07-22T17:12:32Z</time>
      </trkpt>
      <trkpt lat="45.83167" lon="4.80877">
        <ele>411</ele>
        <time>2014-07-22T17:12:34Z</time>
      </trkpt>
      <trkpt lat="45.83168" lon="4.80881">
        <ele>411</ele>
        <time>2014-07-22T17:12:35Z</time>
      </trkpt>
      <trkpt lat="45.83173" lon="4.80895">
        <ele>409</ele>
        <time>2014-07-22T17:12:40Z</time>
      </trkpt>
      <trkpt lat="45.83173" lon="4.80899">
        <ele>409</ele>
        <time>2014-07-22T17:12:41Z</time>
      </trkpt>
      <trkpt lat="45.83171" lon="4.80905">
        <ele>408</ele>
        <time>2014-07-22T17:12:43Z</time>
      </trkpt>
      <trkpt lat="45.83166" lon="4.80926">
        <ele>405</ele>
        <time>2014-07-22T17:12:48Z</time>
      </trkpt>
      <trkpt lat="45.83167" lon="4.80932">
        <ele>404</ele>
        <time>2014-07-22T17:12:50Z</time>
      </trkpt>
      <trkpt lat="45.83165" lon="4.8094">
        <ele>404</ele>
        <time>2014-07-22T17:12:52Z</time>
      </trkpt>
      <trkpt lat="45.8316" lon="4.80956">
        <ele>402</ele>
        <time>2014-07-22T17:12:57Z</time>
      </trkpt>
      <trkpt lat="45.83157" lon="4.80958">
        <ele>402</ele>
        <time>2014-07-22T17:12:58Z</time>
      </trkpt>
      <trkpt lat="45.83145" lon="4.80969">
        <ele>401</ele>
        <time>2014-07-22T17:13:03Z</time>
      </trkpt>
      <trkpt lat="45.8314" lon="4.80972">
        <ele>402</ele>
        <time>2014-07-22T17:13:05Z</time>
      </trkpt>
      <trkpt lat="45.83135" lon="4.80975">
        <ele>402</ele>
        <time>2014-07-22T17:13:07Z</time>
      </trkpt>
      <trkpt lat="45.83126" lon="4.80979">
        <ele>403</ele>
        <time>2014-07-22T17:13:11Z</time>
      </trkpt>
      <trkpt lat="45.8312" lon="4.80981">
        <ele>403</ele>
        <time>2014-07-22T17:13:13Z</time>
      </trkpt>
      <trkpt lat="45.83118" lon="4.8098">
        <ele>403</ele>
        <time>2014-07-22T17:13:14Z</time>
      </trkpt>
      <trkpt lat="45.83112" lon="4.80983">
        <ele>404</ele>
        <time>2014-07-22T17:13:17Z</time>
      </trkpt>
      <trkpt lat="45.83103" lon="4.80992">
        <ele>404</ele>
        <time>2014-07-22T17:13:22Z</time>
      </trkpt>
      <trkpt lat="45.83102" lon="4.80995">
        <ele>404</ele>
        <time>2014-07-22T17:13:23Z</time>
      </trkpt>
      <trkpt lat="45.83094" lon="4.81006">
        <ele>398</ele>
        <time>2014-07-22T17:13:28Z</time>
      </trkpt>
      <trkpt lat="45.8309" lon="4.81012">
        <ele>397</ele>
        <time>2014-07-22T17:13:31Z</time>
      </trkpt>
      <trkpt lat="45.83085" lon="4.81018">
        <ele>396</ele>
        <time>2014-07-22T17:13:34Z</time>
      </trkpt>
      <trkpt lat="45.83078" lon="4.81032">
        <ele>401</ele>
        <time>2014-07-22T17:13:40Z</time>
      </trkpt>
      <trkpt lat="45.83069" lon="4.81046">
        <ele>400</ele>
        <time>2014-07-22T17:13:47Z</time>
      </trkpt>
      <trkpt lat="45.83066" lon="4.8105">
        <ele>399</ele>
        <time>2014-07-22T17:13:49Z</time>
      </trkpt>
      <trkpt lat="45.83064" lon="4.81051">
        <ele>399</ele>
        <time>2014-07-22T17:13:50Z</time>
      </trkpt>
      <trkpt lat="45.83059" lon="4.81051">
        <ele>400</ele>
        <time>2014-07-22T17:13:52Z</time>
      </trkpt>
      <trkpt lat="45.83047" lon="4.81052">
        <ele>401</ele>
        <time>2014-07-22T17:13:58Z</time>
      </trkpt>
      <trkpt lat="45.83042" lon="4.81054">
        <ele>401</ele>
        <time>2014-07-22T17:14:01Z</time>
      </trkpt>
      <trkpt lat="45.8304" lon="4.81053">
        <ele>402</ele>
        <time>2014-07-22T17:14:02Z</time>
      </trkpt>
      <trkpt lat="45.83031" lon="4.81056">
        <ele>402</ele>
        <time>2014-07-22T17:14:07Z</time>
      </trkpt>
      <trkpt lat="45.83028" lon="4.81057">
        <ele>403</ele>
        <time>2014-07-22T17:14:09Z</time>
      </trkpt>
      <trkpt lat="45.83023" lon="4.81061">
        <ele>403</ele>
        <time>2014-07-22T17:14:12Z</time>
      </trkpt>
      <trkpt lat="45.83015" lon="4.81068">
        <ele>403</ele>
        <time>2014-07-22T17:14:17Z</time>
      </trkpt>
      <trkpt lat="45.83014" lon="4.81068">
        <ele>403</ele>
        <time>2014-07-22T17:14:18Z</time>
      </trkpt>
      <trkpt lat="45.83012" lon="4.81069">
        <ele>403</ele>
        <time>2014-07-22T17:14:20Z</time>
      </trkpt>
      <trkpt lat="45.83009" lon="4.81071">
        <ele>403</ele>
        <time>2014-07-22T17:14:22Z</time>
      </trkpt>
      <trkpt lat="45.82999" lon="4.81077">
        <ele>405</ele>
        <time>2014-07-22T17:14:27Z</time>
      </trkpt>
      <trkpt lat="45.82995" lon="4.81078">
        <ele>406</ele>
        <time>2014-07-22T17:14:30Z</time>
      </trkpt>
      <trkpt lat="45.82992" lon="4.81079">
        <ele>406</ele>
        <time>2014-07-22T17:14:32Z</time>
      </trkpt>
      <trkpt lat="45.82984" lon="4.81083">
        <ele>407</ele>
        <time>2014-07-22T17:14:36Z</time>
      </trkpt>
      <trkpt lat="45.82982" lon="4.81084">
        <ele>402</ele>
        <time>2014-07-22T17:14:37Z</time>
      </trkpt>
      <trkpt lat="45.82978" lon="4.81087">
        <ele>401</ele>
        <time>2014-07-22T17:14:40Z</time>
      </trkpt>
      <trkpt lat="45.82976" lon="4.81088">
        <ele>401</ele>
        <time>2014-07-22T17:14:41Z</time>
      </trkpt>
      <trkpt lat="45.82971" lon="4.81092">
        <ele>401</ele>
        <time>2014-07-22T17:14:44Z</time>
      </trkpt>
      <trkpt lat="45.82968" lon="4.81093">
        <ele>401</ele>
        <time>2014-07-22T17:14:47Z</time>
      </trkpt>
      <trkpt lat="45.82964" lon="4.81094">
        <ele>401</ele>
        <time>2014-07-22T17:14:50Z</time>
      </trkpt>
      <trkpt lat="45.8296" lon="4.81095">
        <ele>401</ele>
        <time>2014-07-22T17:14:53Z</time>
      </trkpt>
      <trkpt lat="45.82952" lon="4.81097">
        <ele>402</ele>
        <time>2014-07-22T17:14:58Z</time>
      </trkpt>
      <trkpt lat="45.82951" lon="4.81097">
        <ele>402</ele>
        <time>2014-07-22T17:14:59Z</time>
      </trkpt>
      <trkpt lat="45.82941" lon="4.81098">
        <ele>403</ele>
        <time>2014-07-22T17:15:04Z</time>
      </trkpt>
      <trkpt lat="45.82938" lon="4.81099">
        <ele>403</ele>
        <time>2014-07-22T17:15:06Z</time>
      </trkpt>
      <trkpt lat="45.82933" lon="4.81101">
        <ele>404</ele>
        <time>2014-07-22T17:15:09Z</time>
      </trkpt>
      <trkpt lat="45.82925" lon="4.81102">
        <ele>404</ele>
        <time>2014-07-22T17:15:13Z</time>
      </trkpt>
      <trkpt lat="45.82921" lon="4.81102">
        <ele>404</ele>
        <time>2014-07-22T17:15:15Z</time>
      </trkpt>
      <trkpt lat="45.82917" lon="4.81105">
        <ele>408</ele>
        <time>2014-07-22T17:15:18Z</time>
      </trkpt>
      <trkpt lat="45.82916" lon="4.81107">
        <ele>408</ele>
        <time>2014-07-22T17:15:19Z</time>
      </trkpt>
      <trkpt lat="45.82917" lon="4.81116">
        <ele>403</ele>
        <time>2014-07-22T17:15:24Z</time>
      </trkpt>
      <trkpt lat="45.8292" lon="4.81121">
        <ele>402</ele>
        <time>2014-07-22T17:15:27Z</time>
      </trkpt>
      <trkpt lat="45.82922" lon="4.81124">
        <ele>402</ele>
        <time>2014-07-22T17:15:29Z</time>
      </trkpt>
      <trkpt lat="45.82925" lon="4.8113">
        <ele>402</ele>
        <time>2014-07-22T17:15:34Z</time>
      </trkpt>
      <trkpt lat="45.82926" lon="4.81136">
        <ele>401</ele>
        <time>2014-07-22T17:15:37Z</time>
      </trkpt>
      <trkpt lat="45.82925" lon="4.8114">
        <ele>402</ele>
        <time>2014-07-22T17:15:38Z</time>
      </trkpt>
      <trkpt lat="45.82923" lon="4.81144">
        <ele>402</ele>
        <time>2014-07-22T17:15:40Z</time>
      </trkpt>
      <trkpt lat="45.82926" lon="4.81146">
        <ele>402</ele>
        <time>2014-07-22T17:15:42Z</time>
      </trkpt>
      <trkpt lat="45.82929" lon="4.81147">
        <ele>401</ele>
        <time>2014-07-22T17:15:43Z</time>
      </trkpt>
      <trkpt lat="45.82941" lon="4.81143">
        <ele>400</ele>
        <time>2014-07-22T17:15:48Z</time>
      </trkpt>
      <trkpt lat="45.82944" lon="4.81142">
        <ele>400</ele>
        <time>2014-07-22T17:15:49Z</time>
      </trkpt>
      <trkpt lat="45.82953" lon="4.81139">
        <ele>399</ele>
        <time>2014-07-22T17:15:52Z</time>
      </trkpt>
      <trkpt lat="45.82955" lon="4.81138">
        <ele>399</ele>
        <time>2014-07-22T17:15:53Z</time>
      </trkpt>
      <trkpt lat="45.8296" lon="4.81134">
        <ele>398</ele>
        <time>2014-07-22T17:15:55Z</time>
      </trkpt>
      <trkpt lat="45.82968" lon="4.8113">
        <ele>398</ele>
        <time>2014-07-22T17:15:59Z</time>
      </trkpt>
      <trkpt lat="45.82976" lon="4.81128">
        <ele>397</ele>
        <time>2014-07-22T17:16:05Z</time>
      </trkpt>
      <trkpt lat="45.82978" lon="4.81129">
        <ele>397</ele>
        <time>2014-07-22T17:16:06Z</time>
      </trkpt>
      <trkpt lat="45.82987" lon="4.81123">
        <ele>397</ele>
        <time>2014-07-22T17:16:11Z</time>
      </trkpt>
      <trkpt lat="45.82995" lon="4.81119">
        <ele>398</ele>
        <time>2014-07-22T17:16:16Z</time>
      </trkpt>
      <trkpt lat="45.82997" lon="4.81119">
        <ele>398</ele>
        <time>2014-07-22T17:16:17Z</time>
      </trkpt>
      <trkpt lat="45.82999" lon="4.81118">
        <ele>398</ele>
        <time>2014-07-22T17:16:18Z</time>
      </trkpt>
      <trkpt lat="45.83011" lon="4.81116">
        <ele>388</ele>
        <time>2014-07-22T17:16:23Z</time>
      </trkpt>
      <trkpt lat="45.8302" lon="4.81116">
        <ele>387</ele>
        <time>2014-07-22T17:16:25Z</time>
      </trkpt>
      <trkpt lat="45.83026" lon="4.81117">
        <ele>387</ele>
        <time>2014-07-22T17:16:28Z</time>
      </trkpt>
      <trkpt lat="45.83033" lon="4.81123">
        <ele>385</ele>
        <time>2014-07-22T17:16:32Z</time>
      </trkpt>
      <trkpt lat="45.8304" lon="4.81126">
        <ele>384</ele>
        <time>2014-07-22T17:16:36Z</time>
      </trkpt>
      <trkpt lat="45.83044" lon="4.81131">
        <ele>383</ele>
        <time>2014-07-22T17:16:40Z</time>
      </trkpt>
      <trkpt lat="45.83049" lon="4.81136">
        <ele>382</ele>
        <time>2014-07-22T17:16:43Z</time>
      </trkpt>
      <trkpt lat="45.83051" lon="4.81139">
        <ele>381</ele>
        <time>2014-07-22T17:16:44Z</time>
      </trkpt>
      <trkpt lat="45.83057" lon="4.81143">
        <ele>380</ele>
        <time>2014-07-22T17:16:46Z</time>
      </trkpt>
      <trkpt lat="45.83061" lon="4.81147">
        <ele>379</ele>
        <time>2014-07-22T17:16:48Z</time>
      </trkpt>
      <trkpt lat="45.83066" lon="4.8115">
        <ele>377</ele>
        <time>2014-07-22T17:16:52Z</time>
      </trkpt>
      <trkpt lat="45.83069" lon="4.81152">
        <ele>376</ele>
        <time>2014-07-22T17:16:53Z</time>
      </trkpt>
      <trkpt lat="45.83074" lon="4.81156">
        <ele>374</ele>
        <time>2014-07-22T17:16:55Z</time>
      </trkpt>
      <trkpt lat="45.83079" lon="4.81158">
        <ele>372</ele>
        <time>2014-07-22T17:16:57Z</time>
      </trkpt>
      <trkpt lat="45.83081" lon="4.81159">
        <ele>371</ele>
        <time>2014-07-22T17:16:59Z</time>
      </trkpt>
      <trkpt lat="45.83085" lon="4.8117">
        <ele>365</ele>
        <time>2014-07-22T17:17:04Z</time>
      </trkpt>
      <trkpt lat="45.83087" lon="4.81175">
        <ele>363</ele>
        <time>2014-07-22T17:17:06Z</time>
      </trkpt>
      <trkpt lat="45.83089" lon="4.81183">
        <ele>360</ele>
        <time>2014-07-22T17:17:09Z</time>
      </trkpt>
      <trkpt lat="45.83089" lon="4.81188">
        <ele>358</ele>
        <time>2014-07-22T17:17:11Z</time>
      </trkpt>
      <trkpt lat="45.83088" lon="4.812">
        <ele>355</ele>
        <time>2014-07-22T17:17:16Z</time>
      </trkpt>
      <trkpt lat="45.83088" lon="4.81211">
        <ele>353</ele>
        <time>2014-07-22T17:17:21Z</time>
      </trkpt>
      <trkpt lat="45.83087" lon="4.81223">
        <ele>350</ele>
        <time>2014-07-22T17:17:26Z</time>
      </trkpt>
      <trkpt lat="45.83087" lon="4.81226">
        <ele>349</ele>
        <time>2014-07-22T17:17:27Z</time>
      </trkpt>
      <trkpt lat="45.83089" lon="4.81243">
        <ele>344</ele>
        <time>2014-07-22T17:17:32Z</time>
      </trkpt>
      <trkpt lat="45.8309" lon="4.81255">
        <ele>338</ele>
        <time>2014-07-22T17:17:35Z</time>
      </trkpt>
      <trkpt lat="45.83089" lon="4.81266">
        <ele>336</ele>
        <time>2014-07-22T17:17:38Z</time>
      </trkpt>
      <trkpt lat="45.83086" lon="4.81274">
        <ele>335</ele>
        <time>2014-07-22T17:17:41Z</time>
      </trkpt>
      <trkpt lat="45.83085" lon="4.81277">
        <ele>335</ele>
        <time>2014-07-22T17:17:42Z</time>
      </trkpt>
      <trkpt lat="45.83084" lon="4.8128">
        <ele>334</ele>
        <time>2014-07-22T17:17:43Z</time>
      </trkpt>
      <trkpt lat="45.83084" lon="4.81288">
        <ele>333</ele>
        <time>2014-07-22T17:17:45Z</time>
      </trkpt>
      <trkpt lat="45.83083" lon="4.81292">
        <ele>332</ele>
        <time>2014-07-22T17:17:46Z</time>
      </trkpt>
      <trkpt lat="45.83079" lon="4.81303">
        <ele>329</ele>
        <time>2014-07-22T17:17:51Z</time>
      </trkpt>
      <trkpt lat="45.83079" lon="4.81306">
        <ele>328</ele>
        <time>2014-07-22T17:17:52Z</time>
      </trkpt>
      <trkpt lat="45.83084" lon="4.81317">
        <ele>326</ele>
        <time>2014-07-22T17:17:56Z</time>
      </trkpt>
      <trkpt lat="45.83089" lon="4.81329">
        <ele>323</ele>
        <time>2014-07-22T17:18:01Z</time>
      </trkpt>
      <trkpt lat="45.8309" lon="4.81332">
        <ele>322</ele>
        <time>2014-07-22T17:18:02Z</time>
      </trkpt>
      <trkpt lat="45.83091" lon="4.81339">
        <ele>318</ele>
        <time>2014-07-22T17:18:05Z</time>
      </trkpt>
      <trkpt lat="45.83089" lon="4.81344">
        <ele>318</ele>
        <time>2014-07-22T17:18:07Z</time>
      </trkpt>
      <trkpt lat="45.83088" lon="4.81348">
        <ele>317</ele>
        <time>2014-07-22T17:18:10Z</time>
      </trkpt>
      <trkpt lat="45.83089" lon="4.81349">
        <ele>317</ele>
        <time>2014-07-22T17:18:11Z</time>
      </trkpt>
      <trkpt lat="45.83087" lon="4.81355">
        <ele>317</ele>
        <time>2014-07-22T17:18:14Z</time>
      </trkpt>
      <trkpt lat="45.8308" lon="4.81369">
        <ele>316</ele>
        <time>2014-07-22T17:18:19Z</time>
      </trkpt>
      <trkpt lat="45.83079" lon="4.81372">
        <ele>315</ele>
        <time>2014-07-22T17:18:20Z</time>
      </trkpt>
      <trkpt lat="45.83078" lon="4.81374">
        <ele>315</ele>
        <time>2014-07-22T17:18:21Z</time>
      </trkpt>
      <trkpt lat="45.83075" lon="4.81376">
        <ele>315</ele>
        <time>2014-07-22T17:18:23Z</time>
      </trkpt>
      <trkpt lat="45.83073" lon="4.81377">
        <ele>315</ele>
        <time>2014-07-22T17:18:24Z</time>
      </trkpt>
      <trkpt lat="45.8307" lon="4.81367">
        <ele>316</ele>
        <time>2014-07-22T17:18:28Z</time>
      </trkpt>
      <trkpt lat="45.83068" lon="4.81357">
        <ele>317</ele>
        <time>2014-07-22T17:18:33Z</time>
      </trkpt>
      <trkpt lat="45.83068" lon="4.81355">
        <ele>317</ele>
        <time>2014-07-22T17:18:34Z</time>
      </trkpt>
      <trkpt lat="45.83064" lon="4.81343">
        <ele>318</ele>
        <time>2014-07-22T17:18:40Z</time>
      </trkpt>
      <trkpt lat="45.83058" lon="4.81333">
        <ele>326</ele>
        <time>2014-07-22T17:18:45Z</time>
      </trkpt>
      <trkpt lat="45.83057" lon="4.81331">
        <ele>327</ele>
        <time>2014-07-22T17:18:46Z</time>
      </trkpt>
      <trkpt lat="45.83048" lon="4.8132">
        <ele>328</ele>
        <time>2014-07-22T17:18:53Z</time>
      </trkpt>
      <trkpt lat="45.83044" lon="4.81317">
        <ele>329</ele>
        <time>2014-07-22T17:18:56Z</time>
      </trkpt>
      <trkpt lat="45.8304" lon="4.81315">
        <ele>329</ele>
        <time>2014-07-22T17:18:58Z</time>
      </trkpt>
      <trkpt lat="45.8303" lon="4.81307">
        <ele>330</ele>
        <time>2014-07-22T17:19:05Z</time>
      </trkpt>
      <trkpt lat="45.83028" lon="4.81305">
        <ele>330</ele>
        <time>2014-07-22T17:19:07Z</time>
      </trkpt>
      <trkpt lat="45.83021" lon="4.81295">
        <ele>332</ele>
        <time>2014-07-22T17:19:13Z</time>
      </trkpt>
      <trkpt lat="45.83014" lon="4.81286">
        <ele>333</ele>
        <time>2014-07-22T17:19:19Z</time>
      </trkpt>
      <trkpt lat="45.83012" lon="4.81285">
        <ele>334</ele>
        <time>2014-07-22T17:19:21Z</time>
      </trkpt>
      <trkpt lat="45.83011" lon="4.81287">
        <ele>333</ele>
        <time>2014-07-22T17:19:23Z</time>
      </trkpt>
      <trkpt lat="45.83009" lon="4.81293">
        <ele>332</ele>
        <time>2014-07-22T17:19:26Z</time>
      </trkpt>
      <trkpt lat="45.83006" lon="4.81299">
        <ele>331</ele>
        <time>2014-07-22T17:19:29Z</time>
      </trkpt>
      <trkpt lat="45.83001" lon="4.81298">
        <ele>331</ele>
        <time>2014-07-22T17:19:32Z</time>
      </trkpt>
      <trkpt lat="45.82999" lon="4.81298">
        <ele>347</ele>
        <time>2014-07-22T17:19:33Z</time>
      </trkpt>
      <trkpt lat="45.82997" lon="4.81299">
        <ele>347</ele>
        <time>2014-07-22T17:19:34Z</time>
      </trkpt>
      <trkpt lat="45.82995" lon="4.81301">
        <ele>347</ele>
        <time>2014-07-22T17:19:36Z</time>
      </trkpt>
      <trkpt lat="45.82988" lon="4.81308">
        <ele>346</ele>
        <time>2014-07-22T17:19:41Z</time>
      </trkpt>
      <trkpt lat="45.82984" lon="4.81314">
        <ele>346</ele>
        <time>2014-07-22T17:19:45Z</time>
      </trkpt>
      <trkpt lat="45.82983" lon="4.81316">
        <ele>345</ele>
        <time>2014-07-22T17:19:46Z</time>
      </trkpt>
      <trkpt lat="45.82975" lon="4.81325">
        <ele>347</ele>
        <time>2014-07-22T17:19:52Z</time>
      </trkpt>
      <trkpt lat="45.82973" lon="4.81328">
        <ele>348</ele>
        <time>2014-07-22T17:19:57Z</time>
      </trkpt>
      <trkpt lat="45.82973" lon="4.8133">
        <ele>348</ele>
        <time>2014-07-22T17:19:58Z</time>
      </trkpt>
      <trkpt lat="45.82971" lon="4.81334">
        <ele>340</ele>
        <time>2014-07-22T17:20:03Z</time>
      </trkpt>
      <trkpt lat="45.82971" lon="4.81334">
        <ele>341</ele>
        <time>2014-07-22T17:20:04Z</time>
      </trkpt>
      <trkpt lat="45.8297" lon="4.81336">
        <ele>341</ele>
        <time>2014-07-22T17:20:06Z</time>
      </trkpt>
      <trkpt lat="45.82968" lon="4.81339">
        <ele>342</ele>
        <time>2014-07-22T17:20:08Z</time>
      </trkpt>
      <trkpt lat="45.82966" lon="4.81342">
        <ele>343</ele>
        <time>2014-07-22T17:20:10Z</time>
      </trkpt>
      <trkpt lat="45.82964" lon="4.81345">
        <ele>343</ele>
        <time>2014-07-22T17:20:12Z</time>
      </trkpt>
      <trkpt lat="45.82963" lon="4.81346">
        <ele>344</ele>
        <time>2014-07-22T17:20:13Z</time>
      </trkpt>
      <trkpt lat="45.82959" lon="4.81352">
        <ele>345</ele>
        <time>2014-07-22T17:20:17Z</time>
      </trkpt>
      <trkpt lat="45.82958" lon="4.81353">
        <ele>345</ele>
        <time>2014-07-22T17:20:18Z</time>
      </trkpt>
      <trkpt lat="45.82952" lon="4.81363">
        <ele>347</ele>
        <time>2014-07-22T17:20:24Z</time>
      </trkpt>
      <trkpt lat="45.82946" lon="4.81371">
        <ele>348</ele>
        <time>2014-07-22T17:20:31Z</time>
      </trkpt>
      <trkpt lat="45.82945" lon="4.81373">
        <ele>348</ele>
        <time>2014-07-22T17:20:32Z</time>
      </trkpt>
      <trkpt lat="45.82941" lon="4.81379">
        <ele>349</ele>
        <time>2014-07-22T17:20:37Z</time>
      </trkpt>
      <trkpt lat="45.82937" lon="4.81384">
        <ele>349</ele>
        <time>2014-07-22T17:20:43Z</time>
      </trkpt>
      <trkpt lat="45.82935" lon="4.81385">
        <ele>350</ele>
        <time>2014-07-22T17:20:44Z</time>
      </trkpt>
      <trkpt lat="45.82932" lon="4.8139">
        <ele>350</ele>
        <time>2014-07-22T17:20:49Z</time>
      </trkpt>
      <trkpt lat="45.82932" lon="4.81392">
        <ele>351</ele>
        <time>2014-07-22T17:20:50Z</time>
      </trkpt>
      <trkpt lat="45.82931" lon="4.81393">
        <ele>351</ele>
        <time>2014-07-22T17:20:51Z</time>
      </trkpt>
      <trkpt lat="45.8293" lon="4.81396">
        <ele>351</ele>
        <time>2014-07-22T17:20:54Z</time>
      </trkpt>
      <trkpt lat="45.82929" lon="4.81397">
        <ele>352</ele>
        <time>2014-07-22T17:20:55Z</time>
      </trkpt>
      <trkpt lat="45.82927" lon="4.81402">
        <ele>353</ele>
        <time>2014-07-22T17:20:59Z</time>
      </trkpt>
      <trkpt lat="45.82925" lon="4.81403">
        <ele>354</ele>
        <time>2014-07-22T17:21:01Z</time>
      </trkpt>
      <trkpt lat="45.8292" lon="4.81408">
        <ele>356</ele>
        <time>2014-07-22T17:21:05Z</time>
      </trkpt>
      <trkpt lat="45.8292" lon="4.8141">
        <ele>357</ele>
        <time>2014-07-22T17:21:06Z</time>
      </trkpt>
      <trkpt lat="45.82918" lon="4.81414">
        <ele>359</ele>
        <time>2014-07-22T17:21:10Z</time>
      </trkpt>
      <trkpt lat="45.82916" lon="4.81416">
        <ele>362</ele>
        <time>2014-07-22T17:21:12Z</time>
      </trkpt>
      <trkpt lat="45.82912" lon="4.81419">
        <ele>365</ele>
        <time>2014-07-22T17:21:17Z</time>
      </trkpt>
      <trkpt lat="45.8291" lon="4.81421">
        <ele>366</ele>
        <time>2014-07-22T17:21:19Z</time>
      </trkpt>
      <trkpt lat="45.82906" lon="4.81426">
        <ele>370</ele>
        <time>2014-07-22T17:21:25Z</time>
      </trkpt>
      <trkpt lat="45.82904" lon="4.81431">
        <ele>372</ele>
        <time>2014-07-22T17:21:29Z</time>
      </trkpt>
      <trkpt lat="45.82906" lon="4.81437">
        <ele>372</ele>
        <time>2014-07-22T17:21:32Z</time>
      </trkpt>
      <trkpt lat="45.82907" lon="4.81441">
        <ele>373</ele>
        <time>2014-07-22T17:21:34Z</time>
      </trkpt>
      <trkpt lat="45.82906" lon="4.81443">
        <ele>373</ele>
        <time>2014-07-22T17:21:35Z</time>
      </trkpt>
      <trkpt lat="45.82905" lon="4.8145">
        <ele>374</ele>
        <time>2014-07-22T17:21:41Z</time>
      </trkpt>
      <trkpt lat="45.82904" lon="4.81452">
        <ele>374</ele>
        <time>2014-07-22T17:21:43Z</time>
      </trkpt>
      <trkpt lat="45.829" lon="4.81455">
        <ele>375</ele>
        <time>2014-07-22T17:21:47Z</time>
      </trkpt>
      <trkpt lat="45.82898" lon="4.81457">
        <ele>376</ele>
        <time>2014-07-22T17:21:49Z</time>
      </trkpt>
      <trkpt lat="45.82896" lon="4.81461">
        <ele>376</ele>
        <time>2014-07-22T17:21:53Z</time>
      </trkpt>
      <trkpt lat="45.82896" lon="4.81462">
        <ele>376</ele>
        <time>2014-07-22T17:21:54Z</time>
      </trkpt>
      <trkpt lat="45.82893" lon="4.81465">
        <ele>376</ele>
        <time>2014-07-22T17:21:58Z</time>
      </trkpt>
      <trkpt lat="45.8289" lon="4.81467">
        <ele>377</ele>
        <time>2014-07-22T17:22:00Z</time>
      </trkpt>
      <trkpt lat="45.82889" lon="4.81468">
        <ele>377</ele>
        <time>2014-07-22T17:22:02Z</time>
      </trkpt>
      <trkpt lat="45.82888" lon="4.81469">
        <ele>377</ele>
        <time>2014-07-22T17:22:03Z</time>
      </trkpt>
      <trkpt lat="45.82887" lon="4.81473">
        <ele>377</ele>
        <time>2014-07-22T17:22:07Z</time>
      </trkpt>
      <trkpt lat="45.82881" lon="4.81476">
        <ele>379</ele>
        <time>2014-07-22T17:22:11Z</time>
      </trkpt>
      <trkpt lat="45.82878" lon="4.8148">
        <ele>379</ele>
        <time>2014-07-22T17:22:14Z</time>
      </trkpt>
      <trkpt lat="45.82876" lon="4.81486">
        <ele>380</ele>
        <time>2014-07-22T17:22:19Z</time>
      </trkpt>
      <trkpt lat="45.82874" lon="4.81489">
        <ele>380</ele>
        <time>2014-07-22T17:22:21Z</time>
      </trkpt>
      <trkpt lat="45.82872" lon="4.81498">
        <ele>381</ele>
        <time>2014-07-22T17:22:27Z</time>
      </trkpt>
      <trkpt lat="45.82873" lon="4.815">
        <ele>381</ele>
        <time>2014-07-22T17:22:28Z</time>
      </trkpt>
      <trkpt lat="45.82871" lon="4.81506">
        <ele>383</ele>
        <time>2014-07-22T17:22:31Z</time>
      </trkpt>
      <trkpt lat="45.8287" lon="4.8151">
        <ele>384</ele>
        <time>2014-07-22T17:22:33Z</time>
      </trkpt>
      <trkpt lat="45.82867" lon="4.81513">
        <ele>384</ele>
        <time>2014-07-22T17:22:35Z</time>
      </trkpt>
      <trkpt lat="45.82864" lon="4.81525">
        <ele>385</ele>
        <time>2014-07-22T17:22:41Z</time>
      </trkpt>
      <trkpt lat="45.82864" lon="4.81526">
        <ele>385</ele>
        <time>2014-07-22T17:22:42Z</time>
      </trkpt>
      <trkpt lat="45.82862" lon="4.81532">
        <ele>386</ele>
        <time>2014-07-22T17:22:46Z</time>
      </trkpt>
      <trkpt lat="45.82861" lon="4.81534">
        <ele>386</ele>
        <time>2014-07-22T17:22:48Z</time>
      </trkpt>
      <trkpt lat="45.82862" lon="4.81538">
        <ele>386</ele>
        <time>2014-07-22T17:22:50Z</time>
      </trkpt>
      <trkpt lat="45.82861" lon="4.81542">
        <ele>386</ele>
        <time>2014-07-22T17:22:52Z</time>
      </trkpt>
      <trkpt lat="45.82858" lon="4.81553">
        <ele>388</ele>
        <time>2014-07-22T17:22:59Z</time>
      </trkpt>
      <trkpt lat="45.82859" lon="4.8156">
        <ele>389</ele>
        <time>2014-07-22T17:23:04Z</time>
      </trkpt>
      <trkpt lat="45.82858" lon="4.81562">
        <ele>389</ele>
        <time>2014-07-22T17:23:05Z</time>
      </trkpt>
      <trkpt lat="45.82859" lon="4.81566">
        <ele>389</ele>
        <time>2014-07-22T17:23:08Z</time>
      </trkpt>
      <trkpt lat="45.82861" lon="4.8157">
        <ele>389</ele>
        <time>2014-07-22T17:23:10Z</time>
      </trkpt>
      <trkpt lat="45.82864" lon="4.81578">
        <ele>389</ele>
        <time>2014-07-22T17:23:15Z</time>
      </trkpt>
      <trkpt lat="45.82864" lon="4.8158">
        <ele>389</ele>
        <time>2014-07-22T17:23:16Z</time>
      </trkpt>
      <trkpt lat="45.82863" lon="4.81585">
        <ele>396</ele>
        <time>2014-07-22T17:23:19Z</time>
      </trkpt>
      <trkpt lat="45.82868" lon="4.8159">
        <ele>395</ele>
        <time>2014-07-22T17:23:22Z</time>
      </trkpt>
      <trkpt lat="45.82867" lon="4.81594">
        <ele>395</ele>
        <time>2014-07-22T17:23:25Z</time>
      </trkpt>
      <trkpt lat="45.82866" lon="4.81598">
        <ele>395</ele>
        <time>2014-07-22T17:23:27Z</time>
      </trkpt>
      <trkpt lat="45.82867" lon="4.81607">
        <ele>396</ele>
        <time>2014-07-22T17:23:32Z</time>
      </trkpt>
      <trkpt lat="45.82867" lon="4.81612">
        <ele>396</ele>
        <time>2014-07-22T17:23:34Z</time>
      </trkpt>
      <trkpt lat="45.8287" lon="4.81616">
        <ele>395</ele>
        <time>2014-07-22T17:23:38Z</time>
      </trkpt>
      <trkpt lat="45.8287" lon="4.81616">
        <ele>395</ele>
        <time>2014-07-22T17:23:39Z</time>
      </trkpt>
      <trkpt lat="45.82872" lon="4.81617">
        <ele>395</ele>
        <time>2014-07-22T17:23:41Z</time>
      </trkpt>
      <trkpt lat="45.82873" lon="4.81619">
        <ele>395</ele>
        <time>2014-07-22T17:23:43Z</time>
      </trkpt>
      <trkpt lat="45.82875" lon="4.81624">
        <ele>395</ele>
        <time>2014-07-22T17:23:47Z</time>
      </trkpt>
      <trkpt lat="45.82878" lon="4.81625">
        <ele>394</ele>
        <time>2014-07-22T17:23:50Z</time>
      </trkpt>
      <trkpt lat="45.82883" lon="4.81627">
        <ele>394</ele>
        <time>2014-07-22T17:23:52Z</time>
      </trkpt>
      <trkpt lat="45.82887" lon="4.8163">
        <ele>393</ele>
        <time>2014-07-22T17:23:54Z</time>
      </trkpt>
      <trkpt lat="45.8289" lon="4.81632">
        <ele>392</ele>
        <time>2014-07-22T17:23:56Z</time>
      </trkpt>
      <trkpt lat="45.82892" lon="4.81635">
        <ele>392</ele>
        <time>2014-07-22T17:23:59Z</time>
      </trkpt>
      <trkpt lat="45.82894" lon="4.81639">
        <ele>392</ele>
        <time>2014-07-22T17:24:02Z</time>
      </trkpt>
      <trkpt lat="45.82898" lon="4.81642">
        <ele>392</ele>
        <time>2014-07-22T17:24:05Z</time>
      </trkpt>
      <trkpt lat="45.82899" lon="4.81644">
        <ele>391</ele>
        <time>2014-07-22T17:24:06Z</time>
      </trkpt>
      <trkpt lat="45.829" lon="4.81646">
        <ele>391</ele>
        <time>2014-07-22T17:24:09Z</time>
      </trkpt>
      <trkpt lat="45.82899" lon="4.81647">
        <ele>391</ele>
        <time>2014-07-22T17:24:10Z</time>
      </trkpt>
      <trkpt lat="45.82903" lon="4.81653">
        <ele>390</ele>
        <time>2014-07-22T17:24:14Z</time>
      </trkpt>
      <trkpt lat="45.82904" lon="4.81657">
        <ele>390</ele>
        <time>2014-07-22T17:24:17Z</time>
      </trkpt>
      <trkpt lat="45.82907" lon="4.81664">
        <ele>389</ele>
        <time>2014-07-22T17:24:22Z</time>
      </trkpt>
      <trkpt lat="45.82909" lon="4.81665">
        <ele>388</ele>
        <time>2014-07-22T17:24:23Z</time>
      </trkpt>
      <trkpt lat="45.8291" lon="4.81671">
        <ele>392</ele>
        <time>2014-07-22T17:24:27Z</time>
      </trkpt>
      <trkpt lat="45.82911" lon="4.81672">
        <ele>392</ele>
        <time>2014-07-22T17:24:28Z</time>
      </trkpt>
      <trkpt lat="45.82911" lon="4.81682">
        <ele>397</ele>
        <time>2014-07-22T17:24:34Z</time>
      </trkpt>
      <trkpt lat="45.82913" lon="4.8169">
        <ele>400</ele>
        <time>2014-07-22T17:24:38Z</time>
      </trkpt>
      <trkpt lat="45.82914" lon="4.81695">
        <ele>402</ele>
        <time>2014-07-22T17:24:41Z</time>
      </trkpt>
      <trkpt lat="45.82915" lon="4.81708">
        <ele>405</ele>
        <time>2014-07-22T17:24:48Z</time>
      </trkpt>
      <trkpt lat="45.82919" lon="4.81714">
        <ele>384</ele>
        <time>2014-07-22T17:24:51Z</time>
      </trkpt>
      <trkpt lat="45.82922" lon="4.81717">
        <ele>384</ele>
        <time>2014-07-22T17:24:53Z</time>
      </trkpt>
      <trkpt lat="45.82923" lon="4.81723">
        <ele>386</ele>
        <time>2014-07-22T17:24:57Z</time>
      </trkpt>
      <trkpt lat="45.82923" lon="4.81725">
        <ele>387</ele>
        <time>2014-07-22T17:24:58Z</time>
      </trkpt>
      <trkpt lat="45.82926" lon="4.81736">
        <ele>391</ele>
        <time>2014-07-22T17:25:05Z</time>
      </trkpt>
      <trkpt lat="45.82926" lon="4.81738">
        <ele>392</ele>
        <time>2014-07-22T17:25:06Z</time>
      </trkpt>
      <trkpt lat="45.82927" lon="4.81747">
        <ele>395</ele>
        <time>2014-07-22T17:25:12Z</time>
      </trkpt>
      <trkpt lat="45.82928" lon="4.81748">
        <ele>394</ele>
        <time>2014-07-22T17:25:13Z</time>
      </trkpt>
      <trkpt lat="45.82931" lon="4.81754">
        <ele>398</ele>
        <time>2014-07-22T17:25:18Z</time>
      </trkpt>
      <trkpt lat="45.82931" lon="4.81757">
        <ele>397</ele>
        <time>2014-07-22T17:25:20Z</time>
      </trkpt>
      <trkpt lat="45.82932" lon="4.81761">
        <ele>397</ele>
        <time>2014-07-22T17:25:23Z</time>
      </trkpt>
      <trkpt lat="45.82932" lon="4.81762">
        <ele>396</ele>
        <time>2014-07-22T17:25:24Z</time>
      </trkpt>
      <trkpt lat="45.82933" lon="4.81766">
        <ele>395</ele>
        <time>2014-07-22T17:25:27Z</time>
      </trkpt>
      <trkpt lat="45.82936" lon="4.81769">
        <ele>394</ele>
        <time>2014-07-22T17:25:29Z</time>
      </trkpt>
      <trkpt lat="45.82939" lon="4.81774">
        <ele>394</ele>
        <time>2014-07-22T17:25:32Z</time>
      </trkpt>
      <trkpt lat="45.82941" lon="4.81778">
        <ele>393</ele>
        <time>2014-07-22T17:25:35Z</time>
      </trkpt>
      <trkpt lat="45.82944" lon="4.81783">
        <ele>392</ele>
        <time>2014-07-22T17:25:39Z</time>
      </trkpt>
      <trkpt lat="45.82943" lon="4.81787">
        <ele>393</ele>
        <time>2014-07-22T17:25:42Z</time>
      </trkpt>
      <trkpt lat="45.82942" lon="4.81794">
        <ele>393</ele>
        <time>2014-07-22T17:25:48Z</time>
      </trkpt>
      <trkpt lat="45.82942" lon="4.81801">
        <ele>393</ele>
        <time>2014-07-22T17:25:54Z</time>
      </trkpt>
      <trkpt lat="45.82941" lon="4.81808">
        <ele>394</ele>
        <time>2014-07-22T17:25:58Z</time>
      </trkpt>
      <trkpt lat="45.82941" lon="4.81813">
        <ele>395</ele>
        <time>2014-07-22T17:26:02Z</time>
      </trkpt>
      <trkpt lat="45.82938" lon="4.81817">
        <ele>396</ele>
        <time>2014-07-22T17:26:08Z</time>
      </trkpt>
      <trkpt lat="45.82935" lon="4.81818">
        <ele>398</ele>
        <time>2014-07-22T17:26:11Z</time>
      </trkpt>
      <trkpt lat="45.82934" lon="4.81818">
        <ele>398</ele>
        <time>2014-07-22T17:26:12Z</time>
      </trkpt>
      <trkpt lat="45.82929" lon="4.81815">
        <ele>398</ele>
        <time>2014-07-22T17:26:16Z</time>
      </trkpt>
      <trkpt lat="45.82928" lon="4.81814">
        <ele>398</ele>
        <time>2014-07-22T17:26:17Z</time>
      </trkpt>
      <trkpt lat="45.82927" lon="4.81814">
        <ele>399</ele>
        <time>2014-07-22T17:26:18Z</time>
      </trkpt>
      <trkpt lat="45.82922" lon="4.81809">
        <ele>398</ele>
        <time>2014-07-22T17:26:25Z</time>
      </trkpt>
      <trkpt lat="45.82918" lon="4.81805">
        <ele>398</ele>
        <time>2014-07-22T17:26:29Z</time>
      </trkpt>
      <trkpt lat="45.82916" lon="4.81804">
        <ele>414</ele>
        <time>2014-07-22T17:26:31Z</time>
      </trkpt>
      <trkpt lat="45.82914" lon="4.81802">
        <ele>414</ele>
        <time>2014-07-22T17:26:34Z</time>
      </trkpt>
      <trkpt lat="45.8291" lon="4.81799">
        <ele>415</ele>
        <time>2014-07-22T17:26:37Z</time>
      </trkpt>
      <trkpt lat="45.82903" lon="4.81795">
        <ele>415</ele>
        <time>2014-07-22T17:26:43Z</time>
      </trkpt>
      <trkpt lat="45.82903" lon="4.81793">
        <ele>415</ele>
        <time>2014-07-22T17:26:44Z</time>
      </trkpt>
      <trkpt lat="45.82897" lon="4.81788">
        <ele>415</ele>
        <time>2014-07-22T17:26:50Z</time>
      </trkpt>
      <trkpt lat="45.82895" lon="4.81787">
        <ele>416</ele>
        <time>2014-07-22T17:26:52Z</time>
      </trkpt>
      <trkpt lat="45.82894" lon="4.81787">
        <ele>416</ele>
        <time>2014-07-22T17:26:53Z</time>
      </trkpt>
      <trkpt lat="45.82888" lon="4.81782">
        <ele>416</ele>
        <time>2014-07-22T17:26:58Z</time>
      </trkpt>
      <trkpt lat="45.82887" lon="4.8178">
        <ele>416</ele>
        <time>2014-07-22T17:26:59Z</time>
      </trkpt>
      <trkpt lat="45.82884" lon="4.81774">
        <ele>417</ele>
        <time>2014-07-22T17:27:04Z</time>
      </trkpt>
      <trkpt lat="45.82883" lon="4.81773">
        <ele>417</ele>
        <time>2014-07-22T17:27:05Z</time>
      </trkpt>
      <trkpt lat="45.82876" lon="4.81769">
        <ele>418</ele>
        <time>2014-07-22T17:27:10Z</time>
      </trkpt>
      <trkpt lat="45.82874" lon="4.81768">
        <ele>418</ele>
        <time>2014-07-22T17:27:13Z</time>
      </trkpt>
      <trkpt lat="45.82871" lon="4.81764">
        <ele>419</ele>
        <time>2014-07-22T17:27:16Z</time>
      </trkpt>
      <trkpt lat="45.82867" lon="4.81759">
        <ele>420</ele>
        <time>2014-07-22T17:27:20Z</time>
      </trkpt>
      <trkpt lat="45.82864" lon="4.81756">
        <ele>421</ele>
        <time>2014-07-22T17:27:23Z</time>
      </trkpt>
      <trkpt lat="45.82862" lon="4.81753">
        <ele>421</ele>
        <time>2014-07-22T17:27:24Z</time>
      </trkpt>
      <trkpt lat="45.82858" lon="4.8175">
        <ele>418</ele>
        <time>2014-07-22T17:27:28Z</time>
      </trkpt>
      <trkpt lat="45.82857" lon="4.81748">
        <ele>418</ele>
        <time>2014-07-22T17:27:29Z</time>
      </trkpt>
      <trkpt lat="45.82853" lon="4.81746">
        <ele>419</ele>
        <time>2014-07-22T17:27:32Z</time>
      </trkpt>
      <trkpt lat="45.82851" lon="4.81744">
        <ele>420</ele>
        <time>2014-07-22T17:27:34Z</time>
      </trkpt>
      <trkpt lat="45.8285" lon="4.81743">
        <ele>420</ele>
        <time>2014-07-22T17:27:35Z</time>
      </trkpt>
      <trkpt lat="45.82845" lon="4.81739">
        <ele>421</ele>
        <time>2014-07-22T17:27:41Z</time>
      </trkpt>
      <trkpt lat="45.82844" lon="4.81738">
        <ele>422</ele>
        <time>2014-07-22T17:27:43Z</time>
      </trkpt>
      <trkpt lat="45.82834" lon="4.81733">
        <ele>421</ele>
        <time>2014-07-22T17:27:48Z</time>
      </trkpt>
      <trkpt lat="45.82826" lon="4.81727">
        <ele>431</ele>
        <time>2014-07-22T17:27:53Z</time>
      </trkpt>
      <trkpt lat="45.82822" lon="4.81722">
        <ele>431</ele>
        <time>2014-07-22T17:27:57Z</time>
      </trkpt>
      <trkpt lat="45.82818" lon="4.81719">
        <ele>431</ele>
        <time>2014-07-22T17:27:59Z</time>
      </trkpt>
      <trkpt lat="45.82813" lon="4.81715">
        <ele>431</ele>
        <time>2014-07-22T17:28:03Z</time>
      </trkpt>
      <trkpt lat="45.82801" lon="4.81703">
        <ele>431</ele>
        <time>2014-07-22T17:28:08Z</time>
      </trkpt>
      <trkpt lat="45.82798" lon="4.81699">
        <ele>431</ele>
        <time>2014-07-22T17:28:10Z</time>
      </trkpt>
      <trkpt lat="45.82791" lon="4.81693">
        <ele>431</ele>
        <time>2014-07-22T17:28:14Z</time>
      </trkpt>
      <trkpt lat="45.8279" lon="4.81691">
        <ele>431</ele>
        <time>2014-07-22T17:28:15Z</time>
      </trkpt>
      <trkpt lat="45.82788" lon="4.81685">
        <ele>431</ele>
        <time>2014-07-22T17:28:17Z</time>
      </trkpt>
      <trkpt lat="45.82786" lon="4.81678">
        <ele>431</ele>
        <time>2014-07-22T17:28:19Z</time>
      </trkpt>
      <trkpt lat="45.82782" lon="4.81664">
        <ele>428</ele>
        <time>2014-07-22T17:28:23Z</time>
      </trkpt>
      <trkpt lat="45.82781" lon="4.81661">
        <ele>428</ele>
        <time>2014-07-22T17:28:24Z</time>
      </trkpt>
      <trkpt lat="45.82775" lon="4.81648">
        <ele>428</ele>
        <time>2014-07-22T17:28:29Z</time>
      </trkpt>
      <trkpt lat="45.82772" lon="4.81635">
        <ele>428</ele>
        <time>2014-07-22T17:28:33Z</time>
      </trkpt>
      <trkpt lat="45.82772" lon="4.81632">
        <ele>428</ele>
        <time>2014-07-22T17:28:34Z</time>
      </trkpt>
      <trkpt lat="45.8277" lon="4.81622">
        <ele>428</ele>
        <time>2014-07-22T17:28:38Z</time>
      </trkpt>
      <trkpt lat="45.8277" lon="4.8162">
        <ele>428</ele>
        <time>2014-07-22T17:28:39Z</time>
      </trkpt>
      <trkpt lat="45.82766" lon="4.81609">
        <ele>428</ele>
        <time>2014-07-22T17:28:43Z</time>
      </trkpt>
      <trkpt lat="45.82763" lon="4.81599">
        <ele>429</ele>
        <time>2014-07-22T17:28:46Z</time>
      </trkpt>
      <trkpt lat="45.82762" lon="4.81595">
        <ele>430</ele>
        <time>2014-07-22T17:28:47Z</time>
      </trkpt>
      <trkpt lat="45.82759" lon="4.81584">
        <ele>432</ele>
        <time>2014-07-22T17:28:50Z</time>
      </trkpt>
      <trkpt lat="45.82758" lon="4.8158">
        <ele>431</ele>
        <time>2014-07-22T17:28:51Z</time>
      </trkpt>
      <trkpt lat="45.82754" lon="4.8156">
        <ele>426</ele>
        <time>2014-07-22T17:28:56Z</time>
      </trkpt>
      <trkpt lat="45.82753" lon="4.81558">
        <ele>425</ele>
        <time>2014-07-22T17:28:57Z</time>
      </trkpt>
      <trkpt lat="45.82753" lon="4.81543">
        <ele>424</ele>
        <time>2014-07-22T17:29:01Z</time>
      </trkpt>
      <trkpt lat="45.82752" lon="4.81532">
        <ele>424</ele>
        <time>2014-07-22T17:29:04Z</time>
      </trkpt>
      <trkpt lat="45.82751" lon="4.81526">
        <ele>424</ele>
        <time>2014-07-22T17:29:06Z</time>
      </trkpt>
      <trkpt lat="45.8275" lon="4.81524">
        <ele>424</ele>
        <time>2014-07-22T17:29:07Z</time>
      </trkpt>
      <trkpt lat="45.82744" lon="4.81523">
        <ele>434</ele>
        <time>2014-07-22T17:29:12Z</time>
      </trkpt>
      <trkpt lat="45.82737" lon="4.81525">
        <ele>435</ele>
        <time>2014-07-22T17:29:16Z</time>
      </trkpt>
      <trkpt lat="45.82733" lon="4.81525">
        <ele>435</ele>
        <time>2014-07-22T17:29:18Z</time>
      </trkpt>
      <trkpt lat="45.82728" lon="4.81527">
        <ele>435</ele>
        <time>2014-07-22T17:29:20Z</time>
      </trkpt>
      <trkpt lat="45.82726" lon="4.81527">
        <ele>435</ele>
        <time>2014-07-22T17:29:22Z</time>
      </trkpt>
      <trkpt lat="45.8272" lon="4.81536">
        <ele>436</ele>
        <time>2014-07-22T17:29:26Z</time>
      </trkpt>
      <trkpt lat="45.82715" lon="4.81551">
        <ele>436</ele>
        <time>2014-07-22T17:29:30Z</time>
      </trkpt>
      <trkpt lat="45.82713" lon="4.8156">
        <ele>437</ele>
        <time>2014-07-22T17:29:34Z</time>
      </trkpt>
      <trkpt lat="45.82712" lon="4.81565">
        <ele>437</ele>
        <time>2014-07-22T17:29:36Z</time>
      </trkpt>
      <trkpt lat="45.8271" lon="4.81571">
        <ele>437</ele>
        <time>2014-07-22T17:29:39Z</time>
      </trkpt>
      <trkpt lat="45.82711" lon="4.81577">
        <ele>437</ele>
        <time>2014-07-22T17:29:40Z</time>
      </trkpt>
      <trkpt lat="45.82709" lon="4.81586">
        <ele>439</ele>
        <time>2014-07-22T17:29:44Z</time>
      </trkpt>
      <trkpt lat="45.82706" lon="4.81594">
        <ele>439</ele>
        <time>2014-07-22T17:29:47Z</time>
      </trkpt>
      <trkpt lat="45.82704" lon="4.81605">
        <ele>439</ele>
        <time>2014-07-22T17:29:50Z</time>
      </trkpt>
      <trkpt lat="45.82704" lon="4.81608">
        <ele>439</ele>
        <time>2014-07-22T17:29:52Z</time>
      </trkpt>
      <trkpt lat="45.82703" lon="4.8161">
        <ele>439</ele>
        <time>2014-07-22T17:29:53Z</time>
      </trkpt>
      <trkpt lat="45.82702" lon="4.81617">
        <ele>439</ele>
        <time>2014-07-22T17:29:55Z</time>
      </trkpt>
      <trkpt lat="45.82702" lon="4.81622">
        <ele>439</ele>
        <time>2014-07-22T17:29:56Z</time>
      </trkpt>
      <trkpt lat="45.82702" lon="4.81624">
        <ele>439</ele>
        <time>2014-07-22T17:29:58Z</time>
      </trkpt>
      <trkpt lat="45.827" lon="4.81636">
        <ele>439</ele>
        <time>2014-07-22T17:30:02Z</time>
      </trkpt>
      <trkpt lat="45.82695" lon="4.81654">
        <ele>440</ele>
        <time>2014-07-22T17:30:08Z</time>
      </trkpt>
      <trkpt lat="45.82694" lon="4.8166">
        <ele>440</ele>
        <time>2014-07-22T17:30:10Z</time>
      </trkpt>
      <trkpt lat="45.82692" lon="4.81669">
        <ele>441</ele>
        <time>2014-07-22T17:30:13Z</time>
      </trkpt>
      <trkpt lat="45.82692" lon="4.81686">
        <ele>441</ele>
        <time>2014-07-22T17:30:19Z</time>
      </trkpt>
      <trkpt lat="45.82692" lon="4.81688">
        <ele>441</ele>
        <time>2014-07-22T17:30:20Z</time>
      </trkpt>
      <trkpt lat="45.8269" lon="4.81701">
        <ele>441</ele>
        <time>2014-07-22T17:30:25Z</time>
      </trkpt>
      <trkpt lat="45.8269" lon="4.81713">
        <ele>442</ele>
        <time>2014-07-22T17:30:30Z</time>
      </trkpt>
      <trkpt lat="45.82688" lon="4.81724">
        <ele>442</ele>
        <time>2014-07-22T17:30:34Z</time>
      </trkpt>
      <trkpt lat="45.82688" lon="4.81731">
        <ele>442</ele>
        <time>2014-07-22T17:30:37Z</time>
      </trkpt>
      <trkpt lat="45.82687" lon="4.81738">
        <ele>443</ele>
        <time>2014-07-22T17:30:40Z</time>
      </trkpt>
      <trkpt lat="45.82684" lon="4.81756">
        <ele>445</ele>
        <time>2014-07-22T17:30:46Z</time>
      </trkpt>
      <trkpt lat="45.82682" lon="4.81769">
        <ele>445</ele>
        <time>2014-07-22T17:30:50Z</time>
      </trkpt>
      <trkpt lat="45.82681" lon="4.81786">
        <ele>445</ele>
        <time>2014-07-22T17:30:57Z</time>
      </trkpt>
      <trkpt lat="45.8268" lon="4.81792">
        <ele>445</ele>
        <time>2014-07-22T17:30:59Z</time>
      </trkpt>
      <trkpt lat="45.8268" lon="4.81797">
        <ele>445</ele>
        <time>2014-07-22T17:31:01Z</time>
      </trkpt>
      <trkpt lat="45.82677" lon="4.81814">
        <ele>447</ele>
        <time>2014-07-22T17:31:07Z</time>
      </trkpt>
      <trkpt lat="45.82677" lon="4.81817">
        <ele>447</ele>
        <time>2014-07-22T17:31:08Z</time>
      </trkpt>
      <trkpt lat="45.82676" lon="4.81819">
        <ele>447</ele>
        <time>2014-07-22T17:31:09Z</time>
      </trkpt>
      <trkpt lat="45.82673" lon="4.81828">
        <ele>449</ele>
        <time>2014-07-22T17:31:12Z</time>
      </trkpt>
      <trkpt lat="45.82672" lon="4.81833">
        <ele>450</ele>
        <time>2014-07-22T17:31:14Z</time>
      </trkpt>
      <trkpt lat="45.82669" lon="4.81841">
        <ele>450</ele>
        <time>2014-07-22T17:31:17Z</time>
      </trkpt>
      <trkpt lat="45.82668" lon="4.81844">
        <ele>449</ele>
        <time>2014-07-22T17:31:18Z</time>
      </trkpt>
      <trkpt lat="45.82666" lon="4.81851">
        <ele>452</ele>
        <time>2014-07-22T17:31:20Z</time>
      </trkpt>
      <trkpt lat="45.82662" lon="4.81859">
        <ele>453</ele>
        <time>2014-07-22T17:31:24Z</time>
      </trkpt>
      <trkpt lat="45.82659" lon="4.81869">
        <ele>453</ele>
        <time>2014-07-22T17:31:26Z</time>
      </trkpt>
      <trkpt lat="45.82655" lon="4.81882">
        <ele>453</ele>
        <time>2014-07-22T17:31:31Z</time>
      </trkpt>
      <trkpt lat="45.82652" lon="4.81896">
        <ele>454</ele>
        <time>2014-07-22T17:31:36Z</time>
      </trkpt>
      <trkpt lat="45.82651" lon="4.81902">
        <ele>454</ele>
        <time>2014-07-22T17:31:38Z</time>
      </trkpt>
      <trkpt lat="45.82649" lon="4.81908">
        <ele>454</ele>
        <time>2014-07-22T17:31:41Z</time>
      </trkpt>
      <trkpt lat="45.82647" lon="4.81914">
        <ele>454</ele>
        <time>2014-07-22T17:31:43Z</time>
      </trkpt>
      <trkpt lat="45.82645" lon="4.8192">
        <ele>455</ele>
        <time>2014-07-22T17:31:45Z</time>
      </trkpt>
      <trkpt lat="45.82644" lon="4.81923">
        <ele>455</ele>
        <time>2014-07-22T17:31:46Z</time>
      </trkpt>
      <trkpt lat="45.8264" lon="4.81936">
        <ele>455</ele>
        <time>2014-07-22T17:31:50Z</time>
      </trkpt>
      <trkpt lat="45.82638" lon="4.81941">
        <ele>455</ele>
        <time>2014-07-22T17:31:53Z</time>
      </trkpt>
      <trkpt lat="45.82637" lon="4.81944">
        <ele>455</ele>
        <time>2014-07-22T17:31:54Z</time>
      </trkpt>
      <trkpt lat="45.82635" lon="4.81951">
        <ele>455</ele>
        <time>2014-07-22T17:31:56Z</time>
      </trkpt>
      <trkpt lat="45.82631" lon="4.81968">
        <ele>455</ele>
        <time>2014-07-22T17:32:01Z</time>
      </trkpt>
      <trkpt lat="45.8263" lon="4.81971">
        <ele>455</ele>
        <time>2014-07-22T17:32:02Z</time>
      </trkpt>
      <trkpt lat="45.82629" lon="4.81983">
        <ele>456</ele>
        <time>2014-07-22T17:32:06Z</time>
      </trkpt>
      <trkpt lat="45.82629" lon="4.81985">
        <ele>456</ele>
        <time>2014-07-22T17:32:07Z</time>
      </trkpt>
      <trkpt lat="45.82626" lon="4.81998">
        <ele>456</ele>
        <time>2014-07-22T17:32:11Z</time>
      </trkpt>
      <trkpt lat="45.82625" lon="4.82012">
        <ele>456</ele>
        <time>2014-07-22T17:32:15Z</time>
      </trkpt>
      <trkpt lat="45.82624" lon="4.82014">
        <ele>456</ele>
        <time>2014-07-22T17:32:16Z</time>
      </trkpt>
      <trkpt lat="45.82625" lon="4.82015">
        <ele>455</ele>
        <time>2014-07-22T17:32:17Z</time>
      </trkpt>
      <trkpt lat="45.82628" lon="4.82016">
        <ele>455</ele>
        <time>2014-07-22T17:32:20Z</time>
      </trkpt>
      <trkpt lat="45.8263" lon="4.82016">
        <ele>455</ele>
        <time>2014-07-22T17:32:21Z</time>
      </trkpt>
      <trkpt lat="45.82633" lon="4.82016">
        <ele>455</ele>
        <time>2014-07-22T17:32:22Z</time>
      </trkpt>
      <trkpt lat="45.82634" lon="4.82016">
        <ele>455</ele>
        <time>2014-07-22T17:32:23Z</time>
      </trkpt>
      <trkpt lat="45.82637" lon="4.82018">
        <ele>455</ele>
        <time>2014-07-22T17:32:25Z</time>
      </trkpt>
      <trkpt lat="45.82637" lon="4.82022">
        <ele>454</ele>
        <time>2014-07-22T17:32:26Z</time>
      </trkpt>
      <trkpt lat="45.82639" lon="4.82026">
        <ele>454</ele>
        <time>2014-07-22T17:32:28Z</time>
      </trkpt>
      <trkpt lat="45.82641" lon="4.82025">
        <ele>454</ele>
        <time>2014-07-22T17:32:30Z</time>
      </trkpt>
      <trkpt lat="45.82645" lon="4.82024">
        <ele>454</ele>
        <time>2014-07-22T17:32:32Z</time>
      </trkpt>
      <trkpt lat="45.82647" lon="4.82024">
        <ele>454</ele>
        <time>2014-07-22T17:32:33Z</time>
      </trkpt>
      <trkpt lat="45.82652" lon="4.82025">
        <ele>454</ele>
        <time>2014-07-22T17:32:35Z</time>
      </trkpt>
      <trkpt lat="45.82665" lon="4.82024">
        <ele>453</ele>
        <time>2014-07-22T17:32:38Z</time>
      </trkpt>
      <trkpt lat="45.82667" lon="4.82021">
        <ele>445</ele>
        <time>2014-07-22T17:32:39Z</time>
      </trkpt>
      <trkpt lat="45.82673" lon="4.82016">
        <ele>446</ele>
        <time>2014-07-22T17:32:42Z</time>
      </trkpt>
      <trkpt lat="45.82677" lon="4.8201">
        <ele>447</ele>
        <time>2014-07-22T17:32:44Z</time>
      </trkpt>
      <trkpt lat="45.8268" lon="4.82007">
        <ele>446</ele>
        <time>2014-07-22T17:32:45Z</time>
      </trkpt>
      <trkpt lat="45.82689" lon="4.82">
        <ele>447</ele>
        <time>2014-07-22T17:32:48Z</time>
      </trkpt>
      <trkpt lat="45.82699" lon="4.81998">
        <ele>445</ele>
        <time>2014-07-22T17:32:52Z</time>
      </trkpt>
      <trkpt lat="45.82714" lon="4.81998">
        <ele>443</ele>
        <time>2014-07-22T17:32:56Z</time>
      </trkpt>
      <trkpt lat="45.8272" lon="4.81997">
        <ele>442</ele>
        <time>2014-07-22T17:32:57Z</time>
      </trkpt>
      <trkpt lat="45.82726" lon="4.81991">
        <ele>440</ele>
        <time>2014-07-22T17:33:00Z</time>
      </trkpt>
      <trkpt lat="45.82734" lon="4.81987">
        <ele>439</ele>
        <time>2014-07-22T17:33:05Z</time>
      </trkpt>
      <trkpt lat="45.82737" lon="4.8199">
        <ele>438</ele>
        <time>2014-07-22T17:33:08Z</time>
      </trkpt>
      <trkpt lat="45.82739" lon="4.81991">
        <ele>438</ele>
        <time>2014-07-22T17:33:09Z</time>
      </trkpt>
      <trkpt lat="45.82742" lon="4.81991">
        <ele>437</ele>
        <time>2014-07-22T17:33:10Z</time>
      </trkpt>
      <trkpt lat="45.82753" lon="4.81987">
        <ele>431</ele>
        <time>2014-07-22T17:33:14Z</time>
      </trkpt>
      <trkpt lat="45.82756" lon="4.81987">
        <ele>431</ele>
        <time>2014-07-22T17:33:15Z</time>
      </trkpt>
      <trkpt lat="45.82758" lon="4.81987">
        <ele>430</ele>
        <time>2014-07-22T17:33:16Z</time>
      </trkpt>
      <trkpt lat="45.82759" lon="4.81988">
        <ele>430</ele>
        <time>2014-07-22T17:33:17Z</time>
      </trkpt>
      <trkpt lat="45.82762" lon="4.81987">
        <ele>430</ele>
        <time>2014-07-22T17:33:18Z</time>
      </trkpt>
      <trkpt lat="45.82769" lon="4.81992">
        <ele>430</ele>
        <time>2014-07-22T17:33:22Z</time>
      </trkpt>
      <trkpt lat="45.82773" lon="4.81994">
        <ele>429</ele>
        <time>2014-07-22T17:33:23Z</time>
      </trkpt>
      <trkpt lat="45.82783" lon="4.81995">
        <ele>428</ele>
        <time>2014-07-22T17:33:26Z</time>
      </trkpt>
      <trkpt lat="45.82787" lon="4.81995">
        <ele>427</ele>
        <time>2014-07-22T17:33:27Z</time>
      </trkpt>
      <trkpt lat="45.8279" lon="4.81995">
        <ele>427</ele>
        <time>2014-07-22T17:33:28Z</time>
      </trkpt>
      <trkpt lat="45.82797" lon="4.81996">
        <ele>426</ele>
        <time>2014-07-22T17:33:32Z</time>
      </trkpt>
      <trkpt lat="45.82812" lon="4.81998">
        <ele>423</ele>
        <time>2014-07-22T17:33:37Z</time>
      </trkpt>
      <trkpt lat="45.82827" lon="4.82003">
        <ele>418</ele>
        <time>2014-07-22T17:33:42Z</time>
      </trkpt>
      <trkpt lat="45.8283" lon="4.82004">
        <ele>418</ele>
        <time>2014-07-22T17:33:43Z</time>
      </trkpt>
      <trkpt lat="45.82837" lon="4.82009">
        <ele>414</ele>
        <time>2014-07-22T17:33:46Z</time>
      </trkpt>
      <trkpt lat="45.82847" lon="4.8201">
        <ele>412</ele>
        <time>2014-07-22T17:33:49Z</time>
      </trkpt>
      <trkpt lat="45.82851" lon="4.8201">
        <ele>412</ele>
        <time>2014-07-22T17:33:50Z</time>
      </trkpt>
      <trkpt lat="45.82867" lon="4.82007">
        <ele>409</ele>
        <time>2014-07-22T17:33:55Z</time>
      </trkpt>
      <trkpt lat="45.82877" lon="4.8201">
        <ele>408</ele>
        <time>2014-07-22T17:33:59Z</time>
      </trkpt>
      <trkpt lat="45.82881" lon="4.82011">
        <ele>407</ele>
        <time>2014-07-22T17:34:00Z</time>
      </trkpt>
      <trkpt lat="45.82885" lon="4.8201">
        <ele>407</ele>
        <time>2014-07-22T17:34:02Z</time>
      </trkpt>
      <trkpt lat="45.82887" lon="4.82009">
        <ele>406</ele>
        <time>2014-07-22T17:34:03Z</time>
      </trkpt>
      <trkpt lat="45.82895" lon="4.82004">
        <ele>405</ele>
        <time>2014-07-22T17:34:07Z</time>
      </trkpt>
      <trkpt lat="45.82896" lon="4.82004">
        <ele>405</ele>
        <time>2014-07-22T17:34:08Z</time>
      </trkpt>
      <trkpt lat="45.82902" lon="4.82006">
        <ele>404</ele>
        <time>2014-07-22T17:34:13Z</time>
      </trkpt>
      <trkpt lat="45.82905" lon="4.82005">
        <ele>403</ele>
        <time>2014-07-22T17:34:15Z</time>
      </trkpt>
      <trkpt lat="45.82911" lon="4.82002">
        <ele>401</ele>
        <time>2014-07-22T17:34:18Z</time>
      </trkpt>
      <trkpt lat="45.82924" lon="4.82003">
        <ele>398</ele>
        <time>2014-07-22T17:34:24Z</time>
      </trkpt>
      <trkpt lat="45.82936" lon="4.81997">
        <ele>396</ele>
        <time>2014-07-22T17:34:28Z</time>
      </trkpt>
      <trkpt lat="45.82938" lon="4.81996">
        <ele>396</ele>
        <time>2014-07-22T17:34:29Z</time>
      </trkpt>
      <trkpt lat="45.82942" lon="4.81996">
        <ele>396</ele>
        <time>2014-07-22T17:34:30Z</time>
      </trkpt>
      <trkpt lat="45.82952" lon="4.81995">
        <ele>395</ele>
        <time>2014-07-22T17:34:33Z</time>
      </trkpt>
      <trkpt lat="45.82961" lon="4.81992">
        <ele>394</ele>
        <time>2014-07-22T17:34:36Z</time>
      </trkpt>
      <trkpt lat="45.82966" lon="4.81991">
        <ele>393</ele>
        <time>2014-07-22T17:34:38Z</time>
      </trkpt>
      <trkpt lat="45.82967" lon="4.8199">
        <ele>393</ele>
        <time>2014-07-22T17:34:39Z</time>
      </trkpt>
      <trkpt lat="45.82975" lon="4.81995">
        <ele>392</ele>
        <time>2014-07-22T17:34:42Z</time>
      </trkpt>
      <trkpt lat="45.82979" lon="4.81998">
        <ele>392</ele>
        <time>2014-07-22T17:34:43Z</time>
      </trkpt>
      <trkpt lat="45.82986" lon="4.82003">
        <ele>391</ele>
        <time>2014-07-22T17:34:46Z</time>
      </trkpt>
      <trkpt lat="45.82995" lon="4.82016">
        <ele>391</ele>
        <time>2014-07-22T17:34:51Z</time>
      </trkpt>
      <trkpt lat="45.82999" lon="4.82021">
        <ele>392</ele>
        <time>2014-07-22T17:34:53Z</time>
      </trkpt>
      <trkpt lat="45.83009" lon="4.82034">
        <ele>376</ele>
        <time>2014-07-22T17:34:57Z</time>
      </trkpt>
      <trkpt lat="45.83011" lon="4.82039">
        <ele>376</ele>
        <time>2014-07-22T17:34:59Z</time>
      </trkpt>
      <trkpt lat="45.83018" lon="4.82049">
        <ele>375</ele>
        <time>2014-07-22T17:35:05Z</time>
      </trkpt>
      <trkpt lat="45.83021" lon="4.82052">
        <ele>375</ele>
        <time>2014-07-22T17:35:07Z</time>
      </trkpt>
      <trkpt lat="45.83026" lon="4.82059">
        <ele>374</ele>
        <time>2014-07-22T17:35:10Z</time>
      </trkpt>
      <trkpt lat="45.83033" lon="4.82072">
        <ele>373</ele>
        <time>2014-07-22T17:35:15Z</time>
      </trkpt>
      <trkpt lat="45.8304" lon="4.82083">
        <ele>379</ele>
        <time>2014-07-22T17:35:19Z</time>
      </trkpt>
      <trkpt lat="45.83045" lon="4.82095">
        <ele>377</ele>
        <time>2014-07-22T17:35:23Z</time>
      </trkpt>
      <trkpt lat="45.83047" lon="4.82097">
        <ele>377</ele>
        <time>2014-07-22T17:35:24Z</time>
      </trkpt>
      <trkpt lat="45.83061" lon="4.82113">
        <ele>376</ele>
        <time>2014-07-22T17:35:30Z</time>
      </trkpt>
      <trkpt lat="45.83068" lon="4.82129">
        <ele>377</ele>
        <time>2014-07-22T17:35:35Z</time>
      </trkpt>
      <trkpt lat="45.83073" lon="4.82135">
        <ele>377</ele>
        <time>2014-07-22T17:35:37Z</time>
      </trkpt>
      <trkpt lat="45.83082" lon="4.82146">
        <ele>377</ele>
        <time>2014-07-22T17:35:41Z</time>
      </trkpt>
      <trkpt lat="45.83085" lon="4.82154">
        <ele>363</ele>
        <time>2014-07-22T17:35:43Z</time>
      </trkpt>
      <trkpt lat="45.83087" lon="4.82163">
        <ele>369</ele>
        <time>2014-07-22T17:35:45Z</time>
      </trkpt>
      <trkpt lat="45.83094" lon="4.82178">
        <ele>367</ele>
        <time>2014-07-22T17:35:49Z</time>
      </trkpt>
      <trkpt lat="45.83096" lon="4.82181">
        <ele>366</ele>
        <time>2014-07-22T17:35:50Z</time>
      </trkpt>
      <trkpt lat="45.83099" lon="4.82196">
        <ele>364</ele>
        <time>2014-07-22T17:35:54Z</time>
      </trkpt>
      <trkpt lat="45.831" lon="4.82204">
        <ele>363</ele>
        <time>2014-07-22T17:35:56Z</time>
      </trkpt>
      <trkpt lat="45.83101" lon="4.82216">
        <ele>364</ele>
        <time>2014-07-22T17:35:59Z</time>
      </trkpt>
      <trkpt lat="45.83103" lon="4.8223">
        <ele>367</ele>
        <time>2014-07-22T17:36:02Z</time>
      </trkpt>
      <trkpt lat="45.83104" lon="4.82239">
        <ele>368</ele>
        <time>2014-07-22T17:36:04Z</time>
      </trkpt>
      <trkpt lat="45.83106" lon="4.82255">
        <ele>372</ele>
        <time>2014-07-22T17:36:08Z</time>
      </trkpt>
      <trkpt lat="45.83106" lon="4.8226">
        <ele>371</ele>
        <time>2014-07-22T17:36:09Z</time>
      </trkpt>
      <trkpt lat="45.83109" lon="4.82278">
        <ele>368</ele>
        <time>2014-07-22T17:36:13Z</time>
      </trkpt>
      <trkpt lat="45.83114" lon="4.82278">
        <ele>367</ele>
        <time>2014-07-22T17:36:17Z</time>
      </trkpt>
      <trkpt lat="45.8312" lon="4.82288">
        <ele>365</ele>
        <time>2014-07-22T17:36:28Z</time>
      </trkpt>
      <trkpt lat="45.83119" lon="4.82294">
        <ele>365</ele>
        <time>2014-07-22T17:36:29Z</time>
      </trkpt>
      <trkpt lat="45.83122" lon="4.82317">
        <ele>365</ele>
        <time>2014-07-22T17:36:33Z</time>
      </trkpt>
      <trkpt lat="45.83122" lon="4.82322">
        <ele>365</ele>
        <time>2014-07-22T17:36:34Z</time>
      </trkpt>
      <trkpt lat="45.83123" lon="4.82344">
        <ele>366</ele>
        <time>2014-07-22T17:36:38Z</time>
      </trkpt>
      <trkpt lat="45.83124" lon="4.82353">
        <ele>365</ele>
        <time>2014-07-22T17:36:40Z</time>
      </trkpt>
      <trkpt lat="45.83124" lon="4.82362">
        <ele>366</ele>
        <time>2014-07-22T17:36:42Z</time>
      </trkpt>
      <trkpt lat="45.83123" lon="4.82372">
        <ele>366</ele>
        <time>2014-07-22T17:36:44Z</time>
      </trkpt>
      <trkpt lat="45.83122" lon="4.82387">
        <ele>366</ele>
        <time>2014-07-22T17:36:47Z</time>
      </trkpt>
      <trkpt lat="45.83121" lon="4.824">
        <ele>366</ele>
        <time>2014-07-22T17:36:50Z</time>
      </trkpt>
      <trkpt lat="45.8312" lon="4.82413">
        <ele>367</ele>
        <time>2014-07-22T17:36:53Z</time>
      </trkpt>
      <trkpt lat="45.83122" lon="4.82426">
        <ele>364</ele>
        <time>2014-07-22T17:36:57Z</time>
      </trkpt>
      <trkpt lat="45.83123" lon="4.82435">
        <ele>363</ele>
        <time>2014-07-22T17:36:59Z</time>
      </trkpt>
      <trkpt lat="45.83123" lon="4.82454">
        <ele>363</ele>
        <time>2014-07-22T17:37:03Z</time>
      </trkpt>
      <trkpt lat="45.83123" lon="4.82459">
        <ele>362</ele>
        <time>2014-07-22T17:37:04Z</time>
      </trkpt>
      <trkpt lat="45.83121" lon="4.82478">
        <ele>362</ele>
        <time>2014-07-22T17:37:08Z</time>
      </trkpt>
      <trkpt lat="45.83121" lon="4.82482">
        <ele>362</ele>
        <time>2014-07-22T17:37:09Z</time>
      </trkpt>
      <trkpt lat="45.83119" lon="4.82495">
        <ele>363</ele>
        <time>2014-07-22T17:37:12Z</time>
      </trkpt>
      <trkpt lat="45.83116" lon="4.82508">
        <ele>358</ele>
        <time>2014-07-22T17:37:15Z</time>
      </trkpt>
      <trkpt lat="45.83114" lon="4.82521">
        <ele>358</ele>
        <time>2014-07-22T17:37:18Z</time>
      </trkpt>
      <trkpt lat="45.83111" lon="4.82536">
        <ele>357</ele>
        <time>2014-07-22T17:37:22Z</time>
      </trkpt>
      <trkpt lat="45.83111" lon="4.8254">
        <ele>357</ele>
        <time>2014-07-22T17:37:23Z</time>
      </trkpt>
      <trkpt lat="45.83108" lon="4.82558">
        <ele>356</ele>
        <time>2014-07-22T17:37:28Z</time>
      </trkpt>
      <trkpt lat="45.83107" lon="4.82564">
        <ele>357</ele>
        <time>2014-07-22T17:37:30Z</time>
      </trkpt>
      <trkpt lat="45.83104" lon="4.82576">
        <ele>358</ele>
        <time>2014-07-22T17:37:33Z</time>
      </trkpt>
      <trkpt lat="45.83099" lon="4.8259">
        <ele>353</ele>
        <time>2014-07-22T17:37:37Z</time>
      </trkpt>
      <trkpt lat="45.83098" lon="4.82594">
        <ele>352</ele>
        <time>2014-07-22T17:37:38Z</time>
      </trkpt>
      <trkpt lat="45.83092" lon="4.82612">
        <ele>349</ele>
        <time>2014-07-22T17:37:43Z</time>
      </trkpt>
      <trkpt lat="45.83091" lon="4.82615">
        <ele>348</ele>
        <time>2014-07-22T17:37:44Z</time>
      </trkpt>
      <trkpt lat="45.83087" lon="4.82625">
        <ele>346</ele>
        <time>2014-07-22T17:37:47Z</time>
      </trkpt>
      <trkpt lat="45.83083" lon="4.82638">
        <ele>366</ele>
        <time>2014-07-22T17:37:51Z</time>
      </trkpt>
      <trkpt lat="45.83082" lon="4.82642">
        <ele>365</ele>
        <time>2014-07-22T17:37:52Z</time>
      </trkpt>
      <trkpt lat="45.8307" lon="4.82661">
        <ele>360</ele>
        <time>2014-07-22T17:37:59Z</time>
      </trkpt>
      <trkpt lat="45.83069" lon="4.82663">
        <ele>360</ele>
        <time>2014-07-22T17:38:00Z</time>
      </trkpt>
      <trkpt lat="45.83062" lon="4.82678">
        <ele>353</ele>
        <time>2014-07-22T17:38:05Z</time>
      </trkpt>
      <trkpt lat="45.83057" lon="4.82685">
        <ele>354</ele>
        <time>2014-07-22T17:38:08Z</time>
      </trkpt>
      <trkpt lat="45.83052" lon="4.82691">
        <ele>355</ele>
        <time>2014-07-22T17:38:10Z</time>
      </trkpt>
      <trkpt lat="45.83046" lon="4.82708">
        <ele>354</ele>
        <time>2014-07-22T17:38:15Z</time>
      </trkpt>
      <trkpt lat="45.83042" lon="4.82725">
        <ele>353</ele>
        <time>2014-07-22T17:38:19Z</time>
      </trkpt>
      <trkpt lat="45.83037" lon="4.82732">
        <ele>353</ele>
        <time>2014-07-22T17:38:22Z</time>
      </trkpt>
      <trkpt lat="45.83033" lon="4.82737">
        <ele>353</ele>
        <time>2014-07-22T17:38:24Z</time>
      </trkpt>
      <trkpt lat="45.83024" lon="4.82751">
        <ele>344</ele>
        <time>2014-07-22T17:38:29Z</time>
      </trkpt>
      <trkpt lat="45.83012" lon="4.82762">
        <ele>347</ele>
        <time>2014-07-22T17:38:34Z</time>
      </trkpt>
      <trkpt lat="45.83009" lon="4.82768">
        <ele>345</ele>
        <time>2014-07-22T17:38:36Z</time>
      </trkpt>
      <trkpt lat="45.83004" lon="4.82774">
        <ele>344</ele>
        <time>2014-07-22T17:38:39Z</time>
      </trkpt>
      <trkpt lat="45.82995" lon="4.82785">
        <ele>358</ele>
        <time>2014-07-22T17:38:44Z</time>
      </trkpt>
      <trkpt lat="45.82987" lon="4.82801">
        <ele>355</ele>
        <time>2014-07-22T17:38:50Z</time>
      </trkpt>
      <trkpt lat="45.82983" lon="4.82808">
        <ele>354</ele>
        <time>2014-07-22T17:38:52Z</time>
      </trkpt>
      <trkpt lat="45.82975" lon="4.82819">
        <ele>354</ele>
        <time>2014-07-22T17:38:56Z</time>
      </trkpt>
      <trkpt lat="45.8297" lon="4.82828">
        <ele>354</ele>
        <time>2014-07-22T17:39:01Z</time>
      </trkpt>
      <trkpt lat="45.82968" lon="4.8283">
        <ele>354</ele>
        <time>2014-07-22T17:39:02Z</time>
      </trkpt>
      <trkpt lat="45.8296" lon="4.82841">
        <ele>343</ele>
        <time>2014-07-22T17:39:07Z</time>
      </trkpt>
      <trkpt lat="45.82953" lon="4.82842">
        <ele>344</ele>
        <time>2014-07-22T17:39:09Z</time>
      </trkpt>
      <trkpt lat="45.82948" lon="4.82846">
        <ele>345</ele>
        <time>2014-07-22T17:39:12Z</time>
      </trkpt>
      <trkpt lat="45.82938" lon="4.82856">
        <ele>345</ele>
        <time>2014-07-22T17:39:18Z</time>
      </trkpt>
      <trkpt lat="45.82935" lon="4.82857">
        <ele>346</ele>
        <time>2014-07-22T17:39:19Z</time>
      </trkpt>
      <trkpt lat="45.82927" lon="4.82864">
        <ele>345</ele>
        <time>2014-07-22T17:39:25Z</time>
      </trkpt>
      <trkpt lat="45.82917" lon="4.82868">
        <ele>345</ele>
        <time>2014-07-22T17:39:29Z</time>
      </trkpt>
      <trkpt lat="45.8291" lon="4.8287">
        <ele>354</ele>
        <time>2014-07-22T17:39:31Z</time>
      </trkpt>
      <trkpt lat="45.82899" lon="4.82873">
        <ele>353</ele>
        <time>2014-07-22T17:39:36Z</time>
      </trkpt>
      <trkpt lat="45.82897" lon="4.82875">
        <ele>353</ele>
        <time>2014-07-22T17:39:37Z</time>
      </trkpt>
      <trkpt lat="45.82887" lon="4.8288">
        <ele>353</ele>
        <time>2014-07-22T17:39:41Z</time>
      </trkpt>
      <trkpt lat="45.8288" lon="4.82882">
        <ele>353</ele>
        <time>2014-07-22T17:39:44Z</time>
      </trkpt>
      <trkpt lat="45.82875" lon="4.82882">
        <ele>354</ele>
        <time>2014-07-22T17:39:46Z</time>
      </trkpt>
      <trkpt lat="45.82861" lon="4.82882">
        <ele>355</ele>
        <time>2014-07-22T17:39:51Z</time>
      </trkpt>
      <trkpt lat="45.82858" lon="4.82882">
        <ele>355</ele>
        <time>2014-07-22T17:39:52Z</time>
      </trkpt>
      <trkpt lat="45.82846" lon="4.82882">
        <ele>355</ele>
        <time>2014-07-22T17:39:58Z</time>
      </trkpt>
      <trkpt lat="45.82841" lon="4.82883">
        <ele>355</ele>
        <time>2014-07-22T17:40:00Z</time>
      </trkpt>
      <trkpt lat="45.82834" lon="4.82884">
        <ele>355</ele>
        <time>2014-07-22T17:40:03Z</time>
      </trkpt>
      <trkpt lat="45.82823" lon="4.82888">
        <ele>357</ele>
        <time>2014-07-22T17:40:08Z</time>
      </trkpt>
      <trkpt lat="45.82814" lon="4.82888">
        <ele>358</ele>
        <time>2014-07-22T17:40:12Z</time>
      </trkpt>
      <trkpt lat="45.82803" lon="4.82889">
        <ele>358</ele>
        <time>2014-07-22T17:40:17Z</time>
      </trkpt>
      <trkpt lat="45.82792" lon="4.82888">
        <ele>358</ele>
        <time>2014-07-22T17:40:22Z</time>
      </trkpt>
      <trkpt lat="45.82785" lon="4.82887">
        <ele>358</ele>
        <time>2014-07-22T17:40:25Z</time>
      </trkpt>
      <trkpt lat="45.8278" lon="4.82888">
        <ele>358</ele>
        <time>2014-07-22T17:40:27Z</time>
      </trkpt>
      <trkpt lat="45.82767" lon="4.82888">
        <ele>357</ele>
        <time>2014-07-22T17:40:32Z</time>
      </trkpt>
      <trkpt lat="45.82765" lon="4.82888">
        <ele>357</ele>
        <time>2014-07-22T17:40:33Z</time>
      </trkpt>
      <trkpt lat="45.82751" lon="4.82886">
        <ele>357</ele>
        <time>2014-07-22T17:40:39Z</time>
      </trkpt>
      <trkpt lat="45.82749" lon="4.82885">
        <ele>352</ele>
        <time>2014-07-22T17:40:40Z</time>
      </trkpt>
      <trkpt lat="45.8274" lon="4.82884">
        <ele>352</ele>
        <time>2014-07-22T17:40:44Z</time>
      </trkpt>
      <trkpt lat="45.82738" lon="4.82884">
        <ele>352</ele>
        <time>2014-07-22T17:40:45Z</time>
      </trkpt>
      <trkpt lat="45.82732" lon="4.82881">
        <ele>352</ele>
        <time>2014-07-22T17:40:48Z</time>
      </trkpt>
      <trkpt lat="45.8273" lon="4.82879">
        <ele>352</ele>
        <time>2014-07-22T17:40:49Z</time>
      </trkpt>
      <trkpt lat="45.82728" lon="4.82877">
        <ele>352</ele>
        <time>2014-07-22T17:40:50Z</time>
      </trkpt>
      <trkpt lat="45.82719" lon="4.82872">
        <ele>352</ele>
        <time>2014-07-22T17:40:54Z</time>
      </trkpt>
      <trkpt lat="45.82713" lon="4.82866">
        <ele>353</ele>
        <time>2014-07-22T17:40:57Z</time>
      </trkpt>
      <trkpt lat="45.82706" lon="4.82859">
        <ele>352</ele>
        <time>2014-07-22T17:41:00Z</time>
      </trkpt>
      <trkpt lat="45.82698" lon="4.82848">
        <ele>352</ele>
        <time>2014-07-22T17:41:04Z</time>
      </trkpt>
      <trkpt lat="45.82694" lon="4.82844">
        <ele>352</ele>
        <time>2014-07-22T17:41:06Z</time>
      </trkpt>
      <trkpt lat="45.82693" lon="4.82841">
        <ele>352</ele>
        <time>2014-07-22T17:41:07Z</time>
      </trkpt>
      <trkpt lat="45.82689" lon="4.82833">
        <ele>360</ele>
        <time>2014-07-22T17:41:10Z</time>
      </trkpt>
      <trkpt lat="45.82686" lon="4.82827">
        <ele>360</ele>
        <time>2014-07-22T17:41:12Z</time>
      </trkpt>
      <trkpt lat="45.82684" lon="4.8282">
        <ele>360</ele>
        <time>2014-07-22T17:41:14Z</time>
      </trkpt>
      <trkpt lat="45.82676" lon="4.82803">
        <ele>363</ele>
        <time>2014-07-22T17:41:20Z</time>
      </trkpt>
      <trkpt lat="45.82675" lon="4.82799">
        <ele>363</ele>
        <time>2014-07-22T17:41:21Z</time>
      </trkpt>
      <trkpt lat="45.82671" lon="4.82791">
        <ele>364</ele>
        <time>2014-07-22T17:41:24Z</time>
      </trkpt>
      <trkpt lat="45.82673" lon="4.82787">
        <ele>364</ele>
        <time>2014-07-22T17:41:26Z</time>
      </trkpt>
      <trkpt lat="45.82678" lon="4.82789">
        <ele>364</ele>
        <time>2014-07-22T17:41:29Z</time>
      </trkpt>
      <trkpt lat="45.82679" lon="4.82791">
        <ele>364</ele>
        <time>2014-07-22T17:41:30Z</time>
      </trkpt>
      <trkpt lat="45.82681" lon="4.82792">
        <ele>364</ele>
        <time>2014-07-22T17:41:31Z</time>
      </trkpt>
      <trkpt lat="45.82687" lon="4.82796">
        <ele>365</ele>
        <time>2014-07-22T17:41:35Z</time>
      </trkpt>
      <trkpt lat="45.82689" lon="4.82797">
        <ele>365</ele>
        <time>2014-07-22T17:41:36Z</time>
      </trkpt>
      <trkpt lat="45.82694" lon="4.82799">
        <ele>365</ele>
        <time>2014-07-22T17:41:39Z</time>
      </trkpt>
      <trkpt lat="45.82696" lon="4.82798">
        <ele>365</ele>
        <time>2014-07-22T17:41:40Z</time>
      </trkpt>
      <trkpt lat="45.82705" lon="4.82796">
        <ele>367</ele>
        <time>2014-07-22T17:41:46Z</time>
      </trkpt>
      <trkpt lat="45.82708" lon="4.82793">
        <ele>367</ele>
        <time>2014-07-22T17:41:49Z</time>
      </trkpt>
      <trkpt lat="45.82711" lon="4.82794">
        <ele>368</ele>
        <time>2014-07-22T17:41:51Z</time>
      </trkpt>
      <trkpt lat="45.82715" lon="4.82795">
        <ele>368</ele>
        <time>2014-07-22T17:41:54Z</time>
      </trkpt>
      <trkpt lat="45.82716" lon="4.82795">
        <ele>368</ele>
        <time>2014-07-22T17:41:55Z</time>
      </trkpt>
      <trkpt lat="45.82717" lon="4.82795">
        <ele>368</ele>
        <time>2014-07-22T17:41:56Z</time>
      </trkpt>
      <trkpt lat="45.82722" lon="4.82795">
        <ele>369</ele>
        <time>2014-07-22T17:42:01Z</time>
      </trkpt>
      <trkpt lat="45.82727" lon="4.82798">
        <ele>369</ele>
        <time>2014-07-22T17:42:06Z</time>
      </trkpt>
      <trkpt lat="45.82731" lon="4.82801">
        <ele>369</ele>
        <time>2014-07-22T17:42:08Z</time>
      </trkpt>
      <trkpt lat="45.82733" lon="4.82802">
        <ele>369</ele>
        <time>2014-07-22T17:42:09Z</time>
      </trkpt>
      <trkpt lat="45.82741" lon="4.82807">
        <ele>369</ele>
        <time>2014-07-22T17:42:14Z</time>
      </trkpt>
      <trkpt lat="45.82742" lon="4.82807">
        <ele>369</ele>
        <time>2014-07-22T17:42:16Z</time>
      </trkpt>
      <trkpt lat="45.82742" lon="4.82807">
        <ele>369</ele>
        <time>2014-07-22T17:42:18Z</time>
      </trkpt>
      <trkpt lat="45.82749" lon="4.82803">
        <ele>370</ele>
        <time>2014-07-22T17:42:25Z</time>
      </trkpt>
      <trkpt lat="45.82754" lon="4.82802">
        <ele>378</ele>
        <time>2014-07-22T17:42:29Z</time>
      </trkpt>
      <trkpt lat="45.82755" lon="4.82801">
        <ele>378</ele>
        <time>2014-07-22T17:42:31Z</time>
      </trkpt>
      <trkpt lat="45.82756" lon="4.828">
        <ele>379</ele>
        <time>2014-07-22T17:42:32Z</time>
      </trkpt>
      <trkpt lat="45.8276" lon="4.82801">
        <ele>379</ele>
        <time>2014-07-22T17:42:34Z</time>
      </trkpt>
      <trkpt lat="45.82762" lon="4.82803">
        <ele>378</ele>
        <time>2014-07-22T17:42:36Z</time>
      </trkpt>
      <trkpt lat="45.82762" lon="4.82809">
        <ele>377</ele>
        <time>2014-07-22T17:42:42Z</time>
      </trkpt>
      <trkpt lat="45.82762" lon="4.82811">
        <ele>377</ele>
        <time>2014-07-22T17:42:43Z</time>
      </trkpt>
      <trkpt lat="45.82763" lon="4.82812">
        <ele>376</ele>
        <time>2014-07-22T17:42:44Z</time>
      </trkpt>
      <trkpt lat="45.82762" lon="4.82817">
        <ele>375</ele>
        <time>2014-07-22T17:42:47Z</time>
      </trkpt>
      <trkpt lat="45.82764" lon="4.82824">
        <ele>374</ele>
        <time>2014-07-22T17:42:50Z</time>
      </trkpt>
      <trkpt lat="45.82765" lon="4.82829">
        <ele>374</ele>
        <time>2014-07-22T17:42:52Z</time>
      </trkpt>
      <trkpt lat="45.82766" lon="4.82832">
        <ele>373</ele>
        <time>2014-07-22T17:42:54Z</time>
      </trkpt>
      <trkpt lat="45.82765" lon="4.82834">
        <ele>364</ele>
        <time>2014-07-22T17:42:56Z</time>
      </trkpt>
      <trkpt lat="45.82765" lon="4.82835">
        <ele>364</ele>
        <time>2014-07-22T17:42:57Z</time>
      </trkpt>
      <trkpt lat="45.82765" lon="4.82836">
        <ele>364</ele>
        <time>2014-07-22T17:42:58Z</time>
      </trkpt>
      <trkpt lat="45.82766" lon="4.82839">
        <ele>364</ele>
        <time>2014-07-22T17:43:02Z</time>
      </trkpt>
      <trkpt lat="45.82774" lon="4.82841">
        <ele>363</ele>
        <time>2014-07-22T17:43:10Z</time>
      </trkpt>
      <trkpt lat="45.82776" lon="4.82839">
        <ele>363</ele>
        <time>2014-07-22T17:43:17Z</time>
      </trkpt>
      <trkpt lat="45.82778" lon="4.82836">
        <ele>363</ele>
        <time>2014-07-22T17:43:25Z</time>
      </trkpt>
      <trkpt lat="45.8278" lon="4.82834">
        <ele>363</ele>
        <time>2014-07-22T17:43:27Z</time>
      </trkpt>
      <trkpt lat="45.8278" lon="4.82831">
        <ele>376</ele>
        <time>2014-07-22T17:43:29Z</time>
      </trkpt>
      <trkpt lat="45.82781" lon="4.8283">
        <ele>376</ele>
        <time>2014-07-22T17:43:31Z</time>
      </trkpt>
      <trkpt lat="45.82784" lon="4.82829">
        <ele>377</ele>
        <time>2014-07-22T17:43:34Z</time>
      </trkpt>
      <trkpt lat="45.82784" lon="4.82828">
        <ele>377</ele>
        <time>2014-07-22T17:43:35Z</time>
      </trkpt>
      <trkpt lat="45.82785" lon="4.82824">
        <ele>377</ele>
        <time>2014-07-22T17:43:39Z</time>
      </trkpt>
      <trkpt lat="45.82783" lon="4.82814">
        <ele>378</ele>
        <time>2014-07-22T17:43:57Z</time>
      </trkpt>
      <trkpt lat="45.82785" lon="4.82806">
        <ele>379</ele>
        <time>2014-07-22T17:44:05Z</time>
      </trkpt>
      <trkpt lat="45.82783" lon="4.82795">
        <ele>381</ele>
        <time>2014-07-22T17:44:16Z</time>
      </trkpt>
      <trkpt lat="45.82782" lon="4.82791">
        <ele>381</ele>
        <time>2014-07-22T17:44:20Z</time>
      </trkpt>
      <trkpt lat="45.82783" lon="4.82781">
        <ele>383</ele>
        <time>2014-07-22T17:44:27Z</time>
      </trkpt>
      <trkpt lat="45.82783" lon="4.82779">
        <ele>383</ele>
        <time>2014-07-22T17:44:34Z</time>
      </trkpt>
      <trkpt lat="45.82784" lon="4.82777">
        <ele>383</ele>
        <time>2014-07-22T17:44:40Z</time>
      </trkpt>
      <trkpt lat="45.82781" lon="4.82772">
        <ele>384</ele>
        <time>2014-07-22T17:44:46Z</time>
      </trkpt>
      <trkpt lat="45.82777" lon="4.82774">
        <ele>384</ele>
        <time>2014-07-22T17:44:49Z</time>
      </trkpt>
      <trkpt lat="45.82769" lon="4.82771">
        <ele>384</ele>
        <time>2014-07-22T17:44:56Z</time>
      </trkpt>
      <trkpt lat="45.82768" lon="4.82771">
        <ele>384</ele>
        <time>2014-07-22T17:44:57Z</time>
      </trkpt>
      <trkpt lat="45.82765" lon="4.82768">
        <ele>385</ele>
        <time>2014-07-22T17:45:02Z</time>
      </trkpt>
      <trkpt lat="45.82765" lon="4.82766">
        <ele>385</ele>
        <time>2014-07-22T17:45:03Z</time>
      </trkpt>
      <trkpt lat="45.82767" lon="4.8276">
        <ele>385</ele>
        <time>2014-07-22T17:45:06Z</time>
      </trkpt>
      <trkpt lat="45.82766" lon="4.82753">
        <ele>386</ele>
        <time>2014-07-22T17:45:11Z</time>
      </trkpt>
      <trkpt lat="45.82765" lon="4.82746">
        <ele>395</ele>
        <time>2014-07-22T17:45:15Z</time>
      </trkpt>
      <trkpt lat="45.82763" lon="4.82743">
        <ele>395</ele>
        <time>2014-07-22T17:45:18Z</time>
      </trkpt>
      <trkpt lat="45.82763" lon="4.8274">
        <ele>395</ele>
        <time>2014-07-22T17:45:24Z</time>
      </trkpt>
      <trkpt lat="45.82764" lon="4.82734">
        <ele>397</ele>
        <time>2014-07-22T17:45:33Z</time>
      </trkpt>
      <trkpt lat="45.8277" lon="4.82733">
        <ele>397</ele>
        <time>2014-07-22T17:45:37Z</time>
      </trkpt>
      <trkpt lat="45.82771" lon="4.82731">
        <ele>398</ele>
        <time>2014-07-22T17:45:38Z</time>
      </trkpt>
      <trkpt lat="45.82772" lon="4.8273">
        <ele>398</ele>
        <time>2014-07-22T17:45:39Z</time>
      </trkpt>
      <trkpt lat="45.82779" lon="4.82728">
        <ele>399</ele>
        <time>2014-07-22T17:45:43Z</time>
      </trkpt>
      <trkpt lat="45.8278" lon="4.82727">
        <ele>399</ele>
        <time>2014-07-22T17:45:44Z</time>
      </trkpt>
      <trkpt lat="45.8278" lon="4.82726">
        <ele>399</ele>
        <time>2014-07-22T17:45:45Z</time>
      </trkpt>
      <trkpt lat="45.82782" lon="4.82725">
        <ele>400</ele>
        <time>2014-07-22T17:45:47Z</time>
      </trkpt>
      <trkpt lat="45.82785" lon="4.82721">
        <ele>400</ele>
        <time>2014-07-22T17:45:49Z</time>
      </trkpt>
      <trkpt lat="45.82788" lon="4.82721">
        <ele>401</ele>
        <time>2014-07-22T17:45:51Z</time>
      </trkpt>
      <trkpt lat="45.82789" lon="4.82719">
        <ele>401</ele>
        <time>2014-07-22T17:45:52Z</time>
      </trkpt>
      <trkpt lat="45.82793" lon="4.82715">
        <ele>401</ele>
        <time>2014-07-22T17:45:57Z</time>
      </trkpt>
      <trkpt lat="45.82793" lon="4.82715">
        <ele>401</ele>
        <time>2014-07-22T17:45:58Z</time>
      </trkpt>
      <trkpt lat="45.82798" lon="4.82708">
        <ele>402</ele>
        <time>2014-07-22T17:46:03Z</time>
      </trkpt>
      <trkpt lat="45.82801" lon="4.82703">
        <ele>403</ele>
        <time>2014-07-22T17:46:06Z</time>
      </trkpt>
      <trkpt lat="45.82802" lon="4.827">
        <ele>403</ele>
        <time>2014-07-22T17:46:09Z</time>
      </trkpt>
      <trkpt lat="45.82805" lon="4.82691">
        <ele>404</ele>
        <time>2014-07-22T17:46:14Z</time>
      </trkpt>
      <trkpt lat="45.82806" lon="4.82683">
        <ele>406</ele>
        <time>2014-07-22T17:46:19Z</time>
      </trkpt>
      <trkpt lat="45.82807" lon="4.82682">
        <ele>406</ele>
        <time>2014-07-22T17:46:20Z</time>
      </trkpt>
      <trkpt lat="45.82808" lon="4.82679">
        <ele>406</ele>
        <time>2014-07-22T17:46:22Z</time>
      </trkpt>
      <trkpt lat="45.82808" lon="4.82678">
        <ele>406</ele>
        <time>2014-07-22T17:46:23Z</time>
      </trkpt>
      <trkpt lat="45.82807" lon="4.82677">
        <ele>406</ele>
        <time>2014-07-22T17:46:24Z</time>
      </trkpt>
      <trkpt lat="45.82803" lon="4.82675">
        <ele>406</ele>
        <time>2014-07-22T17:46:32Z</time>
      </trkpt>
      <trkpt lat="45.82803" lon="4.82671">
        <ele>406</ele>
        <time>2014-07-22T17:46:35Z</time>
      </trkpt>
      <trkpt lat="45.82803" lon="4.82666">
        <ele>414</ele>
        <time>2014-07-22T17:46:39Z</time>
      </trkpt>
      <trkpt lat="45.82801" lon="4.82652">
        <ele>415</ele>
        <time>2014-07-22T17:46:45Z</time>
      </trkpt>
      <trkpt lat="45.82801" lon="4.82651">
        <ele>415</ele>
        <time>2014-07-22T17:46:46Z</time>
      </trkpt>
      <trkpt lat="45.82796" lon="4.8264">
        <ele>415</ele>
        <time>2014-07-22T17:46:53Z</time>
      </trkpt>
      <trkpt lat="45.82794" lon="4.8263">
        <ele>416</ele>
        <time>2014-07-22T17:46:58Z</time>
      </trkpt>
      <trkpt lat="45.82793" lon="4.82627">
        <ele>416</ele>
        <time>2014-07-22T17:47:00Z</time>
      </trkpt>
      <trkpt lat="45.82792" lon="4.8262">
        <ele>416</ele>
        <time>2014-07-22T17:47:04Z</time>
      </trkpt>
      <trkpt lat="45.82791" lon="4.82616">
        <ele>417</ele>
        <time>2014-07-22T17:47:06Z</time>
      </trkpt>
      <trkpt lat="45.8279" lon="4.82615">
        <ele>417</ele>
        <time>2014-07-22T17:47:07Z</time>
      </trkpt>
      <trkpt lat="45.8279" lon="4.82613">
        <ele>417</ele>
        <time>2014-07-22T17:47:08Z</time>
      </trkpt>
      <trkpt lat="45.82788" lon="4.82603">
        <ele>417</ele>
        <time>2014-07-22T17:47:13Z</time>
      </trkpt>
      <trkpt lat="45.82787" lon="4.82601">
        <ele>417</ele>
        <time>2014-07-22T17:47:14Z</time>
      </trkpt>
      <trkpt lat="45.82785" lon="4.82595">
        <ele>417</ele>
        <time>2014-07-22T17:47:18Z</time>
      </trkpt>
      <trkpt lat="45.82783" lon="4.82584">
        <ele>418</ele>
        <time>2014-07-22T17:47:24Z</time>
      </trkpt>
      <trkpt lat="45.82783" lon="4.82579">
        <ele>425</ele>
        <time>2014-07-22T17:47:27Z</time>
      </trkpt>
      <trkpt lat="45.82783" lon="4.8257">
        <ele>425</ele>
        <time>2014-07-22T17:47:30Z</time>
      </trkpt>
      <trkpt lat="45.82783" lon="4.82553">
        <ele>426</ele>
        <time>2014-07-22T17:47:38Z</time>
      </trkpt>
      <trkpt lat="45.82784" lon="4.82547">
        <ele>427</ele>
        <time>2014-07-22T17:47:41Z</time>
      </trkpt>
      <trkpt lat="45.82785" lon="4.82544">
        <ele>427</ele>
        <time>2014-07-22T17:47:43Z</time>
      </trkpt>
      <trkpt lat="45.82786" lon="4.82543">
        <ele>427</ele>
        <time>2014-07-22T17:47:44Z</time>
      </trkpt>
      <trkpt lat="45.82789" lon="4.82539">
        <ele>428</ele>
        <time>2014-07-22T17:47:47Z</time>
      </trkpt>
      <trkpt lat="45.8279" lon="4.82532">
        <ele>428</ele>
        <time>2014-07-22T17:47:52Z</time>
      </trkpt>
      <trkpt lat="45.8279" lon="4.8253">
        <ele>428</ele>
        <time>2014-07-22T17:47:53Z</time>
      </trkpt>
      <trkpt lat="45.82791" lon="4.82528">
        <ele>428</ele>
        <time>2014-07-22T17:47:54Z</time>
      </trkpt>
      <trkpt lat="45.82793" lon="4.82527">
        <ele>429</ele>
        <time>2014-07-22T17:47:57Z</time>
      </trkpt>
      <trkpt lat="45.82794" lon="4.82526">
        <ele>429</ele>
        <time>2014-07-22T17:47:58Z</time>
      </trkpt>
      <trkpt lat="45.82797" lon="4.8253">
        <ele>428</ele>
        <time>2014-07-22T17:48:02Z</time>
      </trkpt>
      <trkpt lat="45.828" lon="4.8253">
        <ele>429</ele>
        <time>2014-07-22T17:48:05Z</time>
      </trkpt>
      <trkpt lat="45.82801" lon="4.82528">
        <ele>429</ele>
        <time>2014-07-22T17:48:06Z</time>
      </trkpt>
      <trkpt lat="45.82804" lon="4.82524">
        <ele>429</ele>
        <time>2014-07-22T17:48:08Z</time>
      </trkpt>
      <trkpt lat="45.82805" lon="4.82523">
        <ele>429</ele>
        <time>2014-07-22T17:48:09Z</time>
      </trkpt>
      <trkpt lat="45.82808" lon="4.82519">
        <ele>430</ele>
        <time>2014-07-22T17:48:12Z</time>
      </trkpt>
      <trkpt lat="45.8281" lon="4.82514">
        <ele>430</ele>
        <time>2014-07-22T17:48:16Z</time>
      </trkpt>
      <trkpt lat="45.82814" lon="4.82509">
        <ele>431</ele>
        <time>2014-07-22T17:48:21Z</time>
      </trkpt>
      <trkpt lat="45.82817" lon="4.82503">
        <ele>432</ele>
        <time>2014-07-22T17:48:24Z</time>
      </trkpt>
      <trkpt lat="45.82818" lon="4.825">
        <ele>432</ele>
        <time>2014-07-22T17:48:26Z</time>
      </trkpt>
      <trkpt lat="45.82819" lon="4.82497">
        <ele>436</ele>
        <time>2014-07-22T17:48:27Z</time>
      </trkpt>
      <trkpt lat="45.82819" lon="4.82494">
        <ele>436</ele>
        <time>2014-07-22T17:48:28Z</time>
      </trkpt>
      <trkpt lat="45.82822" lon="4.82487">
        <ele>436</ele>
        <time>2014-07-22T17:48:31Z</time>
      </trkpt>
      <trkpt lat="45.82826" lon="4.8248">
        <ele>436</ele>
        <time>2014-07-22T17:48:34Z</time>
      </trkpt>
      <trkpt lat="45.82828" lon="4.82474">
        <ele>436</ele>
        <time>2014-07-22T17:48:36Z</time>
      </trkpt>
      <trkpt lat="45.82834" lon="4.82464">
        <ele>435</ele>
        <time>2014-07-22T17:48:40Z</time>
      </trkpt>
      <trkpt lat="45.82835" lon="4.82461">
        <ele>435</ele>
        <time>2014-07-22T17:48:41Z</time>
      </trkpt>
      <trkpt lat="45.82838" lon="4.82457">
        <ele>435</ele>
        <time>2014-07-22T17:48:43Z</time>
      </trkpt>
      <trkpt lat="45.82842" lon="4.82452">
        <ele>435</ele>
        <time>2014-07-22T17:48:46Z</time>
      </trkpt>
      <trkpt lat="45.82847" lon="4.82445">
        <ele>436</ele>
        <time>2014-07-22T17:48:50Z</time>
      </trkpt>
      <trkpt lat="45.82849" lon="4.82441">
        <ele>436</ele>
        <time>2014-07-22T17:48:52Z</time>
      </trkpt>
      <trkpt lat="45.82852" lon="4.82439">
        <ele>436</ele>
        <time>2014-07-22T17:48:57Z</time>
      </trkpt>
      <trkpt lat="45.82853" lon="4.82436">
        <ele>436</ele>
        <time>2014-07-22T17:48:58Z</time>
      </trkpt>
      <trkpt lat="45.82857" lon="4.82427">
        <ele>436</ele>
        <time>2014-07-22T17:49:01Z</time>
      </trkpt>
      <trkpt lat="45.8286" lon="4.82423">
        <ele>436</ele>
        <time>2014-07-22T17:49:03Z</time>
      </trkpt>
      <trkpt lat="45.82864" lon="4.8242">
        <ele>436</ele>
        <time>2014-07-22T17:49:05Z</time>
      </trkpt>
      <trkpt lat="45.82864" lon="4.82418">
        <ele>436</ele>
        <time>2014-07-22T17:49:06Z</time>
      </trkpt>
      <trkpt lat="45.82865" lon="4.82415">
        <ele>437</ele>
        <time>2014-07-22T17:49:07Z</time>
      </trkpt>
      <trkpt lat="45.82863" lon="4.82415">
        <ele>437</ele>
        <time>2014-07-22T17:49:09Z</time>
      </trkpt>
      <trkpt lat="45.82862" lon="4.82417">
        <ele>437</ele>
        <time>2014-07-22T17:49:10Z</time>
      </trkpt>
      <trkpt lat="45.82857" lon="4.82431">
        <ele>436</ele>
        <time>2014-07-22T17:49:15Z</time>
      </trkpt>
      <trkpt lat="45.82853" lon="4.82438">
        <ele>436</ele>
        <time>2014-07-22T17:49:18Z</time>
      </trkpt>
      <trkpt lat="45.82849" lon="4.82443">
        <ele>436</ele>
        <time>2014-07-22T17:49:20Z</time>
      </trkpt>
      <trkpt lat="45.82844" lon="4.82451">
        <ele>435</ele>
        <time>2014-07-22T17:49:23Z</time>
      </trkpt>
      <trkpt lat="45.82841" lon="4.82456">
        <ele>435</ele>
        <time>2014-07-22T17:49:25Z</time>
      </trkpt>
      <trkpt lat="45.82834" lon="4.82465">
        <ele>435</ele>
        <time>2014-07-22T17:49:29Z</time>
      </trkpt>
      <trkpt lat="45.82833" lon="4.82467">
        <ele>436</ele>
        <time>2014-07-22T17:49:30Z</time>
      </trkpt>
      <trkpt lat="45.82832" lon="4.8247">
        <ele>436</ele>
        <time>2014-07-22T17:49:31Z</time>
      </trkpt>
      <trkpt lat="45.82827" lon="4.8248">
        <ele>436</ele>
        <time>2014-07-22T17:49:35Z</time>
      </trkpt>
      <trkpt lat="45.82823" lon="4.82488">
        <ele>436</ele>
        <time>2014-07-22T17:49:39Z</time>
      </trkpt>
      <trkpt lat="45.82822" lon="4.82492">
        <ele>436</ele>
        <time>2014-07-22T17:49:41Z</time>
      </trkpt>
      <trkpt lat="45.82819" lon="4.82502">
        <ele>432</ele>
        <time>2014-07-22T17:49:45Z</time>
      </trkpt>
      <trkpt lat="45.82813" lon="4.82514">
        <ele>430</ele>
        <time>2014-07-22T17:49:50Z</time>
      </trkpt>
      <trkpt lat="45.82811" lon="4.82518">
        <ele>430</ele>
        <time>2014-07-22T17:49:51Z</time>
      </trkpt>
      <trkpt lat="45.828" lon="4.82534">
        <ele>428</ele>
        <time>2014-07-22T17:49:58Z</time>
      </trkpt>
      <trkpt lat="45.82798" lon="4.82535">
        <ele>428</ele>
        <time>2014-07-22T17:49:59Z</time>
      </trkpt>
      <trkpt lat="45.82795" lon="4.82532">
        <ele>428</ele>
        <time>2014-07-22T17:50:02Z</time>
      </trkpt>
      <trkpt lat="45.82795" lon="4.82531">
        <ele>428</ele>
        <time>2014-07-22T17:50:03Z</time>
      </trkpt>
      <trkpt lat="45.82793" lon="4.8253">
        <ele>428</ele>
        <time>2014-07-22T17:50:05Z</time>
      </trkpt>
      <trkpt lat="45.8279" lon="4.82533">
        <ele>428</ele>
        <time>2014-07-22T17:50:09Z</time>
      </trkpt>
      <trkpt lat="45.82789" lon="4.82534">
        <ele>428</ele>
        <time>2014-07-22T17:50:10Z</time>
      </trkpt>
      <trkpt lat="45.82789" lon="4.82544">
        <ele>427</ele>
        <time>2014-07-22T17:50:13Z</time>
      </trkpt>
      <trkpt lat="45.82787" lon="4.82548">
        <ele>427</ele>
        <time>2014-07-22T17:50:14Z</time>
      </trkpt>
      <trkpt lat="45.82781" lon="4.82567">
        <ele>425</ele>
        <time>2014-07-22T17:50:20Z</time>
      </trkpt>
      <trkpt lat="45.82781" lon="4.82589">
        <ele>417</ele>
        <time>2014-07-22T17:50:25Z</time>
      </trkpt>
      <trkpt lat="45.82782" lon="4.82594">
        <ele>417</ele>
        <time>2014-07-22T17:50:26Z</time>
      </trkpt>
      <trkpt lat="45.82786" lon="4.82608">
        <ele>417</ele>
        <time>2014-07-22T17:50:29Z</time>
      </trkpt>
      <trkpt lat="45.82789" lon="4.82621">
        <ele>416</ele>
        <time>2014-07-22T17:50:32Z</time>
      </trkpt>
      <trkpt lat="45.8279" lon="4.82625">
        <ele>416</ele>
        <time>2014-07-22T17:50:33Z</time>
      </trkpt>
      <trkpt lat="45.82796" lon="4.82642">
        <ele>415</ele>
        <time>2014-07-22T17:50:37Z</time>
      </trkpt>
      <trkpt lat="45.82797" lon="4.82646">
        <ele>415</ele>
        <time>2014-07-22T17:50:38Z</time>
      </trkpt>
      <trkpt lat="45.82807" lon="4.82669">
        <ele>407</ele>
        <time>2014-07-22T17:50:43Z</time>
      </trkpt>
      <trkpt lat="45.82807" lon="4.82696">
        <ele>404</ele>
        <time>2014-07-22T17:50:49Z</time>
      </trkpt>
      <trkpt lat="45.828" lon="4.82713">
        <ele>402</ele>
        <time>2014-07-22T17:50:53Z</time>
      </trkpt>
      <trkpt lat="45.82794" lon="4.8272">
        <ele>401</ele>
        <time>2014-07-22T17:50:55Z</time>
      </trkpt>
      <trkpt lat="45.82789" lon="4.82726">
        <ele>400</ele>
        <time>2014-07-22T17:50:57Z</time>
      </trkpt>
      <trkpt lat="45.82785" lon="4.82728">
        <ele>400</ele>
        <time>2014-07-22T17:50:58Z</time>
      </trkpt>
      <trkpt lat="45.82775" lon="4.82732">
        <ele>398</ele>
        <time>2014-07-22T17:51:01Z</time>
      </trkpt>
      <trkpt lat="45.82768" lon="4.82734">
        <ele>397</ele>
        <time>2014-07-22T17:51:03Z</time>
      </trkpt>
      <trkpt lat="45.82755" lon="4.82739">
        <ele>394</ele>
        <time>2014-07-22T17:51:06Z</time>
      </trkpt>
      <trkpt lat="45.82752" lon="4.8274">
        <ele>393</ele>
        <time>2014-07-22T17:51:07Z</time>
      </trkpt>
      <trkpt lat="45.82734" lon="4.8274">
        <ele>387</ele>
        <time>2014-07-22T17:51:11Z</time>
      </trkpt>
      <trkpt lat="45.82731" lon="4.8274">
        <ele>386</ele>
        <time>2014-07-22T17:51:12Z</time>
      </trkpt>
      <trkpt lat="45.82721" lon="4.82735">
        <ele>385</ele>
        <time>2014-07-22T17:51:15Z</time>
      </trkpt>
      <trkpt lat="45.82718" lon="4.82732">
        <ele>385</ele>
        <time>2014-07-22T17:51:16Z</time>
      </trkpt>
      <trkpt lat="45.82715" lon="4.82728">
        <ele>385</ele>
        <time>2014-07-22T17:51:17Z</time>
      </trkpt>
      <trkpt lat="45.82705" lon="4.8272">
        <ele>384</ele>
        <time>2014-07-22T17:51:20Z</time>
      </trkpt>
      <trkpt lat="45.82701" lon="4.82718">
        <ele>383</ele>
        <time>2014-07-22T17:51:21Z</time>
      </trkpt>
      <trkpt lat="45.82689" lon="4.8271">
        <ele>383</ele>
        <time>2014-07-22T17:51:24Z</time>
      </trkpt>
      <trkpt lat="45.82684" lon="4.82702">
        <ele>383</ele>
        <time>2014-07-22T17:51:26Z</time>
      </trkpt>
      <trkpt lat="45.8268" lon="4.82696">
        <ele>383</ele>
        <time>2014-07-22T17:51:28Z</time>
      </trkpt>
      <trkpt lat="45.8267" lon="4.82692">
        <ele>383</ele>
        <time>2014-07-22T17:51:32Z</time>
      </trkpt>
      <trkpt lat="45.82668" lon="4.8269">
        <ele>383</ele>
        <time>2014-07-22T17:51:33Z</time>
      </trkpt>
      <trkpt lat="45.82665" lon="4.82689">
        <ele>372</ele>
        <time>2014-07-22T17:51:34Z</time>
      </trkpt>
      <trkpt lat="45.82654" lon="4.82681">
        <ele>373</ele>
        <time>2014-07-22T17:51:37Z</time>
      </trkpt>
      <trkpt lat="45.82651" lon="4.82679">
        <ele>373</ele>
        <time>2014-07-22T17:51:38Z</time>
      </trkpt>
      <trkpt lat="45.82639" lon="4.82669">
        <ele>371</ele>
        <time>2014-07-22T17:51:42Z</time>
      </trkpt>
      <trkpt lat="45.82633" lon="4.82665">
        <ele>383</ele>
        <time>2014-07-22T17:51:44Z</time>
      </trkpt>
      <trkpt lat="45.82623" lon="4.82662">
        <ele>382</ele>
        <time>2014-07-22T17:51:47Z</time>
      </trkpt>
      <trkpt lat="45.82616" lon="4.82659">
        <ele>381</ele>
        <time>2014-07-22T17:51:49Z</time>
      </trkpt>
      <trkpt lat="45.82608" lon="4.82654">
        <ele>380</ele>
        <time>2014-07-22T17:51:52Z</time>
      </trkpt>
      <trkpt lat="45.82598" lon="4.82652">
        <ele>378</ele>
        <time>2014-07-22T17:51:55Z</time>
      </trkpt>
      <trkpt lat="45.82592" lon="4.8265">
        <ele>377</ele>
        <time>2014-07-22T17:51:57Z</time>
      </trkpt>
      <trkpt lat="45.8258" lon="4.82645">
        <ele>373</ele>
        <time>2014-07-22T17:52:01Z</time>
      </trkpt>
      <trkpt lat="45.82577" lon="4.82645">
        <ele>373</ele>
        <time>2014-07-22T17:52:02Z</time>
      </trkpt>
      <trkpt lat="45.82571" lon="4.82646">
        <ele>373</ele>
        <time>2014-07-22T17:52:04Z</time>
      </trkpt>
      <trkpt lat="45.82565" lon="4.82647">
        <ele>373</ele>
        <time>2014-07-22T17:52:06Z</time>
      </trkpt>
      <trkpt lat="45.82562" lon="4.82648">
        <ele>373</ele>
        <time>2014-07-22T17:52:07Z</time>
      </trkpt>
      <trkpt lat="45.8256" lon="4.82648">
        <ele>373</ele>
        <time>2014-07-22T17:52:08Z</time>
      </trkpt>
      <trkpt lat="45.82553" lon="4.82654">
        <ele>372</ele>
        <time>2014-07-22T17:52:11Z</time>
      </trkpt>
      <trkpt lat="45.82552" lon="4.82657">
        <ele>372</ele>
        <time>2014-07-22T17:52:12Z</time>
      </trkpt>
      <trkpt lat="45.82549" lon="4.82668">
        <ele>358</ele>
        <time>2014-07-22T17:52:15Z</time>
      </trkpt>
      <trkpt lat="45.82546" lon="4.82675">
        <ele>358</ele>
        <time>2014-07-22T17:52:17Z</time>
      </trkpt>
      <trkpt lat="45.82542" lon="4.82688">
        <ele>356</ele>
        <time>2014-07-22T17:52:20Z</time>
      </trkpt>
      <trkpt lat="45.82541" lon="4.82693">
        <ele>356</ele>
        <time>2014-07-22T17:52:21Z</time>
      </trkpt>
      <trkpt lat="45.82534" lon="4.82703">
        <ele>355</ele>
        <time>2014-07-22T17:52:24Z</time>
      </trkpt>
      <trkpt lat="45.82526" lon="4.82711">
        <ele>354</ele>
        <time>2014-07-22T17:52:27Z</time>
      </trkpt>
      <trkpt lat="45.82524" lon="4.82713">
        <ele>354</ele>
        <time>2014-07-22T17:52:28Z</time>
      </trkpt>
      <trkpt lat="45.8252" lon="4.82713">
        <ele>353</ele>
        <time>2014-07-22T17:52:29Z</time>
      </trkpt>
      <trkpt lat="45.82516" lon="4.82714">
        <ele>353</ele>
        <time>2014-07-22T17:52:32Z</time>
      </trkpt>
      <trkpt lat="45.82515" lon="4.82713">
        <ele>353</ele>
        <time>2014-07-22T17:52:33Z</time>
      </trkpt>
      <trkpt lat="45.82516" lon="4.82713">
        <ele>353</ele>
        <time>2014-07-22T17:52:34Z</time>
      </trkpt>
      <trkpt lat="45.8251" lon="4.82713">
        <ele>353</ele>
        <time>2014-07-22T17:52:37Z</time>
      </trkpt>
      <trkpt lat="45.82507" lon="4.82713">
        <ele>353</ele>
        <time>2014-07-22T17:52:38Z</time>
      </trkpt>
      <trkpt lat="45.82489" lon="4.82714">
        <ele>350</ele>
        <time>2014-07-22T17:52:44Z</time>
      </trkpt>
      <trkpt lat="45.82476" lon="4.82709">
        <ele>350</ele>
        <time>2014-07-22T17:52:49Z</time>
      </trkpt>
      <trkpt lat="45.82471" lon="4.82708">
        <ele>350</ele>
        <time>2014-07-22T17:52:51Z</time>
      </trkpt>
      <trkpt lat="45.82459" lon="4.82706">
        <ele>350</ele>
        <time>2014-07-22T17:52:55Z</time>
      </trkpt>
      <trkpt lat="45.82451" lon="4.82705">
        <ele>350</ele>
        <time>2014-07-22T17:52:58Z</time>
      </trkpt>
      <trkpt lat="45.82442" lon="4.82703">
        <ele>350</ele>
        <time>2014-07-22T17:53:01Z</time>
      </trkpt>
      <trkpt lat="45.82432" lon="4.82702">
        <ele>350</ele>
        <time>2014-07-22T17:53:05Z</time>
      </trkpt>
      <trkpt lat="45.82418" lon="4.82696">
        <ele>350</ele>
        <time>2014-07-22T17:53:10Z</time>
      </trkpt>
      <trkpt lat="45.82415" lon="4.82695">
        <ele>348</ele>
        <time>2014-07-22T17:53:11Z</time>
      </trkpt>
      <trkpt lat="45.82414" lon="4.82695">
        <ele>348</ele>
        <time>2014-07-22T17:53:12Z</time>
      </trkpt>
      <trkpt lat="45.82408" lon="4.82695">
        <ele>348</ele>
        <time>2014-07-22T17:53:15Z</time>
      </trkpt>
      <trkpt lat="45.82399" lon="4.82698">
        <ele>347</ele>
        <time>2014-07-22T17:53:18Z</time>
      </trkpt>
      <trkpt lat="45.82397" lon="4.82697">
        <ele>347</ele>
        <time>2014-07-22T17:53:19Z</time>
      </trkpt>
      <trkpt lat="45.82394" lon="4.82697">
        <ele>347</ele>
        <time>2014-07-22T17:53:20Z</time>
      </trkpt>
      <trkpt lat="45.82382" lon="4.82696">
        <ele>347</ele>
        <time>2014-07-22T17:53:24Z</time>
      </trkpt>
      <trkpt lat="45.82376" lon="4.82696">
        <ele>346</ele>
        <time>2014-07-22T17:53:26Z</time>
      </trkpt>
      <trkpt lat="45.82372" lon="4.82697">
        <ele>346</ele>
        <time>2014-07-22T17:53:27Z</time>
      </trkpt>
      <trkpt lat="45.82368" lon="4.82697">
        <ele>346</ele>
        <time>2014-07-22T17:53:29Z</time>
      </trkpt>
      <trkpt lat="45.82354" lon="4.82694">
        <ele>346</ele>
        <time>2014-07-22T17:53:34Z</time>
      </trkpt>
      <trkpt lat="45.82349" lon="4.82694">
        <ele>346</ele>
        <time>2014-07-22T17:53:36Z</time>
      </trkpt>
      <trkpt lat="45.82343" lon="4.82693">
        <ele>346</ele>
        <time>2014-07-22T17:53:38Z</time>
      </trkpt>
      <trkpt lat="45.82337" lon="4.82696">
        <ele>346</ele>
        <time>2014-07-22T17:53:40Z</time>
      </trkpt>
      <trkpt lat="45.8233" lon="4.82698">
        <ele>344</ele>
        <time>2014-07-22T17:53:42Z</time>
      </trkpt>
      <trkpt lat="45.82319" lon="4.82705">
        <ele>343</ele>
        <time>2014-07-22T17:53:46Z</time>
      </trkpt>
      <trkpt lat="45.82317" lon="4.82707">
        <ele>343</ele>
        <time>2014-07-22T17:53:47Z</time>
      </trkpt>
      <trkpt lat="45.82306" lon="4.82728">
        <ele>341</ele>
        <time>2014-07-22T17:53:53Z</time>
      </trkpt>
      <trkpt lat="45.823" lon="4.82749">
        <ele>340</ele>
        <time>2014-07-22T17:53:58Z</time>
      </trkpt>
      <trkpt lat="45.82298" lon="4.82752">
        <ele>332</ele>
        <time>2014-07-22T17:53:59Z</time>
      </trkpt>
      <trkpt lat="45.82296" lon="4.82754">
        <ele>332</ele>
        <time>2014-07-22T17:54:00Z</time>
      </trkpt>
      <trkpt lat="45.82293" lon="4.82755">
        <ele>332</ele>
        <time>2014-07-22T17:54:01Z</time>
      </trkpt>
      <trkpt lat="45.82283" lon="4.82759">
        <ele>332</ele>
        <time>2014-07-22T17:54:05Z</time>
      </trkpt>
      <trkpt lat="45.8228" lon="4.82758">
        <ele>332</ele>
        <time>2014-07-22T17:54:06Z</time>
      </trkpt>
      <trkpt lat="45.82269" lon="4.82759">
        <ele>332</ele>
        <time>2014-07-22T17:54:10Z</time>
      </trkpt>
      <trkpt lat="45.8226" lon="4.82762">
        <ele>333</ele>
        <time>2014-07-22T17:54:13Z</time>
      </trkpt>
      <trkpt lat="45.82254" lon="4.82765">
        <ele>333</ele>
        <time>2014-07-22T17:54:15Z</time>
      </trkpt>
      <trkpt lat="45.82243" lon="4.82769">
        <ele>331</ele>
        <time>2014-07-22T17:54:19Z</time>
      </trkpt>
      <trkpt lat="45.82232" lon="4.82779">
        <ele>330</ele>
        <time>2014-07-22T17:54:23Z</time>
      </trkpt>
      <trkpt lat="45.82228" lon="4.82787">
        <ele>329</ele>
        <time>2014-07-22T17:54:26Z</time>
      </trkpt>
      <trkpt lat="45.82228" lon="4.82791">
        <ele>328</ele>
        <time>2014-07-22T17:54:28Z</time>
      </trkpt>
      <trkpt lat="45.82231" lon="4.82799">
        <ele>328</ele>
        <time>2014-07-22T17:54:30Z</time>
      </trkpt>
      <trkpt lat="45.82234" lon="4.82808">
        <ele>327</ele>
        <time>2014-07-22T17:54:32Z</time>
      </trkpt>
      <trkpt lat="45.82234" lon="4.82812">
        <ele>327</ele>
        <time>2014-07-22T17:54:33Z</time>
      </trkpt>
      <trkpt lat="45.82237" lon="4.82828">
        <ele>326</ele>
        <time>2014-07-22T17:54:37Z</time>
      </trkpt>
      <trkpt lat="45.82238" lon="4.82841">
        <ele>320</ele>
        <time>2014-07-22T17:54:40Z</time>
      </trkpt>
      <trkpt lat="45.82239" lon="4.82851">
        <ele>319</ele>
        <time>2014-07-22T17:54:42Z</time>
      </trkpt>
      <trkpt lat="45.82239" lon="4.82862">
        <ele>317</ele>
        <time>2014-07-22T17:54:45Z</time>
      </trkpt>
      <trkpt lat="45.8224" lon="4.82865">
        <ele>317</ele>
        <time>2014-07-22T17:54:46Z</time>
      </trkpt>
      <trkpt lat="45.8224" lon="4.82869">
        <ele>316</ele>
        <time>2014-07-22T17:54:47Z</time>
      </trkpt>
      <trkpt lat="45.8224" lon="4.8288">
        <ele>315</ele>
        <time>2014-07-22T17:54:50Z</time>
      </trkpt>
      <trkpt lat="45.8224" lon="4.82884">
        <ele>314</ele>
        <time>2014-07-22T17:54:51Z</time>
      </trkpt>
      <trkpt lat="45.82243" lon="4.82898">
        <ele>313</ele>
        <time>2014-07-22T17:54:55Z</time>
      </trkpt>
      <trkpt lat="45.82243" lon="4.82903">
        <ele>312</ele>
        <time>2014-07-22T17:54:56Z</time>
      </trkpt>
      <trkpt lat="45.82234" lon="4.82921">
        <ele>305</ele>
        <time>2014-07-22T17:55:00Z</time>
      </trkpt>
      <trkpt lat="45.82224" lon="4.82923">
        <ele>303</ele>
        <time>2014-07-22T17:55:03Z</time>
      </trkpt>
      <trkpt lat="45.8222" lon="4.82922">
        <ele>303</ele>
        <time>2014-07-22T17:55:04Z</time>
      </trkpt>
      <trkpt lat="45.82215" lon="4.82919">
        <ele>303</ele>
        <time>2014-07-22T17:55:06Z</time>
      </trkpt>
      <trkpt lat="45.82207" lon="4.82913">
        <ele>312</ele>
        <time>2014-07-22T17:55:09Z</time>
      </trkpt>
      <trkpt lat="45.82197" lon="4.8291">
        <ele>311</ele>
        <time>2014-07-22T17:55:12Z</time>
      </trkpt>
      <trkpt lat="45.82191" lon="4.82908">
        <ele>311</ele>
        <time>2014-07-22T17:55:14Z</time>
      </trkpt>
      <trkpt lat="45.82181" lon="4.82904">
        <ele>310</ele>
        <time>2014-07-22T17:55:18Z</time>
      </trkpt>
      <trkpt lat="45.82178" lon="4.82904">
        <ele>310</ele>
        <time>2014-07-22T17:55:19Z</time>
      </trkpt>
      <trkpt lat="45.82166" lon="4.82898">
        <ele>307</ele>
        <time>2014-07-22T17:55:23Z</time>
      </trkpt>
      <trkpt lat="45.8216" lon="4.82895">
        <ele>307</ele>
        <time>2014-07-22T17:55:25Z</time>
      </trkpt>
      <trkpt lat="45.8215" lon="4.82895">
        <ele>307</ele>
        <time>2014-07-22T17:55:28Z</time>
      </trkpt>
      <trkpt lat="45.82141" lon="4.82893">
        <ele>307</ele>
        <time>2014-07-22T17:55:31Z</time>
      </trkpt>
      <trkpt lat="45.82138" lon="4.82893">
        <ele>307</ele>
        <time>2014-07-22T17:55:32Z</time>
      </trkpt>
      <trkpt lat="45.82124" lon="4.82891">
        <ele>306</ele>
        <time>2014-07-22T17:55:37Z</time>
      </trkpt>
      <trkpt lat="45.82107" lon="4.82887">
        <ele>305</ele>
        <time>2014-07-22T17:55:43Z</time>
      </trkpt>
      <trkpt lat="45.82104" lon="4.82887">
        <ele>305</ele>
        <time>2014-07-22T17:55:44Z</time>
      </trkpt>
      <trkpt lat="45.82093" lon="4.82883">
        <ele>305</ele>
        <time>2014-07-22T17:55:48Z</time>
      </trkpt>
      <trkpt lat="45.82087" lon="4.8288">
        <ele>305</ele>
        <time>2014-07-22T17:55:50Z</time>
      </trkpt>
      <trkpt lat="45.82075" lon="4.82877">
        <ele>299</ele>
        <time>2014-07-22T17:55:54Z</time>
      </trkpt>
      <trkpt lat="45.82066" lon="4.82875">
        <ele>299</ele>
        <time>2014-07-22T17:55:57Z</time>
      </trkpt>
      <trkpt lat="45.82059" lon="4.82872">
        <ele>299</ele>
        <time>2014-07-22T17:55:59Z</time>
      </trkpt>
      <trkpt lat="45.82047" lon="4.82867">
        <ele>299</ele>
        <time>2014-07-22T17:56:03Z</time>
      </trkpt>
      <trkpt lat="45.82044" lon="4.82865">
        <ele>299</ele>
        <time>2014-07-22T17:56:04Z</time>
      </trkpt>
      <trkpt lat="45.82031" lon="4.82865">
        <ele>298</ele>
        <time>2014-07-22T17:56:08Z</time>
      </trkpt>
      <trkpt lat="45.82028" lon="4.82866">
        <ele>298</ele>
        <time>2014-07-22T17:56:09Z</time>
      </trkpt>
      <trkpt lat="45.82018" lon="4.82868">
        <ele>297</ele>
        <time>2014-07-22T17:56:12Z</time>
      </trkpt>
      <trkpt lat="45.82009" lon="4.82868">
        <ele>297</ele>
        <time>2014-07-22T17:56:15Z</time>
      </trkpt>
      <trkpt lat="45.82003" lon="4.82867">
        <ele>297</ele>
        <time>2014-07-22T17:56:17Z</time>
      </trkpt>
      <trkpt lat="45.81989" lon="4.82865">
        <ele>292</ele>
        <time>2014-07-22T17:56:21Z</time>
      </trkpt>
      <trkpt lat="45.81986" lon="4.82865">
        <ele>292</ele>
        <time>2014-07-22T17:56:22Z</time>
      </trkpt>
      <trkpt lat="45.81972" lon="4.82866">
        <ele>291</ele>
        <time>2014-07-22T17:56:26Z</time>
      </trkpt>
      <trkpt lat="45.81968" lon="4.82865">
        <ele>291</ele>
        <time>2014-07-22T17:56:27Z</time>
      </trkpt>
      <trkpt lat="45.81952" lon="4.82864">
        <ele>290</ele>
        <time>2014-07-22T17:56:32Z</time>
      </trkpt>
      <trkpt lat="45.8195" lon="4.82864">
        <ele>290</ele>
        <time>2014-07-22T17:56:33Z</time>
      </trkpt>
      <trkpt lat="45.81935" lon="4.82866">
        <ele>290</ele>
        <time>2014-07-22T17:56:37Z</time>
      </trkpt>
      <trkpt lat="45.81929" lon="4.82864">
        <ele>290</ele>
        <time>2014-07-22T17:56:39Z</time>
      </trkpt>
      <trkpt lat="45.81923" lon="4.82864">
        <ele>290</ele>
        <time>2014-07-22T17:56:41Z</time>
      </trkpt>
      <trkpt lat="45.81911" lon="4.82863">
        <ele>288</ele>
        <time>2014-07-22T17:56:45Z</time>
      </trkpt>
      <trkpt lat="45.81907" lon="4.82862">
        <ele>288</ele>
        <time>2014-07-22T17:56:46Z</time>
      </trkpt>
      <trkpt lat="45.81892" lon="4.82859">
        <ele>288</ele>
        <time>2014-07-22T17:56:51Z</time>
      </trkpt>
      <trkpt lat="45.81883" lon="4.8286">
        <ele>288</ele>
        <time>2014-07-22T17:56:55Z</time>
      </trkpt>
      <trkpt lat="45.81877" lon="4.82873">
        <ele>287</ele>
        <time>2014-07-22T17:56:59Z</time>
      </trkpt>
      <trkpt lat="45.81865" lon="4.82889">
        <ele>286</ele>
        <time>2014-07-22T17:57:04Z</time>
      </trkpt>
      <trkpt lat="45.81863" lon="4.82893">
        <ele>286</ele>
        <time>2014-07-22T17:57:05Z</time>
      </trkpt>
      <trkpt lat="45.81855" lon="4.82906">
        <ele>285</ele>
        <time>2014-07-22T17:57:09Z</time>
      </trkpt>
      <trkpt lat="45.81851" lon="4.82915">
        <ele>285</ele>
        <time>2014-07-22T17:57:11Z</time>
      </trkpt>
      <trkpt lat="45.81844" lon="4.8293">
        <ele>281</ele>
        <time>2014-07-22T17:57:15Z</time>
      </trkpt>
      <trkpt lat="45.81839" lon="4.82939">
        <ele>281</ele>
        <time>2014-07-22T17:57:17Z</time>
      </trkpt>
      <trkpt lat="45.81833" lon="4.82948">
        <ele>279</ele>
        <time>2014-07-22T17:57:20Z</time>
      </trkpt>
      <trkpt lat="45.81828" lon="4.82955">
        <ele>278</ele>
        <time>2014-07-22T17:57:23Z</time>
      </trkpt>
      <trkpt lat="45.81827" lon="4.82959">
        <ele>278</ele>
        <time>2014-07-22T17:57:24Z</time>
      </trkpt>
      <trkpt lat="45.81819" lon="4.82973">
        <ele>277</ele>
        <time>2014-07-22T17:57:27Z</time>
      </trkpt>
      <trkpt lat="45.81814" lon="4.82975">
        <ele>277</ele>
        <time>2014-07-22T17:57:28Z</time>
      </trkpt>
      <trkpt lat="45.81807" lon="4.82976">
        <ele>276</ele>
        <time>2014-07-22T17:57:30Z</time>
      </trkpt>
      <trkpt lat="45.818" lon="4.82975">
        <ele>276</ele>
        <time>2014-07-22T17:57:32Z</time>
      </trkpt>
      <trkpt lat="45.81793" lon="4.82973">
        <ele>276</ele>
        <time>2014-07-22T17:57:34Z</time>
      </trkpt>
      <trkpt lat="45.8179" lon="4.82972">
        <ele>276</ele>
        <time>2014-07-22T17:57:35Z</time>
      </trkpt>
      <trkpt lat="45.81778" lon="4.82966">
        <ele>276</ele>
        <time>2014-07-22T17:57:39Z</time>
      </trkpt>
      <trkpt lat="45.81775" lon="4.82964">
        <ele>276</ele>
        <time>2014-07-22T17:57:40Z</time>
      </trkpt>
      <trkpt lat="45.81765" lon="4.82965">
        <ele>276</ele>
        <time>2014-07-22T17:57:44Z</time>
      </trkpt>
      <trkpt lat="45.81757" lon="4.82965">
        <ele>276</ele>
        <time>2014-07-22T17:57:47Z</time>
      </trkpt>
      <trkpt lat="45.81753" lon="4.82964">
        <ele>276</ele>
        <time>2014-07-22T17:57:48Z</time>
      </trkpt>
      <trkpt lat="45.81741" lon="4.82963">
        <ele>274</ele>
        <time>2014-07-22T17:57:52Z</time>
      </trkpt>
      <trkpt lat="45.81738" lon="4.82964">
        <ele>274</ele>
        <time>2014-07-22T17:57:53Z</time>
      </trkpt>
      <trkpt lat="45.81727" lon="4.82965">
        <ele>274</ele>
        <time>2014-07-22T17:57:57Z</time>
      </trkpt>
      <trkpt lat="45.81717" lon="4.82964">
        <ele>274</ele>
        <time>2014-07-22T17:58:00Z</time>
      </trkpt>
      <trkpt lat="45.8171" lon="4.82961">
        <ele>274</ele>
        <time>2014-07-22T17:58:02Z</time>
      </trkpt>
      <trkpt lat="45.81698" lon="4.82962">
        <ele>274</ele>
        <time>2014-07-22T17:58:06Z</time>
      </trkpt>
      <trkpt lat="45.81683" lon="4.82963">
        <ele>274</ele>
        <time>2014-07-22T17:58:11Z</time>
      </trkpt>
      <trkpt lat="45.81678" lon="4.82961">
        <ele>274</ele>
        <time>2014-07-22T17:58:13Z</time>
      </trkpt>
      <trkpt lat="45.81668" lon="4.8296">
        <ele>274</ele>
        <time>2014-07-22T17:58:16Z</time>
      </trkpt>
      <trkpt lat="45.8166" lon="4.82956">
        <ele>273</ele>
        <time>2014-07-22T17:58:19Z</time>
      </trkpt>
      <trkpt lat="45.81656" lon="4.82952">
        <ele>273</ele>
        <time>2014-07-22T17:58:21Z</time>
      </trkpt>
      <trkpt lat="45.81645" lon="4.82935">
        <ele>273</ele>
        <time>2014-07-22T17:58:27Z</time>
      </trkpt>
      <trkpt lat="45.81644" lon="4.82932">
        <ele>273</ele>
        <time>2014-07-22T17:58:28Z</time>
      </trkpt>
      <trkpt lat="45.81633" lon="4.82919">
        <ele>273</ele>
        <time>2014-07-22T17:58:34Z</time>
      </trkpt>
      <trkpt lat="45.8163" lon="4.82917">
        <ele>273</ele>
        <time>2014-07-22T17:58:35Z</time>
      </trkpt>
      <trkpt lat="45.81621" lon="4.82916">
        <ele>274</ele>
        <time>2014-07-22T17:58:38Z</time>
      </trkpt>
      <trkpt lat="45.8161" lon="4.8292">
        <ele>272</ele>
        <time>2014-07-22T17:58:42Z</time>
      </trkpt>
      <trkpt lat="45.81607" lon="4.82921">
        <ele>272</ele>
        <time>2014-07-22T17:58:43Z</time>
      </trkpt>
      <trkpt lat="45.8159" lon="4.82931">
        <ele>271</ele>
        <time>2014-07-22T17:58:48Z</time>
      </trkpt>
      <trkpt lat="45.81576" lon="4.82939">
        <ele>269</ele>
        <time>2014-07-22T17:58:53Z</time>
      </trkpt>
      <trkpt lat="45.81572" lon="4.82941">
        <ele>269</ele>
        <time>2014-07-22T17:58:54Z</time>
      </trkpt>
      <trkpt lat="45.81563" lon="4.82947">
        <ele>269</ele>
        <time>2014-07-22T17:58:57Z</time>
      </trkpt>
      <trkpt lat="45.81552" lon="4.82951">
        <ele>268</ele>
        <time>2014-07-22T17:59:01Z</time>
      </trkpt>
      <trkpt lat="45.8154" lon="4.82955">
        <ele>268</ele>
        <time>2014-07-22T17:59:06Z</time>
      </trkpt>
      <trkpt lat="45.81538" lon="4.82956">
        <ele>268</ele>
        <time>2014-07-22T17:59:07Z</time>
      </trkpt>
      <trkpt lat="45.81535" lon="4.82958">
        <ele>268</ele>
        <time>2014-07-22T17:59:08Z</time>
      </trkpt>
      <trkpt lat="45.8153" lon="4.82962">
        <ele>267</ele>
        <time>2014-07-22T17:59:10Z</time>
      </trkpt>
      <trkpt lat="45.81516" lon="4.82965">
        <ele>267</ele>
        <time>2014-07-22T17:59:14Z</time>
      </trkpt>
      <trkpt lat="45.81502" lon="4.82967">
        <ele>267</ele>
        <time>2014-07-22T17:59:19Z</time>
      </trkpt>
      <trkpt lat="45.81497" lon="4.82965">
        <ele>265</ele>
        <time>2014-07-22T17:59:21Z</time>
      </trkpt>
      <trkpt lat="45.81489" lon="4.82965">
        <ele>265</ele>
        <time>2014-07-22T17:59:24Z</time>
      </trkpt>
      <trkpt lat="45.81477" lon="4.82966">
        <ele>264</ele>
        <time>2014-07-22T17:59:28Z</time>
      </trkpt>
      <trkpt lat="45.81464" lon="4.82965">
        <ele>264</ele>
        <time>2014-07-22T17:59:32Z</time>
      </trkpt>
      <trkpt lat="45.81457" lon="4.82962">
        <ele>264</ele>
        <time>2014-07-22T17:59:35Z</time>
      </trkpt>
      <trkpt lat="45.8145" lon="4.82961">
        <ele>264</ele>
        <time>2014-07-22T17:59:37Z</time>
      </trkpt>
      <trkpt lat="45.81439" lon="4.82964">
        <ele>264</ele>
        <time>2014-07-22T17:59:41Z</time>
      </trkpt>
      <trkpt lat="45.81436" lon="4.82963">
        <ele>264</ele>
        <time>2014-07-22T17:59:42Z</time>
      </trkpt>
      <trkpt lat="45.81421" lon="4.82964">
        <ele>264</ele>
        <time>2014-07-22T17:59:47Z</time>
      </trkpt>
      <trkpt lat="45.81418" lon="4.82965">
        <ele>264</ele>
        <time>2014-07-22T17:59:48Z</time>
      </trkpt>
      <trkpt lat="45.81408" lon="4.82968">
        <ele>263</ele>
        <time>2014-07-22T17:59:51Z</time>
      </trkpt>
      <trkpt lat="45.81399" lon="4.82969">
        <ele>263</ele>
        <time>2014-07-22T17:59:54Z</time>
      </trkpt>
      <trkpt lat="45.81393" lon="4.8297">
        <ele>263</ele>
        <time>2014-07-22T17:59:56Z</time>
      </trkpt>
      <trkpt lat="45.8138" lon="4.82973">
        <ele>263</ele>
        <time>2014-07-22T18:00:00Z</time>
      </trkpt>
      <trkpt lat="45.81378" lon="4.82974">
        <ele>263</ele>
        <time>2014-07-22T18:00:01Z</time>
      </trkpt>
      <trkpt lat="45.81367" lon="4.82977">
        <ele>263</ele>
        <time>2014-07-22T18:00:05Z</time>
      </trkpt>
      <trkpt lat="45.81361" lon="4.82978">
        <ele>263</ele>
        <time>2014-07-22T18:00:07Z</time>
      </trkpt>
      <trkpt lat="45.81356" lon="4.8298">
        <ele>263</ele>
        <time>2014-07-22T18:00:09Z</time>
      </trkpt>
      <trkpt lat="45.81345" lon="4.82981">
        <ele>263</ele>
        <time>2014-07-22T18:00:13Z</time>
      </trkpt>
      <trkpt lat="45.81342" lon="4.82981">
        <ele>263</ele>
        <time>2014-07-22T18:00:14Z</time>
      </trkpt>
      <trkpt lat="45.8133" lon="4.82983">
        <ele>261</ele>
        <time>2014-07-22T18:00:18Z</time>
      </trkpt>
      <trkpt lat="45.81324" lon="4.82986">
        <ele>261</ele>
        <time>2014-07-22T18:00:20Z</time>
      </trkpt>
      <trkpt lat="45.81319" lon="4.82989">
        <ele>261</ele>
        <time>2014-07-22T18:00:22Z</time>
      </trkpt>
      <trkpt lat="45.81307" lon="4.82995">
        <ele>260</ele>
        <time>2014-07-22T18:00:26Z</time>
      </trkpt>
      <trkpt lat="45.81304" lon="4.82997">
        <ele>260</ele>
        <time>2014-07-22T18:00:27Z</time>
      </trkpt>
      <trkpt lat="45.81289" lon="4.83004">
        <ele>262</ele>
        <time>2014-07-22T18:00:32Z</time>
      </trkpt>
      <trkpt lat="45.81274" lon="4.83009">
        <ele>261</ele>
        <time>2014-07-22T18:00:37Z</time>
      </trkpt>
      <trkpt lat="45.81271" lon="4.8301">
        <ele>261</ele>
        <time>2014-07-22T18:00:38Z</time>
      </trkpt>
      <trkpt lat="45.8126" lon="4.83011">
        <ele>261</ele>
        <time>2014-07-22T18:00:42Z</time>
      </trkpt>
      <trkpt lat="45.81252" lon="4.83012">
        <ele>261</ele>
        <time>2014-07-22T18:00:45Z</time>
      </trkpt>
      <trkpt lat="45.81249" lon="4.83013">
        <ele>259</ele>
        <time>2014-07-22T18:00:46Z</time>
      </trkpt>
      <trkpt lat="45.81233" lon="4.83014">
        <ele>258</ele>
        <time>2014-07-22T18:00:52Z</time>
      </trkpt>
      <trkpt lat="45.81218" lon="4.83018">
        <ele>258</ele>
        <time>2014-07-22T18:00:57Z</time>
      </trkpt>
      <trkpt lat="45.81215" lon="4.83019">
        <ele>257</ele>
        <time>2014-07-22T18:00:58Z</time>
      </trkpt>
      <trkpt lat="45.81199" lon="4.83022">
        <ele>257</ele>
        <time>2014-07-22T18:01:03Z</time>
      </trkpt>
      <trkpt lat="45.81196" lon="4.83023">
        <ele>257</ele>
        <time>2014-07-22T18:01:04Z</time>
      </trkpt>
      <trkpt lat="45.81187" lon="4.83024">
        <ele>256</ele>
        <time>2014-07-22T18:01:07Z</time>
      </trkpt>
      <trkpt lat="45.81178" lon="4.83025">
        <ele>256</ele>
        <time>2014-07-22T18:01:10Z</time>
      </trkpt>
      <trkpt lat="45.81171" lon="4.83026">
        <ele>256</ele>
        <time>2014-07-22T18:01:12Z</time>
      </trkpt>
      <trkpt lat="45.81159" lon="4.83028">
        <ele>253</ele>
        <time>2014-07-22T18:01:16Z</time>
      </trkpt>
      <trkpt lat="45.81146" lon="4.8303">
        <ele>253</ele>
        <time>2014-07-22T18:01:20Z</time>
      </trkpt>
      <trkpt lat="45.8114" lon="4.83032">
        <ele>253</ele>
        <time>2014-07-22T18:01:22Z</time>
      </trkpt>
      <trkpt lat="45.81131" lon="4.83033">
        <ele>253</ele>
        <time>2014-07-22T18:01:25Z</time>
      </trkpt>
      <trkpt lat="45.81121" lon="4.83036">
        <ele>253</ele>
        <time>2014-07-22T18:01:28Z</time>
      </trkpt>
      <trkpt lat="45.81113" lon="4.83039">
        <ele>252</ele>
        <time>2014-07-22T18:01:31Z</time>
      </trkpt>
      <trkpt lat="45.81102" lon="4.83039">
        <ele>252</ele>
        <time>2014-07-22T18:01:35Z</time>
      </trkpt>
      <trkpt lat="45.81099" lon="4.83039">
        <ele>252</ele>
        <time>2014-07-22T18:01:36Z</time>
      </trkpt>
      <trkpt lat="45.81085" lon="4.83041">
        <ele>252</ele>
        <time>2014-07-22T18:01:41Z</time>
      </trkpt>
      <trkpt lat="45.81082" lon="4.8304">
        <ele>251</ele>
        <time>2014-07-22T18:01:42Z</time>
      </trkpt>
      <trkpt lat="45.81079" lon="4.8304">
        <ele>251</ele>
        <time>2014-07-22T18:01:43Z</time>
      </trkpt>
      <trkpt lat="45.81073" lon="4.83043">
        <ele>251</ele>
        <time>2014-07-22T18:01:45Z</time>
      </trkpt>
      <trkpt lat="45.81064" lon="4.83045">
        <ele>251</ele>
        <time>2014-07-22T18:01:48Z</time>
      </trkpt>
      <trkpt lat="45.81055" lon="4.83047">
        <ele>251</ele>
        <time>2014-07-22T18:01:51Z</time>
      </trkpt>
      <trkpt lat="45.81044" lon="4.83051">
        <ele>251</ele>
        <time>2014-07-22T18:01:55Z</time>
      </trkpt>
      <trkpt lat="45.81039" lon="4.83052">
        <ele>251</ele>
        <time>2014-07-22T18:01:57Z</time>
      </trkpt>
      <trkpt lat="45.81033" lon="4.83051">
        <ele>250</ele>
        <time>2014-07-22T18:01:59Z</time>
      </trkpt>
      <trkpt lat="45.8103" lon="4.83045">
        <ele>250</ele>
        <time>2014-07-22T18:02:01Z</time>
      </trkpt>
      <trkpt lat="45.81029" lon="4.83042">
        <ele>250</ele>
        <time>2014-07-22T18:02:02Z</time>
      </trkpt>
      <trkpt lat="45.81027" lon="4.83025">
        <ele>250</ele>
        <time>2014-07-22T18:02:06Z</time>
      </trkpt>
      <trkpt lat="45.81026" lon="4.83017">
        <ele>250</ele>
        <time>2014-07-22T18:02:08Z</time>
      </trkpt>
      <trkpt lat="45.81026" lon="4.83006">
        <ele>250</ele>
        <time>2014-07-22T18:02:11Z</time>
      </trkpt>
      <trkpt lat="45.81027" lon="4.82993">
        <ele>250</ele>
        <time>2014-07-22T18:02:15Z</time>
      </trkpt>
      <trkpt lat="45.81027" lon="4.8299">
        <ele>250</ele>
        <time>2014-07-22T18:02:16Z</time>
      </trkpt>
      <trkpt lat="45.81026" lon="4.82985">
        <ele>249</ele>
        <time>2014-07-22T18:02:18Z</time>
      </trkpt>
      <trkpt lat="45.81023" lon="4.8298">
        <ele>249</ele>
        <time>2014-07-22T18:02:20Z</time>
      </trkpt>
      <trkpt lat="45.81017" lon="4.82979">
        <ele>249</ele>
        <time>2014-07-22T18:02:22Z</time>
      </trkpt>
      <trkpt lat="45.81014" lon="4.82979">
        <ele>249</ele>
        <time>2014-07-22T18:02:23Z</time>
      </trkpt>
      <trkpt lat="45.81011" lon="4.82979">
        <ele>249</ele>
        <time>2014-07-22T18:02:24Z</time>
      </trkpt>
      <trkpt lat="45.80996" lon="4.82979">
        <ele>249</ele>
        <time>2014-07-22T18:02:29Z</time>
      </trkpt>
      <trkpt lat="45.80981" lon="4.82981">
        <ele>249</ele>
        <time>2014-07-22T18:02:34Z</time>
      </trkpt>
      <trkpt lat="45.80975" lon="4.8298">
        <ele>249</ele>
        <time>2014-07-22T18:02:36Z</time>
      </trkpt>
      <trkpt lat="45.80967" lon="4.82979">
        <ele>249</ele>
        <time>2014-07-22T18:02:39Z</time>
      </trkpt>
      <trkpt lat="45.80954" lon="4.82979">
        <ele>249</ele>
        <time>2014-07-22T18:02:42Z</time>
      </trkpt>
      <trkpt lat="45.80951" lon="4.82978">
        <ele>248</ele>
        <time>2014-07-22T18:02:43Z</time>
      </trkpt>
      <trkpt lat="45.80939" lon="4.82975">
        <ele>248</ele>
        <time>2014-07-22T18:02:47Z</time>
      </trkpt>
      <trkpt lat="45.80935" lon="4.82974">
        <ele>248</ele>
        <time>2014-07-22T18:02:48Z</time>
      </trkpt>
      <trkpt lat="45.80924" lon="4.82974">
        <ele>248</ele>
        <time>2014-07-22T18:02:52Z</time>
      </trkpt>
      <trkpt lat="45.80916" lon="4.82974">
        <ele>247</ele>
        <time>2014-07-22T18:02:55Z</time>
      </trkpt>
      <trkpt lat="45.80911" lon="4.82974">
        <ele>247</ele>
        <time>2014-07-22T18:02:57Z</time>
      </trkpt>
      <trkpt lat="45.80898" lon="4.82972">
        <ele>247</ele>
        <time>2014-07-22T18:03:02Z</time>
      </trkpt>
      <trkpt lat="45.80889" lon="4.82969">
        <ele>246</ele>
        <time>2014-07-22T18:03:06Z</time>
      </trkpt>
      <trkpt lat="45.80881" lon="4.82965">
        <ele>246</ele>
        <time>2014-07-22T18:03:10Z</time>
      </trkpt>
      <trkpt lat="45.80878" lon="4.82964">
        <ele>246</ele>
        <time>2014-07-22T18:03:11Z</time>
      </trkpt>
      <trkpt lat="45.80862" lon="4.82959">
        <ele>246</ele>
        <time>2014-07-22T18:03:17Z</time>
      </trkpt>
      <trkpt lat="45.80848" lon="4.82955">
        <ele>245</ele>
        <time>2014-07-22T18:03:22Z</time>
      </trkpt>
      <trkpt lat="45.80844" lon="4.82955">
        <ele>245</ele>
        <time>2014-07-22T18:03:23Z</time>
      </trkpt>
      <trkpt lat="45.80836" lon="4.82952">
        <ele>245</ele>
        <time>2014-07-22T18:03:26Z</time>
      </trkpt>
      <trkpt lat="45.80823" lon="4.82949">
        <ele>244</ele>
        <time>2014-07-22T18:03:31Z</time>
      </trkpt>
      <trkpt lat="45.80805" lon="4.82941">
        <ele>244</ele>
        <time>2014-07-22T18:03:38Z</time>
      </trkpt>
      <trkpt lat="45.80793" lon="4.82941">
        <ele>244</ele>
        <time>2014-07-22T18:03:42Z</time>
      </trkpt>
      <trkpt lat="45.80787" lon="4.82939">
        <ele>244</ele>
        <time>2014-07-22T18:03:44Z</time>
      </trkpt>
      <trkpt lat="45.80779" lon="4.82936">
        <ele>244</ele>
        <time>2014-07-22T18:03:47Z</time>
      </trkpt>
      <trkpt lat="45.80768" lon="4.8293">
        <ele>243</ele>
        <time>2014-07-22T18:03:51Z</time>
      </trkpt>
      <trkpt lat="45.80762" lon="4.82929">
        <ele>243</ele>
        <time>2014-07-22T18:03:53Z</time>
      </trkpt>
      <trkpt lat="45.8075" lon="4.82925">
        <ele>243</ele>
        <time>2014-07-22T18:03:58Z</time>
      </trkpt>
      <trkpt lat="45.80749" lon="4.82924">
        <ele>243</ele>
        <time>2014-07-22T18:03:59Z</time>
      </trkpt>
      <trkpt lat="45.80738" lon="4.82922">
        <ele>243</ele>
        <time>2014-07-22T18:04:04Z</time>
      </trkpt>
      <trkpt lat="45.80732" lon="4.82919">
        <ele>243</ele>
        <time>2014-07-22T18:04:06Z</time>
      </trkpt>
      <trkpt lat="45.8073" lon="4.82916">
        <ele>241</ele>
        <time>2014-07-22T18:04:07Z</time>
      </trkpt>
      <trkpt lat="45.80727" lon="4.82913">
        <ele>241</ele>
        <time>2014-07-22T18:04:08Z</time>
      </trkpt>
      <trkpt lat="45.8071" lon="4.82908">
        <ele>241</ele>
        <time>2014-07-22T18:04:13Z</time>
      </trkpt>
      <trkpt lat="45.80696" lon="4.82904">
        <ele>241</ele>
        <time>2014-07-22T18:04:18Z</time>
      </trkpt>
      <trkpt lat="45.8069" lon="4.82902">
        <ele>241</ele>
        <time>2014-07-22T18:04:20Z</time>
      </trkpt>
      <trkpt lat="45.8068" lon="4.82901">
        <ele>241</ele>
        <time>2014-07-22T18:04:23Z</time>
      </trkpt>
      <trkpt lat="45.80671" lon="4.82898">
        <ele>241</ele>
        <time>2014-07-22T18:04:26Z</time>
      </trkpt>
      <trkpt lat="45.80666" lon="4.829">
        <ele>239</ele>
        <time>2014-07-22T18:04:28Z</time>
      </trkpt>
      <trkpt lat="45.80658" lon="4.82902">
        <ele>239</ele>
        <time>2014-07-22T18:04:30Z</time>
      </trkpt>
      <trkpt lat="45.80651" lon="4.82905">
        <ele>239</ele>
        <time>2014-07-22T18:04:32Z</time>
      </trkpt>
      <trkpt lat="45.80634" lon="4.82914">
        <ele>238</ele>
        <time>2014-07-22T18:04:38Z</time>
      </trkpt>
      <trkpt lat="45.80633" lon="4.82915">
        <ele>238</ele>
        <time>2014-07-22T18:04:39Z</time>
      </trkpt>
      <trkpt lat="45.80627" lon="4.82918">
        <ele>242</ele>
        <time>2014-07-22T18:04:42Z</time>
      </trkpt>
      <trkpt lat="45.80614" lon="4.82926">
        <ele>241</ele>
        <time>2014-07-22T18:04:48Z</time>
      </trkpt>
      <trkpt lat="45.80604" lon="4.8293">
        <ele>241</ele>
        <time>2014-07-22T18:04:53Z</time>
      </trkpt>
      <trkpt lat="45.80595" lon="4.82934">
        <ele>241</ele>
        <time>2014-07-22T18:04:57Z</time>
      </trkpt>
      <trkpt lat="45.80591" lon="4.82934">
        <ele>240</ele>
        <time>2014-07-22T18:04:59Z</time>
      </trkpt>
      <trkpt lat="45.80578" lon="4.82941">
        <ele>240</ele>
        <time>2014-07-22T18:05:04Z</time>
      </trkpt>
      <trkpt lat="45.80574" lon="4.82942">
        <ele>240</ele>
        <time>2014-07-22T18:05:05Z</time>
      </trkpt>
      <trkpt lat="45.80561" lon="4.82946">
        <ele>240</ele>
        <time>2014-07-22T18:05:10Z</time>
      </trkpt>
      <trkpt lat="45.80558" lon="4.82948">
        <ele>240</ele>
        <time>2014-07-22T18:05:11Z</time>
      </trkpt>
      <trkpt lat="45.80545" lon="4.82951">
        <ele>240</ele>
        <time>2014-07-22T18:05:15Z</time>
      </trkpt>
      <trkpt lat="45.80539" lon="4.82952">
        <ele>240</ele>
        <time>2014-07-22T18:05:17Z</time>
      </trkpt>
      <trkpt lat="45.80526" lon="4.8295">
        <ele>240</ele>
        <time>2014-07-22T18:05:22Z</time>
      </trkpt>
      <trkpt lat="45.8052" lon="4.82951">
        <ele>240</ele>
        <time>2014-07-22T18:05:24Z</time>
      </trkpt>
      <trkpt lat="45.80511" lon="4.82951">
        <ele>240</ele>
        <time>2014-07-22T18:05:27Z</time>
      </trkpt>
      <trkpt lat="45.80502" lon="4.82954">
        <ele>240</ele>
        <time>2014-07-22T18:05:30Z</time>
      </trkpt>
      <trkpt lat="45.80499" lon="4.82955">
        <ele>240</ele>
        <time>2014-07-22T18:05:31Z</time>
      </trkpt>
      <trkpt lat="45.80485" lon="4.82957">
        <ele>240</ele>
        <time>2014-07-22T18:05:36Z</time>
      </trkpt>
      <trkpt lat="45.80482" lon="4.82958">
        <ele>240</ele>
        <time>2014-07-22T18:05:37Z</time>
      </trkpt>
      <trkpt lat="45.80473" lon="4.82958">
        <ele>240</ele>
        <time>2014-07-22T18:05:40Z</time>
      </trkpt>
      <trkpt lat="45.80463" lon="4.82958">
        <ele>240</ele>
        <time>2014-07-22T18:05:44Z</time>
      </trkpt>
      <trkpt lat="45.80449" lon="4.82956">
        <ele>240</ele>
        <time>2014-07-22T18:05:49Z</time>
      </trkpt>
      <trkpt lat="45.80444" lon="4.82958">
        <ele>240</ele>
        <time>2014-07-22T18:05:51Z</time>
      </trkpt>
      <trkpt lat="45.80438" lon="4.82964">
        <ele>241</ele>
        <time>2014-07-22T18:05:54Z</time>
      </trkpt>
      <trkpt lat="45.80435" lon="4.8298">
        <ele>241</ele>
        <time>2014-07-22T18:05:58Z</time>
      </trkpt>
      <trkpt lat="45.80432" lon="4.83002">
        <ele>242</ele>
        <time>2014-07-22T18:06:03Z</time>
      </trkpt>
      <trkpt lat="45.8043" lon="4.8301">
        <ele>242</ele>
        <time>2014-07-22T18:06:05Z</time>
      </trkpt>
      <trkpt lat="45.80426" lon="4.83022">
        <ele>242</ele>
        <time>2014-07-22T18:06:08Z</time>
      </trkpt>
      <trkpt lat="45.80423" lon="4.83035">
        <ele>242</ele>
        <time>2014-07-22T18:06:11Z</time>
      </trkpt>
      <trkpt lat="45.80422" lon="4.8304">
        <ele>242</ele>
        <time>2014-07-22T18:06:12Z</time>
      </trkpt>
      <trkpt lat="45.80416" lon="4.8306">
        <ele>240</ele>
        <time>2014-07-22T18:06:17Z</time>
      </trkpt>
      <trkpt lat="45.80409" lon="4.83082">
        <ele>240</ele>
        <time>2014-07-22T18:06:22Z</time>
      </trkpt>
      <trkpt lat="45.80408" lon="4.83086">
        <ele>239</ele>
        <time>2014-07-22T18:06:23Z</time>
      </trkpt>
      <trkpt lat="45.80402" lon="4.83102">
        <ele>238</ele>
        <time>2014-07-22T18:06:27Z</time>
      </trkpt>
      <trkpt lat="45.80401" lon="4.83115">
        <ele>238</ele>
        <time>2014-07-22T18:06:30Z</time>
      </trkpt>
    </trkseg>
  </trk>
</gpx>